[[{"header":{"parameterUnit":"m.s-1","parameterCategory":1,"la1":30.6,"la2":28.766,"lo1":-90.7593,"lo2":-88.6598,"dy":0.0162,"dx":0.0183,"nx":116,"ny":114,"refTime":"2023-03-13T00:00:00:Z","depth":0,"parameterNumber":2,"parameterNumberName":"U-component_of_WINDS"},"data":[0.0,0.0,0.0,0.0,0.0,0.0,0.0,0.0,0.0,0.0,0.0,0.0,0.0,0.0,0.0,0.0,0.0,0.0,0.0,0.0,0.0,0.0,0.0,0.0,0.0,0.0,0.0,0.0,0.0,0.0,0.0,0.0,0.0,0.0,0.0,0.0,0.0,0.0,0.0,0.0,0.0,0.0,0.0,0.0,0.0,0.0,0.0,0.0,0.0,0.0,0.0,0.0,0.0,0.0,0.0,0.0,0.0,0.0,0.0,0.0,0.0,0.0,0.0,0.0,0.0,0.0,0.0,0.0,0.0,0.0,0.0,0.0,0.0,0.0,0.0,0.0,0.0,0.0,0.0,0.0,0.0,0.0,0.0,0.0,0.0,0.0,0.0,0.0,0.0,0.0,0.0,0.0,0.0,0.0,0.0,0.0,0.0,0.0,0.0,0.0,0.0,0.0,0.0,0.0,0.0,0.0,0.0,0.0,0.0,0.0,0.0,0.0,0.0,0.0,0.0,0.0,0.0,0.0,0.0,0.0,0.0,0.0,0.0,0.0,0.0,0.0,0.0,0.0,0.0,0.0,0.0,0.0,0.0,0.0,0.0,0.0,0.0,0.0,0.0,0.0,0.0,0.0,0.0,0.0,0.0,0.0,0.0,0.0,0.0,0.0,0.0,0.0,0.0,0.0,0.0,0.0,0.0,0.0,0.0,0.0,0.0,0.0,0.0,0.0,0.0,0.0,0.0,0.0,0.0,0.0,0.0,0.0,0.0,0.0,0.0,0.0,0.0,0.0,0.0,0.0,0.0,0.0,0.0,0.0,0.0,0.0,0.0,0.0,0.0,0.0,0.0,0.0,0.0,0.0,0.0,0.0,0.0,0.0,0.0,0.0,0.0,0.0,0.0,0.0,0.0,0.0,0.0,0.0,0.0,0.0,0.0,0.0,0.0,0.0,0.0,0.0,0.0,0.0,0.0,0.0,0.0,0.0,0.0,0.0,0.0,0.0,0.0,0.0,0.0,0.0,0.0,0.0,0.0,0.0,0.0,0.0,0.0,0.0,0.0,0.0,0.0,0.0,0.0,0.0,0.0,0.0,0.0,0.0,0.0,0.0,0.0,0.0,0.0,0.0,0.0,0.0,0.0,0.0,0.0,0.0,0.0,0.0,0.0,0.0,0.0,0.0,0.0,0.0,0.0,0.0,0.0,0.0,0.0,0.0,0.0,0.0,0.0,0.0,0.0,0.0,0.0,0.0,0.0,0.0,0.0,0.0,0.0,0.0,0.0,0.0,0.0,0.0,0.0,0.0,0.0,0.0,0.0,0.0,0.0,0.0,0.0,0.0,0.0,0.0,0.0,0.0,0.0,0.0,0.0,0.0,0.0,0.0,0.0,0.0,0.0,0.0,0.0,0.0,0.0,0.0,0.0,0.0,0.0,0.0,0.0,0.0,0.0,0.0,0.0,0.0,0.0,0.0,0.0,0.0,0.0,0.0,0.0,0.0,0.0,0.0,0.0,0.0,0.0,0.0,0.0,0.0,0.0,0.0,0.0,0.0,0.0,0.0,0.0,0.0,0.0,0.0,0.0,0.0,0.0,0.0,0.0,0.0,0.0,0.0,0.0,0.0,0.0,0.0,0.0,0.0,0.0,0.0,0.0,0.0,0.0,0.0,0.0,0.0,0.0,0.0,0.0,0.0,0.0,0.0,0.0,0.0,0.0,0.0,0.0,0.0,0.0,0.0,0.0,0.0,0.0,0.0,0.0,0.0,0.0,0.0,0.0,0.0,0.0,0.0,0.0,0.0,0.0,0.0,0.0,0.0,0.0,0.0,0.0,0.0,0.0,0.0,0.0,0.0,0.0,0.0,0.0,0.0,0.0,0.0,0.0,0.0,0.0,0.0,0.0,0.0,0.0,0.0,0.0,0.0,0.0,0.0,0.0,0.0,0.0,0.0,0.0,0.0,0.0,0.0,0.0,0.0,0.0,0.0,0.0,0.0,0.0,0.0,0.0,0.0,0.0,0.0,0.0,0.0,0.0,0.0,0.0,0.0,0.0,0.0,0.0,0.0,0.0,0.0,0.0,0.0,0.0,0.0,0.0,0.0,0.0,0.0,0.0,0.0,0.0,0.0,0.0,0.0,0.0,0.0,0.0,0.0,0.0,0.0,0.0,0.0,0.0,0.0,0.0,0.0,0.0,0.0,0.0,0.0,0.0,0.0,0.0,0.0,0.0,0.0,0.0,0.0,0.0,0.0,0.0,0.0,0.0,0.0,0.0,0.0,0.0,0.0,0.0,0.0,0.0,0.0,0.0,0.0,0.0,0.0,0.0,0.0,0.0,0.0,0.0,0.0,0.0,0.0,0.0,0.0,0.0,0.0,0.0,0.0,0.0,0.0,0.0,0.0,0.0,0.0,0.0,0.0,0.0,0.0,0.0,0.0,0.0,0.0,0.0,0.0,0.0,0.0,0.0,0.0,0.0,0.0,0.0,0.0,0.0,0.0,0.0,0.0,0.0,0.0,0.0,0.0,0.0,0.0,0.0,0.0,0.0,0.0,0.0,0.0,0.0,0.0,0.0,0.0,0.0,0.0,0.0,0.0,0.0,0.0,0.0,0.0,0.0,0.0,0.0,0.0,0.0,0.0,0.0,0.0,0.0,0.0,0.0,0.0,0.0,0.0,0.0,0.0,0.0,0.0,0.0,0.0,0.0,0.0,0.0,0.0,0.0,0.0,0.0,0.0,0.0,0.0,0.0,0.0,0.0,0.0,0.0,0.0,0.0,0.0,0.0,0.0,0.0,0.0,0.0,0.0,0.0,0.0,0.0,0.0,0.0,0.0,0.0,0.0,0.0,0.0,0.0,0.0,0.0,0.0,0.0,0.0,0.0,0.0,0.0,0.0,0.0,0.0,0.0,0.0,0.0,0.0,0.0,0.0,0.0,0.0,0.0,0.0,0.0,0.0,0.0,0.0,0.0,0.0,0.0,0.0,0.0,0.0,0.0,0.0,0.0,0.0,0.0,0.0,0.0,0.0,0.0,0.0,0.0,0.0,0.0,0.0,0.0,0.0,0.0,0.0,0.0,0.0,0.0,0.0,0.0,0.0,0.0,0.0,0.0,0.0,0.0,0.0,0.0,0.0,0.0,0.0,0.0,0.0,0.0,0.0,0.0,0.0,0.0,0.0,0.0,0.0,0.0,0.0,0.0,0.0,0.0,0.0,0.0,0.0,0.0,0.0,0.0,0.0,0.0,0.0,0.0,0.0,0.0,0.0,0.0,0.0,0.0,0.0,0.0,0.0,0.0,0.0,0.0,0.0,0.0,0.0,0.0,0.0,0.0,0.0,0.0,0.0,0.0,0.0,0.0,0.0,0.0,0.0,0.0,0.0,0.0,0.0,0.0,0.0,0.0,0.0,0.0,0.0,0.0,0.0,0.0,0.0,0.0,0.0,0.0,0.0,0.0,0.0,0.0,0.0,0.0,0.0,0.0,0.0,0.0,0.0,0.0,0.0,0.0,0.0,0.0,0.0,0.0,0.0,0.0,0.0,0.0,0.0,0.0,0.0,0.0,0.0,0.0,0.0,0.0,0.0,0.0,0.0,0.0,0.0,0.0,0.0,0.0,0.0,0.0,0.0,0.0,0.0,0.0,0.0,0.0,0.0,0.0,0.0,0.0,0.0,0.0,0.0,0.0,0.0,0.0,0.0,0.0,0.0,0.0,0.0,0.0,0.0,0.0,0.0,0.0,0.0,0.0,0.0,0.0,0.0,0.0,0.0,0.0,0.0,0.0,0.0,0.0,0.0,0.0,0.0,0.0,0.0,0.0,0.0,0.0,0.0,0.0,0.0,0.0,0.0,0.0,0.0,0.0,0.0,0.0,0.0,0.0,0.0,0.0,0.0,0.0,0.0,0.0,0.0,0.0,0.0,0.0,0.0,0.0,0.0,0.0,0.0,0.0,0.0,0.0,0.0,0.0,0.0,0.0,0.0,0.0,0.0,0.0,0.0,0.0,0.0,0.0,0.0,0.0,0.0,0.0,0.0,0.0,0.0,0.0,0.0,0.0,0.0,0.0,0.0,0.0,0.0,0.0,0.0,0.0,0.0,0.0,0.0,0.0,0.0,0.0,0.0,0.0,0.0,0.0,0.0,0.0,0.0,0.0,0.0,0.0,0.0,0.0,0.0,0.0,0.0,0.0,0.0,0.0,0.0,0.0,0.0,0.0,0.0,0.0,0.0,0.0,0.0,0.0,0.0,0.0,0.0,0.0,0.0,0.0,0.0,0.0,0.0,0.0,0.0,0.0,0.0,0.0,0.0,0.0,0.0,0.0,0.0,0.0,0.0,0.0,0.0,0.0,0.0,0.0,0.0,0.0,0.0,0.0,0.0,0.0,0.0,0.0,0.0,0.0,0.0,0.0,0.0,0.0,0.0,0.0,0.0,0.0,0.0,0.0,0.0,0.0,0.0,0.0,0.0,0.0,0.0,0.0,0.0,0.0,0.0,0.0,0.0,0.0,0.0,0.0,0.0,0.0,0.0,0.0,0.0,0.0,0.0,0.0,0.0,0.0,0.0,0.0,0.0,0.0,0.0,0.0,0.0,0.0,0.0,0.0,0.0,0.0,0.0,0.0,0.0,0.0,0.0,0.0,0.0,0.0,0.0,0.0,0.0,0.0,0.0,0.0,0.0,0.0,0.0,0.0,0.0,0.0,0.0,0.0,0.0,0.0,0.0,0.0,0.0,0.0,0.0,0.0,0.0,0.0,0.0,0.0,0.0,0.0,0.0,0.0,0.0,0.0,0.0,0.0,0.0,0.0,0.0,0.0,0.0,0.0,0.0,0.0,0.0,0.0,0.0,0.0,0.0,0.0,0.0,0.0,0.0,0.0,0.0,0.0,0.0,0.0,0.0,0.0,0.0,0.0,0.0,0.0,0.0,0.0,0.0,0.0,0.0,0.0,0.0,0.0,0.0,0.0,0.0,0.0,0.0,0.0,0.0,0.0,0.0,0.0,0.0,0.0,0.0,0.0,0.0,0.0,0.0,0.0,0.0,0.0,0.0,0.0,0.0,0.0,0.0,0.0,0.0,0.0,0.0,0.0,0.0,0.0,0.0,0.0,0.0,0.0,0.0,0.0,0.0,0.0,0.0,0.0,0.0,0.0,0.0,0.0,0.0,0.0,0.0,0.0,0.0,0.0,0.0,0.0,0.0,0.0,0.0,0.0,0.0,0.0,0.0,0.0,0.0,0.0,0.0,0.0,0.0,0.0,0.0,0.0,0.0,0.0,0.0,0.0,0.0,0.0,0.0,0.0,0.0,0.0,0.0,0.0,0.0,0.0,0.0,0.0,0.0,0.0,0.0,0.0,0.0,0.0,0.0,0.0,0.0,0.0,0.0,0.0,0.0,0.0,0.0,0.0,0.0,0.0,0.0,0.0,0.0,0.0,0.0,0.0,0.0,0.0,0.0,0.0,0.0,0.0,0.0,0.0,0.0,0.0,0.0,0.0,0.0,0.0,0.0,0.0,0.0,0.0,0.0,0.0,0.0,0.0,0.0,0.0,0.0,0.0,0.0,0.0,0.0,0.0,0.0,0.0,0.0,0.0,0.0,0.0,0.0,0.0,0.0,0.0,0.0,0.0,0.0,0.0,0.0,0.0,0.0,0.0,0.0,0.0,0.0,0.0,0.0,0.0,0.0,0.0,0.0,0.0,0.0,0.0,0.0,0.0,0.0,0.0,0.0,0.0,0.0,0.0,0.0,0.0,0.0,0.0,0.0,0.0,0.0,0.0,0.0,0.0,0.0,0.0,0.0,0.0,0.0,0.0,0.0,0.0,0.0,0.0,0.0,0.0,0.0,0.0,0.0,0.0,0.0,0.0,0.0,0.0,0.0,0.0,0.0,0.0,0.0,0.0,0.0,0.0,0.0,0.0,0.0,0.0,0.0,0.0,0.0,0.0,0.0,0.0,0.0,0.0,0.0,0.0,0.0,0.0,0.0,0.0,0.0,0.0,0.0,0.0,0.0,0.0,0.0,0.0,0.0,0.0,0.0,0.0,0.0,0.0,0.0,0.0,0.0,0.0,0.0,0.0,0.0,0.0,0.0,0.0,0.0,-0.971,0.0,0.0,0.0,0.0,0.0,0.0,0.0,0.0,0.0,0.0,0.0,0.0,0.0,0.0,0.0,0.0,0.0,0.0,0.0,0.0,0.0,0.0,0.0,0.0,0.0,0.0,0.0,0.0,0.0,0.0,0.0,0.0,0.0,0.0,0.0,0.0,0.0,0.0,0.0,-1.8621,-1.873,-1.8935,-1.8247,-1.7015,-1.5351,0.0,0.0,0.0,0.0,0.0,0.0,0.0,0.0,0.0,0.0,0.0,0.0,0.0,0.0,0.0,0.0,0.0,0.0,0.0,0.0,0.0,0.0,0.0,0.0,0.0,0.0,0.0,0.0,0.0,0.0,0.0,0.0,0.0,0.0,0.0,0.0,0.0,0.0,0.0,0.0,0.0,0.0,0.0,0.0,0.0,0.0,0.0,0.0,0.0,0.0,0.0,0.0,0.0,0.0,0.0,0.0,0.0,0.0,0.0,0.0,0.0,0.0,0.0,0.0,0.0,0.0,0.0,0.0,0.0,0.0,0.0,-1.074,0.0,0.0,0.0,0.0,0.0,0.0,0.0,0.0,0.0,0.0,0.0,0.0,0.0,0.0,0.0,0.0,0.0,0.0,0.0,0.0,0.0,0.0,0.0,0.0,-1.7434,0.0,0.0,0.0,0.0,0.0,0.0,0.0,0.0,0.0,0.0,-1.9904,-2.0365,-2.0842,-2.1144,-2.1319,-2.1477,-2.1574,-2.0389,-1.81,-1.678,0.0,0.0,0.0,0.0,0.0,0.0,0.0,0.0,0.0,0.0,0.0,0.0,0.0,0.0,0.0,0.0,0.0,0.0,0.0,0.0,0.0,0.0,0.0,0.0,0.0,0.0,0.0,0.0,0.0,0.0,0.0,0.0,0.0,0.0,0.0,0.0,0.0,0.0,0.0,0.0,0.0,0.0,0.0,0.0,0.0,0.0,0.0,0.0,0.0,0.0,0.0,0.0,0.0,0.0,0.0,0.0,0.0,0.0,0.0,0.0,0.0,0.0,0.0,0.0,0.0,-1.6109,-1.5877,-1.6325,-1.7113,-1.4098,-1.2758,-1.2617,0.0,0.0,0.0,0.0,0.0,0.0,0.0,0.0,0.0,0.0,0.0,0.0,0.0,0.0,0.0,0.0,0.0,0.0,0.0,0.0,0.0,0.0,-1.887,-1.933,-1.9913,-2.045,-2.0884,0.0,0.0,0.0,0.0,0.0,0.0,-2.1325,-2.1407,-2.143,-2.1368,-2.2849,-2.4048,-2.4961,-2.5494,-2.5536,-2.5004,-2.0822,-1.9417,-1.9975,0.0,0.0,0.0,0.0,0.0,0.0,0.0,0.0,0.0,0.0,0.0,0.0,0.0,0.0,0.0,0.0,0.0,0.0,0.0,0.0,0.0,0.0,0.0,0.0,0.0,0.0,0.0,0.0,0.0,0.0,0.0,0.0,0.0,0.0,0.0,0.0,0.0,0.0,0.0,0.0,0.0,-1.4294,-1.4767,0.0,0.0,0.0,0.0,0.0,0.0,0.0,0.0,0.0,0.0,0.0,0.0,0.0,0.0,-1.9937,-1.9532,-1.9553,-2.0066,-1.9526,-1.9291,-1.9386,-1.8993,-1.8843,-1.8748,-1.7954,0.0,-1.517,-1.4596,0.0,0.0,0.0,0.0,0.0,0.0,0.0,0.0,0.0,0.0,0.0,0.0,0.0,0.0,0.0,0.0,0.0,0.0,0.0,0.0,0.0,-2.1351,-2.1867,-2.1818,-2.3266,-2.3548,-2.2095,0.0,0.0,0.0,0.0,-2.1964,-2.1882,-2.1882,-2.2382,-2.3472,-2.5368,-2.6716,-2.7469,-2.8047,-2.8323,-2.8247,-2.5851,-2.3751,-2.1902,-2.0091,0.0,0.0,0.0,0.0,0.0,0.0,0.0,0.0,0.0,0.0,0.0,0.0,0.0,0.0,0.0,0.0,0.0,0.0,0.0,0.0,0.0,0.0,0.0,0.0,0.0,0.0,0.0,0.0,0.0,0.0,0.0,0.0,0.0,0.0,0.0,0.0,0.0,0.0,0.0,-1.5365,-1.6392,-1.6516,-1.7517,-1.7981,0.0,0.0,0.0,0.0,0.0,0.0,0.0,0.0,0.0,-2.0858,-2.1176,-2.1655,-2.2266,-2.2371,-2.2649,-2.3094,-2.3119,-2.3227,-2.3433,-2.3248,-2.3248,-2.3328,-2.2695,-2.1805,-2.0523,-1.755,-1.6035,-1.5566,0.0,0.0,0.0,0.0,0.0,-1.5429,0.0,0.0,0.0,0.0,0.0,0.0,0.0,0.0,0.0,0.0,0.0,0.0,-2.281,-2.3839,-2.446,-2.439,-2.6109,-2.6233,-2.4016,-2.4905,0.0,0.0,0.0,-2.2815,-2.2916,-2.3186,-2.4239,-2.6197,-2.8164,-2.9644,-3.0604,-3.1105,-3.1382,-3.1357,-3.0658,-2.8251,-2.4536,-2.2684,-2.0718,-1.877,0.0,0.0,0.0,0.0,0.0,0.0,0.0,0.0,0.0,0.0,0.0,0.0,0.0,0.0,0.0,0.0,0.0,0.0,0.0,0.0,0.0,0.0,0.0,0.0,0.0,0.0,0.0,0.0,0.0,0.0,0.0,0.0,0.0,0.0,0.0,0.0,0.0,-1.7169,-1.8042,-1.8057,-1.9155,-1.9641,0.0,0.0,0.0,0.0,0.0,0.0,-2.1832,-2.2252,-2.2842,-2.3635,-2.4055,-2.4475,-2.4988,-2.517,-2.5448,-2.5892,-2.5952,-2.613,-2.6455,-2.6455,-2.654,-2.6798,-2.6174,-2.5655,-2.4909,-2.0831,-1.9041,-1.8771,-1.8155,-1.8081,0.0,-1.7969,-1.8222,-1.8667,0.0,0.0,0.0,0.0,0.0,0.0,0.0,0.0,0.0,0.0,0.0,-2.2836,-2.4648,-2.585,-2.6974,-2.802,-2.8752,-2.9091,-2.8935,-2.7946,-2.7089,-2.6499,-2.542,-2.5012,-2.5405,-2.6361,-2.767,-2.9391,-3.1074,-3.3024,-3.5179,-3.5474,-3.5664,-3.5638,-3.4765,-3.2549,-2.9201,-2.5389,-2.3923,-2.3843,-2.0641,0.0,0.0,0.0,0.0,0.0,0.0,0.0,0.0,0.0,0.0,0.0,0.0,0.0,0.0,0.0,0.0,0.0,0.0,0.0,0.0,0.0,0.0,0.0,0.0,0.0,0.0,0.0,0.0,0.0,0.0,0.0,0.0,0.0,0.0,0.0,0.0,0.0,0.0,-1.9539,-2.06,0.0,0.0,0.0,0.0,-2.2759,-2.3709,-2.4739,-2.5781,-2.5853,-2.6319,-2.7397,-2.7469,-2.7972,-2.9001,-2.8221,-2.8057,-2.8497,-2.7698,-2.7327,-2.7349,-2.7349,-2.7217,-2.7062,-2.7019,-2.6843,-2.6429,-2.4543,-2.3251,-2.2413,-2.237,-2.228,-2.2136,-2.2115,-2.1987,-2.1878,0.0,0.0,0.0,0.0,0.0,0.0,0.0,0.0,0.0,-2.2269,-2.3341,-2.467,-2.6425,-2.8307,-2.965,-3.0032,-3.0921,-3.0843,-2.9415,-2.8953,-2.8487,-2.8012,-2.7624,-2.7921,-2.8895,-2.9801,-3.137,-3.3721,-3.5709,-3.7485,-3.904,-3.8845,-3.8673,-3.846,-3.7147,-3.5617,-3.3822,-2.987,-2.725,-2.5535,-2.3254,-2.1253,0.0,0.0,0.0,0.0,0.0,0.0,0.0,0.0,0.0,0.0,0.0,0.0,0.0,0.0,0.0,0.0,0.0,0.0,0.0,0.0,0.0,0.0,0.0,0.0,0.0,0.0,0.0,0.0,0.0,0.0,0.0,0.0,0.0,0.0,0.0,0.0,0.0,-2.2321,-2.3867,0.0,0.0,-2.5175,-2.5571,-2.5765,-2.6529,-2.7261,-2.7878,-2.8203,-2.8633,-2.922,-2.9893,-3.0446,-3.0807,-3.124,-3.149,-3.1656,-3.1338,-3.1202,-3.1202,-3.1202,-3.0969,-3.0576,-3.0576,-3.0136,-2.9352,-2.8719,-2.7047,-2.4837,-2.4313,-2.4036,-2.3835,-2.3595,-2.3542,-2.3639,0.0,0.0,0.0,0.0,0.0,0.0,0.0,0.0,0.0,-2.2844,-2.4652,-2.6556,-2.849,-3.0764,-3.2384,-3.2879,-3.337,-3.3063,-3.1675,-3.087,-3.0276,-2.9955,-3.0007,-3.0594,-3.1716,-3.3056,-3.4927,-3.7349,-3.9172,-4.078,-4.2133,-4.1381,-4.1206,-4.1531,-3.9395,-3.825,-3.7702,-3.4294,-3.1007,-2.7927,-2.6058,-2.4226,-2.2472,0.0,0.0,0.0,0.0,0.0,0.0,0.0,0.0,0.0,0.0,0.0,0.0,0.0,0.0,0.0,0.0,0.0,0.0,0.0,0.0,0.0,0.0,0.0,0.0,0.0,0.0,0.0,0.0,0.0,0.0,0.0,0.0,0.0,0.0,0.0,-2.4604,-2.5036,-2.6457,-2.7354,-2.716,-2.7797,-2.8191,-2.8191,-2.918,-2.9917,-3.0335,-3.066,-3.1016,-3.138,-3.2321,-3.2738,-3.2602,-3.3496,-3.3908,-3.3813,-3.3813,-3.3717,-3.3549,-3.3549,-3.326,-3.2779,-3.2779,-3.237,-3.1697,-3.1697,-3.0449,-2.8387,-2.7124,-2.6565,-2.6397,-2.6125,-2.6092,-2.613,0.0,0.0,0.0,0.0,0.0,0.0,0.0,-2.1458,-2.2846,-2.3965,-2.6132,-2.8464,-3.0764,-3.3104,-3.5077,-3.6578,-3.5967,-3.5663,-3.6051,-3.3756,-3.2391,-3.2481,-3.2573,-3.2988,-3.3807,-3.6136,-3.828,-4.0262,-4.1354,-4.2838,-4.4555,-4.3232,-4.3485,-4.4973,-4.1708,-4.0535,-4.0839,-3.8395,-3.5148,-3.1411,-2.9151,-2.7896,-2.7118,0.0,0.0,0.0,0.0,0.0,0.0,0.0,0.0,0.0,0.0,0.0,0.0,0.0,0.0,0.0,0.0,0.0,0.0,0.0,0.0,0.0,0.0,0.0,0.0,0.0,0.0,0.0,0.0,0.0,0.0,0.0,0.0,0.0,-2.4402,-2.5227,-2.632,-2.7582,-2.8261,-2.8409,-2.7928,-2.9312,-3.0267,-3.0267,-3.1709,-3.2846,-3.3365,-3.339,-3.3637,-3.4111,-3.4725,-3.4881,-3.4529,-3.5064,-3.5187,-3.4823,-3.4823,-3.4558,-3.4054,-3.4054,-3.3837,-3.3356,-3.3332,-3.3332,-3.3308,-3.3308,-3.3284,-3.3068,-3.0975,-3.0031,-2.9862,-2.9862,-2.9645,-2.9428,0.0,0.0,0.0,0.0,0.0,0.0,0.0,-2.1944,-2.3223,-2.439,-2.7039,-2.951,-3.1354,-3.4286,-3.6398,-3.716,-3.5971,-3.5412,-3.5929,-3.3326,-3.2618,-3.454,-3.5024,-3.6272,-3.8457,-4.0052,-4.2298,-4.5309,-4.6093,-4.748,-4.9275,-4.7279,-4.669,-4.7281,-4.5253,-4.371,-4.2642,-4.1579,-3.9458,-3.6531,-3.2641,-3.0281,-2.885,0.0,0.0,0.0,0.0,0.0,0.0,0.0,0.0,0.0,0.0,0.0,0.0,0.0,0.0,0.0,0.0,0.0,0.0,0.0,0.0,0.0,0.0,0.0,0.0,0.0,0.0,0.0,0.0,0.0,0.0,0.0,0.0,-2.9109,-2.6462,-2.8075,-2.9711,-3.0441,-3.2282,-3.3615,-3.3895,-3.5148,-3.5966,-3.5966,-3.6944,-3.7502,-3.7502,-3.7457,-3.7492,-3.7472,-3.8004,-3.7811,-3.6707,-3.7285,-3.7023,-3.5978,-3.5978,-3.5881,-3.5761,-3.5761,-3.5473,-3.4968,-3.4583,-3.4198,-3.3766,-3.3428,-3.3284,-3.3188,-3.2226,-3.1601,-3.1148,-3.0721,-3.0295,-2.9917,0.0,0.0,0.0,0.0,0.0,0.0,0.0,-2.2447,-2.3824,-2.4494,-2.7686,-3.034,-3.159,-3.4861,-3.7179,-3.7552,-3.676,-3.6331,-3.6526,-3.4693,-3.4386,-3.6204,-3.741,-3.9424,-4.2402,-4.3671,-4.5687,-4.8492,-4.9194,-5.0242,-5.1571,-4.9791,-4.9503,-5.0252,-4.807,-4.6762,-4.6173,-4.4186,-4.2498,-4.0875,-3.6944,-3.4223,-3.2332,-2.9843,-2.8273,-2.7243,-2.5728,-2.5269,-2.5136,-2.3354,0.0,0.0,0.0,0.0,0.0,0.0,0.0,0.0,0.0,0.0,0.0,0.0,0.0,0.0,0.0,0.0,0.0,0.0,0.0,0.0,0.0,0.0,0.0,0.0,-3.1962,-3.3117,-3.2293,-3.3016,-3.385,-3.4418,-3.6105,-3.7307,-3.7606,-3.8514,-3.9047,-3.9047,-3.9751,-4.0078,-3.9961,-3.9961,-3.9871,-3.978,-4.0329,-4.0161,-3.9216,-3.979,-3.9586,-3.8718,-3.8718,-3.8592,-3.8365,-3.8415,-3.8138,0.0,-3.67,-3.6012,-3.5471,-3.4848,-3.4463,0.0,0.0,0.0,0.0,0.0,-3.1216,-3.0759,0.0,0.0,0.0,0.0,0.0,0.0,0.0,-2.2869,-2.4331,-2.4458,-2.8022,-3.0788,-3.1332,-3.4739,-3.7126,-3.7442,-3.7491,-3.7427,-3.7187,-3.6896,-3.7015,-3.7704,-3.9738,-4.2312,-4.5454,-4.692,-4.8596,-5.0524,-5.1139,-5.1828,-5.2516,-5.1415,-5.1729,-5.3215,-5.0464,-4.9643,-5.0191,-4.6648,-4.5019,-4.4491,-4.1647,-3.8943,-3.6304,-3.3671,-3.2566,-3.2064,-2.9578,-2.8072,-2.7153,-2.5887,0.0,0.0,0.0,0.0,0.0,0.0,0.0,0.0,0.0,0.0,0.0,0.0,0.0,0.0,0.0,0.0,0.0,0.0,0.0,0.0,0.0,0.0,0.0,0.0,-3.4986,-3.6945,-3.9719,-3.9204,-3.8675,-3.8967,-3.9683,-4.0155,-4.0155,-4.0683,-4.1003,-4.0948,-4.1453,-4.1709,-4.1654,0.0,0.0,0.0,0.0,-4.2214,-4.1761,-4.2274,-4.235,-4.1883,-4.1883,-4.1666,-4.1208,-4.1234,-4.1015,-4.0488,-3.9214,-3.8373,-3.7868,-3.7097,-3.6375,-3.5621,-3.4077,-3.3428,-3.3308,-3.2779,-3.2274,0.0,0.0,0.0,0.0,0.0,0.0,0.0,0.0,-2.2647,-2.3903,-2.4849,-2.7771,-2.9839,-3.0128,-3.2729,-3.4733,-3.5323,-3.5236,-3.5351,-3.5845,-3.7225,-3.8571,-3.9768,-4.2222,-4.4616,-4.686,-4.8671,-5.0631,-5.2606,-5.2725,-5.3414,-5.4581,-5.3277,-5.3158,-5.3982,-5.2823,-5.1824,-5.0882,-5.0115,-4.8616,-4.6672,-4.5828,-4.2385,-3.7538,-3.6132,-3.4751,-3.3445,-3.2466,-3.2265,-3.2164,-3.0156,-2.9314,-2.8775,-2.6882,0.0,0.0,0.0,0.0,0.0,0.0,0.0,0.0,0.0,0.0,0.0,0.0,0.0,0.0,0.0,0.0,0.0,0.0,0.0,0.0,-3.633,-3.9291,-4.1849,-4.2998,-4.419,-4.4276,-4.2348,-4.3369,-4.4181,-4.4181,-4.5022,-4.5338,-4.4821,-4.5367,-4.5465,-4.4994,-4.4965,0.0,-4.4965,-4.5109,-4.4606,-4.3479,-4.3543,-4.3047,-4.1883,0.0,0.0,-4.1772,-4.1772,-4.1621,-4.1346,-4.0627,-4.017,-3.9797,-3.9239,-3.8148,-3.6722,-3.5138,-3.427,-3.379,-3.3332,-3.3068,-3.2971,0.0,0.0,0.0,0.0,0.0,0.0,0.0,-2.2732,-2.4002,-2.4835,-2.7281,-2.8912,-2.8846,-3.1017,-3.25,-3.2596,-3.314,-3.3947,-3.4951,-3.7135,-3.929,-4.1294,-4.4227,-4.6741,-4.8716,-5.069,-5.2366,-5.3683,-5.4042,-5.4521,-5.5179,-5.4491,-5.4371,-5.47,-5.4341,-5.3813,-5.3069,-5.2027,-5.0892,-4.9625,-4.8486,-4.5777,-4.2227,-4.0368,-3.8956,-3.7828,-3.698,-3.6481,-3.5991,-3.4673,-3.362,-3.2646,-3.1283,-2.9257,-2.7232,0.0,0.0,0.0,0.0,0.0,0.0,0.0,0.0,0.0,0.0,0.0,0.0,0.0,0.0,-3.2774,0.0,0.0,-3.7999,-4.0292,-4.2498,-4.4618,-4.6592,-4.7375,-4.6962,-4.4686,-4.5419,-4.5938,-4.5624,-4.6299,-4.6662,-4.6388,-4.665,-4.6662,-4.6388,-4.604,-4.5895,-4.5895,-4.5895,-4.5595,-4.4915,-4.4869,-4.4545,-4.3909,-4.3909,-4.3909,-4.3909,-4.3909,-4.3862,-4.3721,-4.2774,-4.1854,-4.0839,-3.9002,-3.7816,-3.7045,-3.5719,-3.4703,-3.3958,-3.3765,-3.3501,-3.3284,0.0,0.0,0.0,0.0,0.0,0.0,0.0,0.0,-2.3904,-2.4582,-2.6602,-2.7891,-2.754,-2.9171,-3.0256,-3.0079,-3.1529,-3.3152,-3.4771,-3.7315,-3.9978,-4.265,-4.5933,-4.8536,-5.0345,-5.2247,-5.3593,-5.4401,-5.494,-5.5179,-5.5179,-5.5179,-5.5179,-5.5179,-5.5179,-5.5179,-5.5099,-5.3429,-5.2646,-5.2368,-5.0711,-4.907,-4.7438,-4.5052,-4.3375,-4.2181,-4.1004,-3.9724,-3.8553,-3.8191,-3.6866,-3.5386,-3.4958,-3.3276,-3.111,-2.9408,-2.795,0.0,0.0,0.0,0.0,0.0,0.0,0.0,0.0,0.0,-3.1818,-3.2803,-3.3935,-3.5305,-3.6925,-3.8492,-4.0525,-4.366,-4.4995,-4.6534,-4.9175,-4.9291,-4.8391,-4.6475,-4.6911,-4.723,-4.6853,-4.7172,-4.7317,-4.7155,-4.7155,-4.7097,-4.7027,-4.6534,-4.6243,-4.6243,-4.6127,-4.6069,-4.6069,-4.5953,-4.5895,-4.5895,-4.5895,-4.5895,-4.5895,-4.5895,-4.5895,-4.573,-4.4591,-4.3349,-4.2005,-3.9254,-3.8091,-3.8035,-3.6824,-3.5649,-3.4557,-3.427,-3.3933,-3.3597,0.0,0.0,0.0,0.0,0.0,0.0,0.0,0.0,0.0,-2.3954,-2.5619,-2.6552,-2.6163,-2.6909,-2.7848,-2.8822,-3.0979,-3.3443,-3.6115,-3.8721,-4.1354,-4.3988,-4.7279,-4.9703,-5.1079,-5.2486,-5.3803,-5.5089,-5.5149,-5.5179,-5.5179,-5.5179,-5.5179,-5.5179,-5.5179,-5.5179,-5.5179,-5.4938,-5.4529,-5.3913,-5.3473,-5.2171,-5.0305,-4.9186,-4.6585,-4.3356,-4.2086,-4.0521,-3.9013,-3.8976,-3.7783,-3.6334,-3.6361,-3.5174,-3.3586,-3.2828,0.0,-2.9407,-2.972,-2.9927,-3.0103,-3.0161,-3.0742,-3.2048,0.0,0.0,-3.5537,-3.7854,-3.887,-3.9596,-4.0408,-4.2528,-4.4269,-4.4705,-4.6766,-4.842,-4.8769,-4.9756,-4.9727,-4.7811,-4.8624,-4.9553,-5.0075,-4.9669,-4.9117,-4.8518,-4.846,-4.8275,-4.7695,-4.7608,-4.7579,-4.7579,-4.7027,-4.6691,-4.6691,-4.6156,-4.5895,-4.5895,-4.5895,-4.5895,-4.5895,-4.5895,-4.5776,-4.5504,-4.4954,-4.4602,-4.4349,-4.3194,-4.2246,-4.1293,-3.9699,-3.8165,-3.6645,-3.5235,-3.4655,-3.4607,0.0,0.0,0.0,0.0,0.0,0.0,0.0,0.0,0.0,0.0,-2.418,-2.4872,-2.4506,-2.5164,-2.5989,-2.6831,-2.8589,-3.1013,-3.4354,-3.7493,-4.0545,-4.3443,-4.7271,-4.9883,-5.1199,-5.2516,-5.3653,-5.461,-5.4999,-5.4999,-5.464,-5.4999,-5.5179,-5.5179,-5.5179,-5.5179,-5.5179,-5.5179,-5.482,-5.4221,-5.4092,-5.2751,-5.0733,-4.9571,-4.7111,-4.4032,-4.2365,-4.0716,0.0,0.0,-3.7935,-3.7106,-3.7851,-3.6627,-3.4754,-3.4082,-3.2409,0.0,-3.1058,-3.1671,0.0,0.0,-3.3296,-3.5241,-3.6577,-3.7535,-3.8522,-4.0002,-4.1105,-4.1976,-4.2644,-4.424,-4.5837,0.0,-4.8333,-4.9504,-5.0307,-5.022,-4.9814,-4.9001,-4.8711,-4.8537,-4.8449,-4.8856,-4.9001,-4.8692,-4.8663,-4.8624,-4.8333,-4.7985,-4.7782,-4.7782,-4.7521,-4.7375,-4.7375,-4.6766,-4.6417,-4.6417,-4.6069,-4.5895,-4.5895,-4.5895,-4.585,-4.5685,-4.4879,-4.4434,-4.4191,-4.2736,-4.1469,-4.0278,-3.91,-3.7863,-3.6627,-3.5621,-3.5039,-3.4775,0.0,0.0,0.0,0.0,0.0,0.0,0.0,0.0,0.0,0.0,0.0,-2.3739,-2.3614,-2.4181,-2.4794,-2.5273,-2.6551,-2.8838,-3.2434,-3.5517,-3.8832,-4.2432,-4.6136,-4.8865,-5.0391,-5.1708,-5.2785,-5.3653,-5.3952,-5.3952,-5.3653,-5.4132,-5.4371,-5.4371,-5.476,-5.491,-5.491,-5.491,-5.4551,-5.3922,-5.3713,-5.224,-4.9965,-4.8655,-4.6218,-4.3253,-4.1676,-4.0,0.0,0.0,-3.6668,-3.6277,-3.7383,-3.6568,-3.5078,-3.4612,-3.3445,-3.2249,-3.2106,0.0,0.0,-3.3964,-3.6112,-3.8434,-3.8783,-3.9915,-4.1192,-4.2208,-4.2992,-4.3718,-4.4385,-4.5547,0.0,-4.8478,-4.9582,-5.0403,-5.1033,-5.0598,-4.9814,-4.8798,-4.813,-4.7462,-4.665,-4.7869,-4.8798,-4.8972,-4.9001,-4.9001,-4.9001,-4.8566,-4.8304,-4.8304,-4.813,-4.8043,-4.8043,-4.7404,-4.7085,-4.7085,-4.6446,-4.6156,-4.6127,-4.5982,-4.5895,-4.5821,-4.4989,-4.4499,-4.4256,-4.2873,-4.1731,-4.071,-3.9486,-3.8416,-3.7492,-3.6422,-3.5617,-3.4967,0.0,0.0,0.0,0.0,0.0,0.0,0.0,0.0,0.0,0.0,0.0,0.0,0.0,0.0,-2.4366,-2.4509,-2.5679,-2.7831,-3.1152,-3.3185,-3.6305,-4.1062,-4.3799,-4.6211,-4.8356,-4.9673,-5.096,-5.2247,-5.1648,-5.1648,-5.2247,-5.2276,-5.2306,-5.2336,-5.3653,-5.4251,-5.4251,-5.4251,-5.3832,-5.3144,-5.2516,-5.069,-4.8237,-4.6877,-4.3917,-4.0472,-3.9963,0.0,0.0,0.0,-3.36,-3.3128,-3.3836,-3.4296,0.0,-3.4606,-3.4442,0.0,0.0,0.0,-3.7186,-3.7157,-3.9102,-4.1308,-4.2528,-4.2847,-4.3456,-4.5343,-4.5256,-4.5024,-4.5721,-4.6853,-4.7956,-4.8624,-5.0307,-5.1149,-4.9959,-5.0801,-5.0191,-4.6446,-4.7056,-4.7288,0.0,-4.7608,-4.8972,-4.9611,-4.964,-4.964,-4.964,-4.964,-4.9611,-4.9611,-4.9001,-4.8682,-4.8682,-4.8072,-4.7753,-4.7753,-4.7114,-4.6749,-4.672,-4.6156,-4.5895,-4.5895,-4.5595,-4.5458,-4.5458,-4.511,-4.4943,-4.4684,-4.2372,-4.1146,-4.0353,-3.8033,-3.6483,-3.5521,0.0,0.0,0.0,0.0,0.0,0.0,0.0,0.0,0.0,0.0,0.0,0.0,0.0,0.0,0.0,0.0,0.0,-2.5548,-2.7782,-3.0863,-3.3983,-3.6997,-3.9849,-4.2694,-4.5562,-4.624,-4.7332,-4.8955,-4.9613,-4.9823,-4.9613,-5.0062,-5.0288,-5.0301,-5.1169,-5.1541,-5.1571,-5.2037,-5.1349,-4.9883,-4.9224,-4.7369,-4.4796,-4.2581,-4.0098,-3.7524,0.0,0.0,0.0,0.0,0.0,0.0,-3.2132,0.0,0.0,-3.3277,0.0,0.0,0.0,0.0,-3.9479,-4.0757,-4.2353,-4.395,-4.5256,-4.5547,-4.5721,-4.6388,-4.4966,-4.3689,-4.3921,-4.4676,-4.5605,-4.6679,-4.8827,-5.0365,-5.0365,-5.0336,-4.9378,-4.6824,-4.6882,0.0,0.0,0.0,0.0,-4.8972,-4.9059,-4.9233,-4.9688,-4.9717,-4.9717,-4.9717,-4.9465,-4.9349,-4.9349,-4.874,-4.842,-4.8391,-4.73,-4.6621,-4.6214,-4.5982,-4.5895,-4.5895,-4.5776,-4.5776,-4.573,-4.5504,-4.4573,-4.3197,-4.223,-4.0889,-3.9295,-3.7947,-3.7245,-3.6785,0.0,0.0,0.0,0.0,0.0,0.0,0.0,0.0,0.0,0.0,0.0,0.0,0.0,0.0,0.0,0.0,0.0,0.0,-2.5123,-2.769,-3.0346,-3.2937,-3.5515,-3.8175,-4.1024,-4.1743,-4.2747,-4.4107,-4.5214,-4.5663,-4.54,-4.6296,-4.6834,-4.7103,-4.7999,-4.8492,-4.8701,-4.8955,-4.776,-4.5669,-4.5012,-4.308,-4.0367,-3.8392,-3.6417,0.0,0.0,0.0,0.0,0.0,0.0,0.0,0.0,0.0,0.0,0.0,0.0,0.0,0.0,-4.048,-4.207,-4.3992,-4.5229,-4.6069,-4.6662,-4.6778,-4.6604,-4.5953,-4.4298,-4.2847,-4.2382,-4.2673,-4.3456,-4.4966,-4.6766,-4.8391,-4.9543,-4.9088,-4.813,-4.665,-4.6505,0.0,0.0,0.0,0.0,-4.8576,-4.8663,-4.9001,-4.964,-4.9717,-4.9717,-4.9717,-4.9717,-4.9717,-4.9717,-4.9262,-4.8827,-4.8391,-4.755,-4.6708,-4.5895,-4.5895,-4.5895,-4.5895,-4.5895,-4.5895,-4.5895,-4.5685,-4.4805,-4.3388,-4.235,-4.1093,-3.9623,-3.8267,-3.773,-3.7584,0.0,0.0,0.0,0.0,0.0,0.0,0.0,0.0,0.0,0.0,0.0,0.0,0.0,0.0,0.0,0.0,0.0,0.0,-2.3276,-2.3908,-2.5662,-2.893,-3.0942,-3.2982,-3.5014,-3.6364,-3.7391,-3.8153,-3.8781,-3.9331,-3.978,-4.1058,-4.198,-4.2674,-4.3953,-4.4876,-4.5369,-4.4816,-4.309,-4.0634,-4.0018,-3.7948,-3.522,-3.4532,0.0,0.0,0.0,0.0,0.0,0.0,0.0,0.0,0.0,0.0,0.0,0.0,0.0,-3.8863,-4.206,-4.3684,-4.501,-4.6884,-4.7666,-4.7771,-4.7114,-4.6882,-4.6243,-4.4385,-4.334,-4.2382,0.0,0.0,-4.1686,-4.3573,-4.456,-4.575,-4.7608,-4.7375,-4.6766,0.0,0.0,0.0,0.0,0.0,0.0,-4.8595,0.0,-4.8972,-4.964,-4.9717,-4.9717,-4.9717,-4.9717,-4.9717,-4.9717,-4.9717,-4.903,-4.7782,-4.7782,-4.7114,-4.5895,-4.5895,-4.5895,-4.5895,-4.5895,-4.5895,-4.5895,-4.5895,-4.573,-4.5201,-4.293,-4.1811,-4.1293,-3.8948,-3.808,-3.7882,0.0,0.0,0.0,0.0,0.0,0.0,0.0,0.0,0.0,0.0,0.0,0.0,0.0,0.0,0.0,0.0,0.0,0.0,-2.1403,-2.2661,-2.4124,-2.5751,-2.721,-2.92,-3.176,-3.2249,-3.3177,-3.4614,-3.4763,-3.4909,-3.5056,-3.5383,-3.5684,-3.5992,-3.673,-3.7178,-3.7455,-3.7679,-3.688,-3.5424,0.0,-3.411,-3.2437,0.0,0.0,0.0,0.0,0.0,0.0,0.0,0.0,0.0,0.0,0.0,-3.6052,0.0,0.0,-4.211,-4.395,-4.5943,-4.7831,-4.9304,-4.9615,-4.9464,-4.9289,-4.7631,-4.5721,-4.4298,-4.1541,-3.9189,0.0,0.0,0.0,-4.2324,-4.5488,0.0,-4.9059,-4.9494,0.0,-4.813,0.0,-4.7753,-4.7114,-4.7201,0.0,0.0,-4.8275,-4.8508,-4.9611,-4.9717,-4.9717,-4.9717,-4.9717,-4.9717,-4.9717,-4.9717,-4.903,-4.7782,-4.7782,-4.7114,-4.5895,-4.5895,-4.5895,-4.5895,-4.5895,-4.5895,-4.5895,-4.5895,-4.5384,-4.4527,-4.3748,-4.2474,-4.0893,-3.9853,-3.8973,-3.8214,0.0,0.0,0.0,0.0,0.0,0.0,0.0,0.0,0.0,0.0,0.0,0.0,0.0,0.0,0.0,0.0,0.0,0.0,0.0,-2.1167,-2.2023,-2.2867,-2.3883,-2.5266,-2.7059,-2.7705,-2.8481,-2.9427,-3.0215,-3.0482,-3.0192,-3.0807,-3.1247,-3.1571,-3.1893,-3.2369,-3.291,-3.2938,0.0,0.0,0.0,0.0,0.0,0.0,0.0,0.0,0.0,0.0,0.0,0.0,0.0,-3.2647,-3.4292,-3.6357,-3.8631,-4.0905,0.0,-4.4828,-4.6778,-4.8387,-4.9863,-5.1165,-5.0581,-4.9461,-4.8641,-4.6703,-4.4356,-4.1947,-3.9509,0.0,0.0,0.0,0.0,0.0,0.0,0.0,-4.8188,-4.874,-4.8914,0.0,-4.8972,0.0,-4.7869,-4.8323,-4.8653,0.0,-4.8391,-4.8624,-4.9659,-4.9717,-4.9717,-4.9717,-4.9717,-4.9717,-4.9717,-4.9407,-4.8769,-4.7782,-4.7491,-4.6853,-4.5895,-4.5895,-4.5895,-4.5895,0.0,-4.5895,-4.5895,-4.5895,-4.5201,-4.4106,-4.3511,-4.2181,-4.0516,-3.9622,-3.8921,-3.8368,0.0,0.0,0.0,0.0,0.0,0.0,0.0,0.0,0.0,0.0,0.0,0.0,0.0,0.0,0.0,0.0,0.0,0.0,0.0,0.0,0.0,-2.0566,-2.1277,-2.193,-2.2485,0.0,0.0,0.0,0.0,0.0,-2.5613,-2.6774,-2.7598,-2.8111,-2.8111,-2.8742,0.0,0.0,0.0,0.0,0.0,0.0,0.0,0.0,0.0,0.0,0.0,0.0,0.0,0.0,-3.3245,-3.4352,-3.6357,-3.8811,-4.1414,-4.3958,-4.5681,-4.7326,-4.9777,-5.0832,-5.1524,-5.2594,-5.1069,-4.8823,-4.6828,-4.4967,-4.2598,-3.8841,0.0,-3.6664,-3.5508,0.0,-3.7186,-3.9131,0.0,-4.3689,-4.6766,-4.7242,-4.7753,-4.8856,-4.9465,-4.9349,-4.8159,-4.903,-4.9494,-4.9001,-4.9001,-4.9233,-4.9834,-4.9814,-4.9814,-4.9814,-4.9776,-4.9717,-4.9717,-4.9117,-4.8537,-4.7898,-4.7346,-4.6708,-4.6011,-4.6011,-4.5982,-4.5895,0.0,0.0,-4.5685,-4.5685,-4.4972,-4.3729,-4.2716,-4.1541,-4.0262,-3.9,-3.8449,-3.8291,0.0,0.0,0.0,0.0,0.0,0.0,0.0,0.0,0.0,0.0,-1.7957,-1.8738,0.0,0.0,0.0,0.0,0.0,0.0,0.0,0.0,0.0,0.0,-2.0572,-2.1223,0.0,0.0,0.0,0.0,0.0,0.0,-2.2398,0.0,0.0,0.0,0.0,0.0,0.0,0.0,0.0,0.0,0.0,0.0,0.0,0.0,0.0,0.0,0.0,0.0,0.0,0.0,-3.4831,-3.7075,-3.908,-4.1534,-4.4047,-4.6172,-4.8073,-4.9837,-5.1439,-5.2707,-5.3544,-5.3215,-5.181,-4.9804,-4.7214,-4.4141,0.0,0.0,0.0,-3.5508,-3.4719,-3.6373,0.0,-4.0437,0.0,0.0,0.0,0.0,-5.0104,0.0,0.0,0.0,0.0,0.0,0.0,0.0,0.0,0.0,-5.0481,-5.056,-5.056,-5.056,-5.0008,-4.9717,-4.9717,-4.9553,-4.9204,-4.8566,-4.8449,-4.7735,-4.665,-4.665,-4.6388,-4.5895,0.0,0.0,-4.4545,-4.4545,-4.3937,-4.2937,-4.2328,-4.1392,-4.0313,-3.9648,-3.8844,-3.808,0.0,0.0,0.0,0.0,0.0,0.0,0.0,-1.5642,-1.5853,-1.5931,-1.6743,-1.7489,-1.7782,-1.8546,0.0,0.0,0.0,0.0,0.0,0.0,0.0,0.0,0.0,0.0,0.0,0.0,0.0,0.0,0.0,0.0,0.0,0.0,0.0,0.0,0.0,0.0,0.0,0.0,0.0,0.0,0.0,0.0,0.0,0.0,0.0,0.0,0.0,0.0,0.0,0.0,-3.4887,-3.7943,-4.0965,-4.3269,-4.5274,-4.7638,-4.9224,-5.0554,-5.2247,-5.3174,-5.3683,-5.3713,-5.1488,-4.8549,-4.5838,0.0,0.0,0.0,0.0,-3.4777,-3.4457,0.0,0.0,0.0,0.0,0.0,0.0,0.0,0.0,0.0,0.0,0.0,0.0,0.0,0.0,0.0,0.0,0.0,-5.1178,-5.0859,-5.0511,-5.0211,-4.9892,-4.9717,-4.9717,-4.9349,-4.903,-4.8663,-4.8391,-4.7927,-4.7317,-4.6923,-4.665,-4.6359,0.0,0.0,-4.511,-4.4545,-4.3626,-4.2523,-4.169,-4.0641,-3.9519,-3.9104,-3.8659,-3.821,0.0,0.0,0.0,0.0,0.0,0.0,0.0,-1.541,-1.541,-1.541,-1.5796,-1.6189,-1.6378,-1.7425,-1.8011,0.0,0.0,0.0,0.0,0.0,0.0,0.0,0.0,0.0,0.0,0.0,0.0,0.0,0.0,0.0,0.0,0.0,0.0,0.0,0.0,0.0,0.0,0.0,0.0,0.0,0.0,0.0,0.0,0.0,0.0,0.0,0.0,0.0,0.0,0.0,-3.4165,-3.7221,-4.1159,-4.3828,-4.5933,-4.8027,-4.9583,-5.0943,-5.2546,-5.3245,-5.3604,-5.3743,-5.0713,-4.6976,-4.4211,-4.0753,0.0,0.0,-3.4399,-3.4399,-3.4399,0.0,-3.6606,0.0,0.0,0.0,0.0,0.0,0.0,0.0,0.0,0.0,0.0,0.0,0.0,0.0,0.0,0.0,0.0,-5.1091,-5.0481,-5.0104,-4.9814,-4.9717,-4.9717,-4.9175,-4.8914,-4.8914,-4.842,-4.8043,-4.7753,-4.7259,-4.6882,-4.6592,0.0,0.0,0.0,-4.4434,-4.3245,-4.191,-4.0792,-3.9673,-3.8684,-3.8421,-3.8291,-3.8315,0.0,0.0,0.0,0.0,0.0,0.0,0.0,-1.541,-1.541,-1.541,-1.5439,-1.5212,-1.4466,-1.5908,-1.6987,0.0,0.0,0.0,0.0,0.0,0.0,0.0,0.0,0.0,0.0,0.0,0.0,0.0,0.0,0.0,0.0,0.0,0.0,0.0,0.0,0.0,0.0,0.0,0.0,0.0,0.0,0.0,0.0,0.0,0.0,0.0,0.0,0.0,0.0,0.0,0.0,-3.4373,-3.8335,-4.2613,-4.6249,-4.6531,0.0,0.0,-5.2247,-5.3426,-5.428,-5.2767,-4.9654,-4.628,-4.3519,0.0,0.0,-3.4758,-3.4399,-3.4399,-3.4399,-3.498,-3.6293,0.0,0.0,-4.1657,0.0,0.0,0.0,0.0,0.0,0.0,0.0,0.0,0.0,0.0,0.0,0.0,0.0,-5.1374,-5.0917,-5.141,-5.0278,-4.9717,-4.9717,-4.9611,-4.9582,-4.9582,-4.9524,-4.8885,-4.7782,-4.7724,-4.7056,-4.5982,0.0,0.0,0.0,-4.3368,-4.2133,-4.0792,-3.9467,-3.8788,-3.8421,-3.8157,-3.8027,-3.8027,0.0,0.0,0.0,0.0,0.0,0.0,-1.541,-1.541,-1.541,-1.541,-1.541,-1.5293,-1.4913,-1.5063,-1.5243,0.0,0.0,0.0,0.0,0.0,0.0,0.0,0.0,0.0,0.0,0.0,0.0,0.0,0.0,0.0,0.0,0.0,0.0,0.0,0.0,0.0,0.0,0.0,0.0,0.0,0.0,0.0,0.0,0.0,0.0,0.0,0.0,0.0,0.0,0.0,0.0,0.0,-3.4431,-3.8048,0.0,0.0,-4.71,-4.9194,-5.1558,-5.3286,-5.4072,-5.2412,-4.9252,-4.5726,-4.2677,0.0,0.0,-3.467,-3.4399,-3.4399,-3.4399,-3.4632,-3.5503,-3.7709,-3.7912,0.0,0.0,0.0,0.0,0.0,0.0,0.0,0.0,0.0,0.0,0.0,0.0,0.0,0.0,-5.1585,-5.0801,-5.1033,-5.0162,-4.9717,-4.9717,-4.9717,-4.9717,-4.9717,-4.9717,-4.9204,-4.8333,-4.7956,-4.7288,-4.6401,0.0,0.0,0.0,-4.2765,-4.169,-4.1267,-3.9519,-3.8526,-3.8133,-3.8027,-3.7974,-3.7974,0.0,0.0,0.0,0.0,0.0,-1.5187,-1.4964,-1.5138,-1.5255,-1.5177,-1.5157,-1.5177,-1.5234,-1.4426,-1.3985,-1.4124,0.0,0.0,0.0,0.0,0.0,0.0,0.0,0.0,0.0,0.0,0.0,0.0,0.0,0.0,0.0,0.0,0.0,0.0,0.0,0.0,0.0,0.0,0.0,0.0,0.0,0.0,0.0,0.0,0.0,0.0,0.0,0.0,0.0,0.0,0.0,0.0,0.0,0.0,0.0,0.0,-4.4706,-4.692,-4.9703,-5.1864,-5.3049,-5.1739,-4.8387,-4.4739,0.0,0.0,-3.5326,-3.4583,-3.4399,-3.4399,-3.4399,-3.4719,-3.5532,-3.7273,-3.7506,-3.8725,0.0,0.0,0.0,0.0,0.0,0.0,0.0,0.0,0.0,0.0,0.0,0.0,0.0,-5.1497,-5.0772,-5.0946,-5.0133,-4.9717,-4.9717,-4.9717,-4.9717,-4.9717,-4.9494,-4.9059,-4.842,-4.7782,-4.7143,0.0,0.0,0.0,0.0,-4.2279,-4.1243,-4.1267,-3.9415,-3.8421,-3.7974,-3.7974,-3.7974,-3.7974,0.0,0.0,0.0,0.0,0.0,0.0,-1.3944,-1.4487,-1.4916,-1.4647,-1.4617,-1.4645,-1.4785,-1.4023,-1.3516,-1.3496,0.0,0.0,0.0,0.0,0.0,0.0,0.0,0.0,0.0,0.0,0.0,0.0,0.0,0.0,0.0,0.0,0.0,0.0,0.0,0.0,0.0,0.0,0.0,0.0,0.0,0.0,0.0,0.0,0.0,0.0,0.0,0.0,0.0,0.0,0.0,0.0,0.0,0.0,0.0,0.0,-4.2192,-4.6279,-4.6339,-4.8816,-5.1216,-5.0385,-4.6756,-4.3077,0.0,0.0,-3.4631,-3.4462,-3.4399,-3.4399,-3.4399,-3.5444,-3.6722,-3.7999,-3.9247,0.0,0.0,0.0,0.0,0.0,0.0,0.0,0.0,0.0,0.0,0.0,0.0,0.0,0.0,0.0,-5.0946,-5.1585,-5.0365,-4.9717,-4.9717,-4.9717,-4.9717,-4.9717,-4.903,-4.8391,-4.7782,-4.7143,0.0,0.0,0.0,0.0,0.0,-4.1762,-4.0641,-4.0262,-3.8921,-3.8262,-3.7974,-3.7974,-3.7974,-3.7974,0.0,0.0,0.0,0.0,0.0,0.0,0.0,-1.402,-1.4154,-1.4056,-1.4056,-1.4111,-1.4247,-1.3717,-1.3394,-1.3471,0.0,0.0,0.0,0.0,0.0,0.0,0.0,0.0,0.0,0.0,-1.9184,-1.9261,-1.9261,-1.9289,0.0,0.0,0.0,0.0,0.0,0.0,0.0,0.0,0.0,0.0,0.0,0.0,0.0,0.0,0.0,0.0,0.0,0.0,0.0,0.0,0.0,0.0,0.0,0.0,0.0,0.0,0.0,0.0,-4.3838,-4.5662,-4.6798,-4.5421,-4.3005,-4.0568,-3.9048,0.0,-3.4631,-3.4462,-3.4399,-3.4399,-3.4399,-3.4748,-3.5706,-3.7854,-3.8551,0.0,0.0,0.0,0.0,0.0,0.0,0.0,0.0,0.0,0.0,0.0,0.0,0.0,0.0,0.0,-5.0772,-5.0975,-5.0133,-4.9717,-4.9717,-4.9717,-4.9717,-4.9717,-4.903,-4.8624,-4.8391,-4.7271,0.0,0.0,0.0,0.0,0.0,-4.1019,-4.0032,-4.0262,-3.8921,-3.8262,-3.7974,-3.7974,-3.7974,-3.7974,0.0,0.0,0.0,0.0,0.0,0.0,0.0,-1.3415,-1.3592,-1.3476,-1.3457,-1.3594,-1.388,-1.3355,-1.3093,-1.3394,0.0,0.0,0.0,0.0,0.0,0.0,0.0,0.0,0.0,-1.8177,-1.8546,-1.8762,-1.8999,-1.9158,-1.9263,-1.9289,0.0,0.0,0.0,0.0,0.0,0.0,0.0,0.0,0.0,0.0,-2.1554,0.0,0.0,0.0,0.0,0.0,0.0,0.0,0.0,0.0,0.0,0.0,0.0,0.0,0.0,0.0,0.0,-4.2585,-4.3245,-4.2562,-4.0783,0.0,0.0,0.0,-3.4563,-3.4428,-3.4399,-3.4399,-3.4399,-3.4806,-3.5735,-3.7564,-3.8463,0.0,0.0,0.0,0.0,0.0,0.0,0.0,0.0,0.0,0.0,0.0,0.0,0.0,0.0,0.0,-5.0569,-5.0307,-4.9901,-4.9717,-4.9717,-4.9717,-4.9717,-4.9717,-4.903,-4.8595,-4.8333,0.0,0.0,0.0,0.0,0.0,0.0,-4.0389,-3.9389,-3.9673,-3.8659,-3.8133,-3.7974,-3.7974,-3.7974,-3.7974,0.0,0.0,0.0,0.0,0.0,0.0,0.0,0.0,-1.3129,-1.288,-1.2824,-1.3051,-1.3632,-1.296,-1.2681,-1.3215,0.0,0.0,0.0,0.0,0.0,0.0,0.0,0.0,0.0,-1.7326,-1.7693,-1.8074,-1.8732,-1.9047,-1.9047,-1.9202,-1.9255,-1.9184,0.0,0.0,0.0,0.0,0.0,0.0,0.0,0.0,0.0,0.0,0.0,0.0,0.0,0.0,0.0,0.0,0.0,0.0,0.0,0.0,0.0,0.0,0.0,0.0,0.0,0.0,0.0,0.0,0.0,0.0,0.0,0.0,0.0,-3.4399,-3.4399,-3.4428,-3.4457,-3.5444,-3.6489,-3.7302,0.0,0.0,0.0,0.0,0.0,0.0,0.0,0.0,0.0,0.0,0.0,0.0,0.0,0.0,0.0,0.0,0.0,-4.9698,-4.9717,-4.9717,-4.9717,-4.964,-4.9611,-4.9611,-4.8914,-4.8304,-4.7753,0.0,0.0,0.0,0.0,0.0,0.0,-3.9879,-3.8788,-3.8736,-3.8185,-3.7974,-3.7974,-3.7974,-3.7974,-3.7974,0.0,0.0,0.0,0.0,0.0,0.0,0.0,0.0,0.0,0.0,-1.2289,-1.2376,-1.2638,-1.247,-1.2493,0.0,0.0,0.0,0.0,0.0,0.0,0.0,0.0,0.0,0.0,-1.6808,-1.7557,-1.7647,-1.8976,-1.9627,-1.9627,-2.0061,-1.982,-1.9052,-1.9063,-1.9025,-1.9008,0.0,0.0,0.0,0.0,0.0,0.0,0.0,0.0,0.0,-2.4766,-2.5549,0.0,0.0,0.0,0.0,0.0,0.0,0.0,0.0,-3.4088,0.0,-3.5276,0.0,-3.5497,-3.6206,-3.5822,-3.527,0.0,0.0,0.0,0.0,0.0,0.0,0.0,0.0,0.0,0.0,0.0,0.0,0.0,0.0,0.0,0.0,0.0,0.0,0.0,0.0,0.0,0.0,0.0,0.0,0.0,0.0,0.0,-4.9698,-4.9717,-4.9717,-4.9717,-4.9175,-4.8943,-4.8943,-4.7764,-4.7462,-4.7753,0.0,0.0,0.0,0.0,0.0,-4.1419,-3.9595,-3.8788,-3.8736,-3.8185,-3.7974,-3.7974,-3.7974,-3.7974,-3.7974,0.0,0.0,0.0,0.0,0.0,0.0,0.0,0.0,0.0,0.0,0.0,0.0,0.0,0.0,0.0,0.0,0.0,0.0,0.0,0.0,0.0,0.0,0.0,-1.4586,-1.4599,-1.6007,-1.687,-1.7096,-1.8652,-1.9579,-1.9796,-1.9841,-1.9672,-1.9363,-1.9252,-1.9117,-1.9002,-1.9402,-1.963,0.0,0.0,0.0,0.0,0.0,0.0,0.0,-2.4762,-2.5487,0.0,-2.8419,-2.9026,-2.9402,0.0,0.0,0.0,0.0,-3.3927,-3.3539,-3.4468,-3.3995,-3.3437,-3.4334,-3.4496,-3.4486,-3.4777,0.0,0.0,0.0,0.0,0.0,0.0,0.0,0.0,0.0,0.0,0.0,0.0,0.0,0.0,0.0,0.0,0.0,0.0,0.0,0.0,0.0,0.0,0.0,0.0,0.0,0.0,0.0,-4.9717,-4.9524,-4.9233,-4.8885,-4.8566,-4.8275,-4.7608,-4.7288,-4.7317,0.0,0.0,0.0,0.0,0.0,-4.0718,-3.9233,-3.8631,-3.8579,-3.8133,-3.7974,-3.7974,-3.7974,-3.7974,-3.7974,0.0,0.0,0.0,0.0,0.0,0.0,0.0,0.0,0.0,0.0,0.0,0.0,0.0,0.0,0.0,0.0,0.0,0.0,0.0,0.0,0.0,0.0,0.0,-1.3665,-1.4228,-1.5398,-1.6232,-1.6753,-1.8427,-1.948,-1.9941,-1.9624,-1.9624,-1.9916,-1.9395,-1.923,-1.9356,-1.957,-1.9676,0.0,0.0,0.0,0.0,0.0,0.0,0.0,0.0,0.0,0.0,-2.9348,-2.9406,-2.8935,-3.2414,0.0,0.0,0.0,0.0,0.0,-3.4576,-3.3901,-3.3197,-3.4172,-3.4399,-3.4545,-3.5131,0.0,0.0,0.0,0.0,0.0,0.0,0.0,0.0,0.0,0.0,0.0,0.0,0.0,0.0,0.0,0.0,0.0,0.0,0.0,0.0,0.0,0.0,0.0,0.0,0.0,0.0,0.0,-4.9524,-4.9175,-4.8402,-4.8537,-4.8246,-4.7637,-4.7521,-4.7108,-4.6449,-4.6374,0.0,0.0,0.0,0.0,-4.0058,-3.8868,-3.8421,-3.8368,-3.808,-3.7974,-3.7974,-3.7974,-3.7974,-3.7974,0.0,0.0,0.0,0.0,0.0,0.0,0.0,0.0,0.0,0.0,0.0,0.0,0.0,0.0,0.0,0.0,0.0,0.0,0.0,0.0,0.0,-1.2738,-1.3477,-1.4195,-1.4861,-1.595,-1.677,-1.7358,-1.9373,-2.0418,-2.0514,-2.1332,-2.126,-2.0442,-1.9459,-1.9371,-1.9864,-1.9919,-2.0082,-2.0376,0.0,0.0,0.0,0.0,0.0,0.0,0.0,0.0,0.0,-2.8476,-2.9522,-3.0482,-3.2167,0.0,0.0,0.0,0.0,0.0,-3.4816,-3.4724,-3.4201,-3.437,-3.4399,-3.4428,-3.4545,0.0,0.0,0.0,0.0,0.0,0.0,0.0,0.0,0.0,0.0,0.0,0.0,0.0,0.0,0.0,0.0,0.0,0.0,0.0,0.0,0.0,0.0,0.0,0.0,0.0,0.0,0.0,0.0,-4.8304,-4.7097,-4.7666,-4.7608,-4.6969,-4.6446,-4.5688,-4.4686,-4.4425,-4.3204,0.0,0.0,-4.0058,-3.8973,-3.8579,-3.8421,-3.8368,-3.808,-3.7974,-3.7974,-3.7974,-3.7974,-3.7974,0.0,0.0,0.0,0.0,0.0,0.0,0.0,0.0,0.0,0.0,0.0,0.0,0.0,0.0,0.0,0.0,0.0,0.0,0.0,0.0,0.0,-1.351,-1.4043,-1.4425,-1.467,-1.6541,-1.7664,-1.7931,-1.9737,-2.0725,-2.1043,-2.1235,-2.0754,-1.972,-1.9504,-1.9607,-1.9927,-2.0273,-2.0507,-2.0674,0.0,0.0,0.0,0.0,0.0,0.0,0.0,0.0,0.0,0.0,-2.99,-3.048,-3.2803,0.0,0.0,0.0,0.0,0.0,-3.4603,-3.4893,-3.4922,-3.4922,-3.5183,-3.5357,-3.5009,0.0,0.0,0.0,0.0,0.0,0.0,0.0,0.0,0.0,0.0,0.0,0.0,0.0,0.0,0.0,0.0,0.0,0.0,0.0,0.0,0.0,0.0,0.0,0.0,0.0,0.0,0.0,0.0,0.0,-4.6807,-4.7114,-4.694,-4.633,-4.6011,-4.564,-4.5155,-4.4284,-4.2951,0.0,0.0,-3.9494,-3.8368,-3.8238,-3.8185,-3.8185,-3.8027,-3.7974,-3.7974,-3.7974,-3.7974,-3.7974,0.0,0.0,0.0,0.0,0.0,0.0,0.0,0.0,0.0,0.0,0.0,0.0,0.0,0.0,0.0,0.0,0.0,0.0,0.0,0.0,-1.2939,-1.4165,-1.47,-1.5028,-1.5236,-1.7333,-1.8565,-1.8842,-2.0151,-2.1019,-2.1404,-2.1,-2.0273,-1.9384,-1.9793,-2.0061,-2.0205,-2.0725,-2.0981,-2.1067,0.0,0.0,0.0,0.0,0.0,0.0,0.0,0.0,0.0,0.0,0.0,0.0,0.0,0.0,0.0,-3.4254,-3.4312,-3.4254,-3.4545,-3.5096,-3.5625,-3.5625,0.0,0.0,0.0,0.0,0.0,0.0,0.0,0.0,0.0,0.0,0.0,0.0,0.0,0.0,0.0,0.0,0.0,0.0,0.0,0.0,0.0,0.0,0.0,0.0,0.0,0.0,0.0,0.0,0.0,0.0,0.0,0.0,-4.6621,-4.6621,-4.6359,-4.5895,-4.5895,-4.5776,-4.5475,-4.4097,-4.2759,-4.1465,-4.0135,-3.8948,-3.7974,-3.7974,-3.7974,-3.7974,-3.7974,-3.7974,-3.7974,-3.7974,-3.7974,-3.7974,0.0,0.0,0.0,0.0,0.0,0.0,0.0,0.0,0.0,0.0,0.0,0.0,0.0,0.0,0.0,0.0,0.0,0.0,0.0,0.0,-1.3376,-1.373,-1.5171,-1.654,-1.7722,-1.8482,-1.9399,-2.0433,-2.1038,-2.1356,-2.1404,-2.1356,-2.1043,-2.049,-2.0538,-2.0827,-2.1284,-2.1332,-2.151,-2.1771,-2.2346,0.0,0.0,0.0,0.0,0.0,0.0,0.0,0.0,0.0,0.0,0.0,0.0,0.0,-3.4341,-3.4399,-3.3993,-3.3823,-3.5014,-3.5764,-3.6257,-3.6257,-3.6286,0.0,-3.7738,-3.797,0.0,-3.9567,0.0,0.0,0.0,0.0,0.0,0.0,0.0,0.0,0.0,0.0,0.0,0.0,0.0,0.0,0.0,0.0,0.0,0.0,0.0,0.0,0.0,0.0,0.0,0.0,0.0,0.0,-4.5982,-4.5953,-4.5924,-4.5895,-4.5895,-4.5384,-4.4359,-4.2786,-4.1465,-4.0414,-3.8844,-3.808,-3.7974,-3.7974,-3.7974,-3.7974,-3.7974,-3.7974,-3.7974,-3.7974,-3.7974,-3.7974,0.0,0.0,0.0,0.0,0.0,0.0,0.0,0.0,0.0,0.0,0.0,0.0,0.0,0.0,0.0,0.0,0.0,0.0,0.0,-1.3285,-1.3816,-1.4649,-1.5735,-1.6983,-1.8521,-1.9459,-2.0332,-2.1115,-2.1308,-2.1235,-2.0923,-2.0923,-2.0774,-2.0605,-2.0971,-2.1211,-2.1428,-2.1765,-2.2007,-2.2189,-2.2561,-2.331,0.0,0.0,0.0,0.0,0.0,0.0,0.0,0.0,-3.1061,-3.2367,-3.3645,-3.4225,-3.4399,-3.4399,-3.4254,-3.4167,-3.4632,-3.5822,-3.6722,-3.5938,-3.6606,0.0,0.0,-3.8522,-3.9073,-3.9915,-4.1047,0.0,0.0,0.0,0.0,0.0,0.0,0.0,0.0,0.0,0.0,0.0,0.0,0.0,0.0,0.0,0.0,0.0,0.0,0.0,0.0,0.0,0.0,0.0,0.0,0.0,0.0,-4.5895,-4.5895,-4.5895,-4.5895,-4.5338,-4.4266,-4.2614,-4.1366,-4.0313,-3.8687,-3.7974,-3.7974,-3.7974,-3.7974,-3.7974,-3.7974,-3.7974,-3.7974,-3.7974,-3.7974,-3.7974,0.0,0.0,0.0,0.0,0.0,0.0,0.0,0.0,0.0,0.0,0.0,0.0,0.0,0.0,0.0,0.0,0.0,0.0,-1.3799,-1.3974,-1.4586,-1.5773,-1.6391,-1.7364,-1.8884,-1.9847,-2.061,-2.1163,-2.1332,-2.1139,-2.0605,-2.0947,-2.1019,-2.0899,-2.1428,-2.174,-2.1909,-2.2125,-2.2712,-2.3504,-2.309,-2.4269,0.0,0.0,0.0,0.0,0.0,0.0,0.0,0.0,-3.1903,-3.3006,-3.408,-3.4399,-3.4399,-3.4399,-3.4283,-3.4109,-3.4109,-3.5386,-3.6431,-3.5328,0.0,0.0,-3.9305,-3.9799,-4.0583,-4.2179,-4.3253,0.0,0.0,0.0,0.0,0.0,0.0,0.0,0.0,0.0,0.0,0.0,0.0,0.0,0.0,0.0,0.0,0.0,0.0,0.0,0.0,0.0,0.0,0.0,0.0,0.0,0.0,-4.5895,-4.5895,-4.5866,-4.5475,-4.5035,-4.4591,-4.2689,-4.1416,-4.0667,-3.8792,-3.7974,-3.7974,-3.7974,-3.7974,-3.7974,-3.7974,-3.7974,-3.7974,-3.7974,-3.7974,-3.7974,0.0,0.0,0.0,0.0,0.0,0.0,0.0,0.0,0.0,0.0,0.0,0.0,0.0,0.0,0.0,0.0,0.0,0.0,-1.4968,-1.5182,-1.5801,-1.694,-1.7185,-1.7817,-1.8884,-1.9491,-2.0057,-2.0581,-2.1139,-2.1139,-2.0629,-2.1692,-2.1909,-2.1428,-2.1981,-2.2486,-2.2975,-2.2469,-2.3695,-2.5881,-2.4208,-2.5892,-2.9202,0.0,0.0,0.0,0.0,0.0,0.0,0.0,-3.2948,-3.362,-3.4225,-3.4399,-3.4399,-3.4399,-3.3964,-3.3503,-3.3503,-3.4433,-3.5247,0.0,0.0,0.0,-4.1657,-4.2121,-4.3195,-4.6998,0.0,0.0,0.0,0.0,0.0,0.0,0.0,0.0,0.0,0.0,0.0,0.0,0.0,0.0,0.0,0.0,0.0,0.0,0.0,0.0,0.0,0.0,0.0,0.0,0.0,0.0,0.0,-4.5895,-4.5895,-4.5895,-4.4545,-4.4424,-4.5413,-4.2765,-4.1591,-4.1442,-3.9052,-3.7974,-3.7974,-3.7974,-3.7974,-3.7974,-3.7974,-3.7974,-3.7974,-3.7974,-3.7974,-3.7974,0.0,0.0,0.0,0.0,0.0,0.0,0.0,0.0,0.0,0.0,0.0,0.0,0.0,0.0,0.0,0.0,0.0,0.0,-1.558,-1.6106,-1.6571,-1.7029,-1.7584,-1.8213,-1.8949,-1.9521,-2.0057,-2.0581,-2.1139,-2.1332,-2.1187,-2.1861,-2.2101,-2.2005,-2.2927,-2.3216,-2.3055,-2.3737,-2.4789,-2.5997,-2.6013,-2.7664,-2.9991,0.0,0.0,0.0,0.0,0.0,0.0,0.0,0.0,0.0,-3.4341,-3.4399,-3.4399,-3.4399,-3.4283,-3.4225,-3.4724,-3.5421,0.0,-3.6373,0.0,0.0,0.0,-4.2731,0.0,0.0,0.0,0.0,0.0,0.0,0.0,0.0,0.0,0.0,0.0,0.0,0.0,0.0,0.0,0.0,0.0,0.0,0.0,0.0,0.0,0.0,0.0,0.0,0.0,0.0,0.0,0.0,0.0,0.0,-4.5805,-4.5595,-4.5018,-4.4219,-4.3245,-4.1317,-4.0033,-3.9312,-3.8396,-3.7974,-3.7974,-3.7974,-3.7974,-3.7974,-3.7974,-3.7974,-3.7974,-3.7974,-3.7974,-3.7974,0.0,0.0,0.0,0.0,0.0,0.0,0.0,0.0,0.0,0.0,-1.2588,-1.3043,0.0,0.0,0.0,0.0,0.0,0.0,0.0,-1.729,-1.7784,-1.8166,-1.8764,-1.9266,-1.9648,-2.0153,-2.0586,-2.0923,-2.1235,-2.1404,-2.1428,-2.2173,-2.251,-2.2566,-2.3433,-2.3842,-2.3972,-2.478,-2.6103,-2.7635,-2.7829,-2.9455,-3.1688,0.0,0.0,0.0,0.0,0.0,0.0,0.0,0.0,0.0,-3.4399,-3.4399,-3.437,-3.4109,-3.4022,-3.408,-3.4196,-3.5241,0.0,-3.6809,-3.8638,-4.096,-4.3224,0.0,0.0,0.0,0.0,0.0,0.0,0.0,0.0,0.0,0.0,0.0,0.0,0.0,0.0,0.0,0.0,0.0,0.0,0.0,0.0,0.0,0.0,0.0,0.0,0.0,0.0,0.0,0.0,0.0,0.0,0.0,0.0,-4.5504,-4.4294,-4.315,-4.2035,-4.0993,-3.9905,-3.8868,-3.8238,-3.7974,-3.7974,-3.7974,-3.7974,-3.7974,-3.7974,-3.7974,-3.7974,-3.7974,-3.7974,-3.7974,0.0,0.0,0.0,0.0,0.0,0.0,0.0,0.0,0.0,0.0,-1.2987,-1.3741,0.0,0.0,0.0,0.0,0.0,0.0,0.0,0.0,-1.9188,-1.9741,-2.0322,-2.0581,-2.0581,-2.1139,-2.1428,-2.1476,-2.1476,-2.1476,-2.15,-2.2558,-2.3079,-2.3119,-2.3755,-2.4585,-2.5522,-2.587,-2.7662,-3.0171,-2.9629,-3.1218,-3.3734,-3.2263,0.0,0.0,0.0,0.0,0.0,0.0,0.0,0.0,-3.4399,-3.4399,-3.4283,-3.3765,-3.359,-3.3474,-3.2977,0.0,0.0,-3.6664,-3.9625,0.0,0.0,0.0,0.0,0.0,0.0,0.0,0.0,0.0,0.0,0.0,0.0,0.0,0.0,0.0,0.0,0.0,0.0,0.0,0.0,0.0,0.0,0.0,0.0,0.0,0.0,0.0,0.0,0.0,0.0,0.0,0.0,0.0,0.0,0.0,-4.2909,-4.164,-4.1392,-4.1069,-4.0363,-3.9415,-3.8449,-3.7974,-3.7974,-3.7974,-3.7974,-3.7974,-3.7974,-3.7974,-3.7974,-3.7974,-3.7974,-3.7974,0.0,0.0,0.0,0.0,0.0,0.0,0.0,0.0,0.0,0.0,0.0,0.0,0.0,0.0,0.0,0.0,0.0,0.0,0.0,0.0,-1.9515,-1.9626,-2.0265,-2.0581,-2.0581,-2.1139,-2.162,-2.2029,-2.2029,-2.2029,-2.2053,-2.3144,-2.3676,-2.3848,-2.5071,-2.6173,-2.7154,-2.8066,-2.9451,-3.1108,-3.1516,-3.2476,-3.3646,-3.3459,-3.3693,0.0,0.0,0.0,0.0,0.0,0.0,0.0,-3.4399,-3.4399,-3.437,-3.4254,-3.4225,-3.4399,0.0,-3.588,0.0,0.0,-4.2586,-4.543,0.0,0.0,0.0,0.0,0.0,0.0,0.0,0.0,0.0,0.0,0.0,0.0,0.0,0.0,0.0,0.0,0.0,0.0,0.0,0.0,0.0,0.0,0.0,0.0,0.0,0.0,0.0,0.0,0.0,0.0,-4.5895,-4.564,-4.4943,0.0,-4.3197,-4.1887,-4.0007,-3.9104,-3.853,-3.8344,-3.808,-3.7974,-3.7974,-3.7974,-3.7974,-3.7974,-3.7974,-3.7974,-3.7974,-3.7974,-3.7974,-3.7974,0.0,0.0,0.0,0.0,0.0,0.0,0.0,0.0,0.0,0.0,0.0,0.0,0.0,0.0,0.0,0.0,0.0,0.0,0.0,0.0,-2.0567,-2.0835,-2.1182,-2.138,-2.138,-2.1885,-2.2294,-2.2558,-2.2855,-2.2975,-2.2999,-2.3863,-2.4466,-2.4815,-2.5802,-2.7037,-2.8402,-2.9005,-3.0202,-3.1755,-3.2646,-3.3218,-3.3605,-3.3813,-3.3951,-3.4054,0.0,0.0,0.0,0.0,0.0,0.0,0.0,0.0,-3.4341,-3.4051,-3.4399,0.0,0.0,0.0,0.0,-4.1686,0.0,0.0,0.0,0.0,0.0,0.0,0.0,0.0,0.0,0.0,0.0,0.0,0.0,0.0,0.0,0.0,0.0,0.0,0.0,0.0,0.0,0.0,0.0,0.0,0.0,0.0,0.0,0.0,0.0,0.0,0.0,0.0,-4.5685,-4.4833,-4.3939,-4.2948,-4.1705,-4.0179,-3.8423,-3.8117,-3.7974,-3.7974,-3.7974,-3.7974,-3.7974,-3.7974,-3.7974,-3.7974,-3.7974,-3.7974,-3.7974,-3.7974,-3.7974,-3.7974,0.0,0.0,0.0,0.0,0.0,0.0,0.0,0.0,0.0,0.0,0.0,0.0,0.0,0.0,0.0,0.0,0.0,0.0,0.0,0.0,0.0,-2.2173,-2.227,-2.2459,-2.2681,-2.3063,-2.349,-2.3953,-2.4155,-2.4375,-2.4581,-2.4821,-2.5297,-2.5975,-2.6502,-2.7739,-2.9424,-2.9566,-3.0592,-3.2253,-3.3171,-3.3536,-3.357,-3.3779,0.0,0.0,0.0,0.0,0.0,0.0,0.0,0.0,0.0,0.0,-3.4312,-3.3823,0.0,0.0,0.0,0.0,-4.0205,-4.3108,-4.5169,0.0,0.0,0.0,0.0,0.0,0.0,0.0,0.0,0.0,0.0,0.0,0.0,0.0,0.0,0.0,0.0,0.0,0.0,0.0,0.0,0.0,0.0,0.0,0.0,0.0,0.0,0.0,0.0,0.0,0.0,-4.5446,-4.536,-4.3845,-4.2712,-4.1922,-3.9563,-3.7908,-3.7084,-3.7517,-3.7757,-3.7829,-3.7757,-3.7709,-3.7709,-3.7805,-3.7853,-3.7853,-3.795,-3.7974,-3.7974,-3.7974,-3.7974,-3.7974,0.0,0.0,0.0,0.0,0.0,0.0,0.0,0.0,0.0,0.0,-1.7193,-1.7417,0.0,0.0,0.0,0.0,0.0,0.0,0.0,0.0,0.0,-2.2173,-2.263,-2.3416,-2.4595,-2.4392,-2.5466,-2.7762,-2.6697,-2.6714,-2.7764,-2.6214,-2.6174,-2.7431,-2.7866,-2.8885,-3.0327,-3.0774,-3.1486,-3.2429,-3.3066,-3.3361,-3.3361,-3.357,0.0,0.0,0.0,0.0,0.0,0.0,0.0,0.0,0.0,0.0,0.0,0.0,0.0,0.0,0.0,0.0,-4.1221,0.0,0.0,0.0,0.0,0.0,0.0,0.0,0.0,0.0,0.0,0.0,0.0,0.0,0.0,0.0,0.0,0.0,0.0,0.0,0.0,0.0,0.0,0.0,0.0,0.0,0.0,0.0,0.0,0.0,-4.5895,-4.5895,-4.564,0.0,-4.4742,-4.325,-4.1754,-4.0245,-3.7867,-3.6659,-3.6507,-3.6579,-3.6867,-3.7276,-3.6819,-3.6627,-3.6651,-3.7108,-3.73,-3.7348,-3.7805,-3.7974,-3.7974,-3.7974,-3.7974,-3.7974,0.0,0.0,0.0,0.0,0.0,0.0,0.0,0.0,0.0,0.0,0.0,-1.846,0.0,0.0,0.0,0.0,0.0,0.0,0.0,0.0,0.0,-2.3214,-2.4104,-2.5071,-2.5987,-2.6475,-2.7302,-2.8505,-2.8239,-2.8386,-2.9013,-2.8524,-2.8239,-2.8171,-2.8738,-2.9765,-3.1073,-3.1199,-3.1881,-3.2932,-3.3178,-3.3136,-3.2958,0.0,0.0,0.0,0.0,0.0,0.0,0.0,0.0,0.0,0.0,0.0,0.0,0.0,0.0,0.0,-3.7564,-3.9189,-4.0844,0.0,0.0,0.0,0.0,0.0,0.0,0.0,0.0,0.0,0.0,0.0,0.0,0.0,0.0,0.0,0.0,0.0,0.0,0.0,0.0,0.0,0.0,0.0,0.0,0.0,0.0,0.0,0.0,-4.5895,-4.5895,-4.5895,-4.5158,0.0,-4.4375,-4.1991,-3.9669,-3.7487,-3.6136,-3.5689,-3.5954,-3.5665,-3.5978,-3.6747,-3.6507,-3.6411,-3.6411,-3.6651,-3.6916,-3.7204,-3.7445,-3.7733,-3.7974,-3.7974,-3.7974,-3.7974,0.0,0.0,0.0,0.0,0.0,0.0,0.0,0.0,0.0,0.0,0.0,0.0,0.0,0.0,0.0,0.0,0.0,0.0,0.0,0.0,0.0,-2.4453,-2.5512,-2.6622,-2.7721,-2.8528,-2.9178,-2.9717,-2.9767,-2.9851,-3.0019,-3.0458,-3.0068,-2.9022,-2.9717,-3.0643,-3.1719,-3.1599,-3.2173,-3.3101,-3.3101,0.0,0.0,0.0,0.0,0.0,0.0,0.0,0.0,0.0,0.0,0.0,0.0,0.0,0.0,0.0,0.0,0.0,0.0,0.0,0.0,0.0,0.0,0.0,0.0,0.0,0.0,0.0,0.0,0.0,0.0,0.0,0.0,0.0,0.0,0.0,0.0,0.0,0.0,0.0,0.0,0.0,0.0,0.0,0.0,0.0,0.0,0.0,-4.5634,-4.5634,-4.5547,-4.5312,-4.4419,-4.3718,-4.3279,-4.0234,-3.7579,-3.54,-3.4967,-3.504,-3.54,-3.4967,-3.5256,-3.6002,-3.6002,-3.6002,-3.6002,-3.6146,-3.6435,-3.6819,-3.694,-3.7324,-3.7781,-3.7781,-3.7853,-3.7974,0.0,0.0,0.0,0.0,0.0,0.0,0.0,0.0,0.0,0.0,0.0,0.0,0.0,-2.1054,-2.1619,-2.2142,0.0,0.0,0.0,0.0,0.0,-2.5761,-2.6332,0.0,-3.0256,-3.0104,-3.1012,-3.3052,-3.176,-3.122,-3.141,-3.1438,-3.1068,-3.0451,-3.1129,-3.1747,-3.237,0.0,0.0,-3.2455,0.0,0.0,0.0,0.0,0.0,0.0,0.0,0.0,0.0,0.0,0.0,0.0,0.0,0.0,0.0,0.0,0.0,0.0,0.0,0.0,0.0,0.0,0.0,0.0,0.0,0.0,0.0,0.0,0.0,0.0,0.0,0.0,0.0,0.0,0.0,0.0,0.0,0.0,0.0,0.0,0.0,0.0,0.0,0.0,0.0,0.0,0.0,0.0,-4.4966,-4.4937,-4.4559,-4.3733,-4.3486,-4.2483,-4.0728,-3.7857,-3.5932,-3.4823,-3.4799,-3.4799,-3.4823,-3.4799,-3.4799,-3.4847,-3.4847,-3.4847,-3.4895,-3.5449,-3.5665,-3.5737,-3.6242,-3.6771,-3.7228,-3.7228,-3.7541,-3.7974,0.0,0.0,0.0,0.0,0.0,0.0,0.0,0.0,0.0,0.0,0.0,0.0,0.0,-2.2452,-2.2982,-2.3939,-2.5066,0.0,0.0,0.0,0.0,-2.8249,-2.8843,-2.9766,-3.1116,-3.1034,-3.1647,-3.2907,-3.1988,-3.1764,-3.2291,-3.2364,-3.2348,-3.228,-3.2145,-3.2202,-3.2426,-3.282,0.0,0.0,0.0,0.0,0.0,0.0,0.0,0.0,0.0,0.0,0.0,0.0,0.0,0.0,0.0,0.0,0.0,0.0,0.0,0.0,0.0,0.0,0.0,0.0,0.0,0.0,0.0,0.0,0.0,0.0,0.0,0.0,0.0,0.0,0.0,0.0,0.0,0.0,0.0,0.0,0.0,0.0,0.0,0.0,0.0,0.0,0.0,0.0,0.0,0.0,-4.4908,-4.437,-4.3673,-4.2709,-4.1915,-4.0314,-3.7852,-3.6785,-3.581,-3.4775,-3.4775,-3.4775,-3.4775,-3.4775,-3.4775,-3.4775,-3.4775,-3.4775,-3.4799,-3.504,-3.5304,-3.5641,-3.5833,-3.6435,-3.7156,-3.6819,-3.7228,-3.7926,0.0,0.0,0.0,0.0,0.0,0.0,0.0,0.0,0.0,0.0,0.0,0.0,0.0,0.0,-2.4945,-2.5959,-2.6925,-2.746,-2.7452,-2.8234,-2.9007,-2.9739,-3.0371,-3.11,-3.1952,-3.198,-3.2212,-3.2771,-3.1886,-3.1801,-3.2459,-3.2563,-3.2805,-3.319,-3.319,-3.3303,0.0,0.0,0.0,-3.4023,0.0,0.0,-3.3155,0.0,0.0,0.0,0.0,0.0,0.0,0.0,0.0,0.0,0.0,0.0,0.0,0.0,0.0,0.0,0.0,0.0,0.0,0.0,0.0,0.0,0.0,0.0,0.0,0.0,0.0,0.0,0.0,0.0,0.0,0.0,0.0,0.0,0.0,0.0,0.0,0.0,0.0,0.0,0.0,0.0,0.0,0.0,0.0,0.0,-4.4269,-4.3618,-4.2665,-4.138,-3.9861,-3.8181,-3.6332,-3.5953,-3.5475,-3.4775,-3.4775,-3.4775,-3.4775,-3.4775,-3.4775,-3.4775,-3.4775,-3.4775,-3.4775,-3.4775,-3.504,-3.5352,-3.5352,-3.5881,-3.6627,-3.6266,-3.6699,-3.7397,0.0,0.0,0.0,0.0,0.0,0.0,0.0,0.0,0.0,-2.4965,0.0,0.0,0.0,0.0,0.0,-2.8168,-2.8254,-2.8254,-2.8283,-2.8311,-2.8883,-3.014,0.0,0.0,-3.2882,-3.2882,-3.2882,-3.2911,-3.165,-3.1397,-3.2058,-3.2058,-3.2401,-3.3025,-3.4317,-3.5125,-3.5484,0.0,-3.4727,-3.5427,0.0,-3.3719,-3.4197,0.0,0.0,0.0,-3.3964,-3.3831,0.0,0.0,0.0,0.0,0.0,0.0,0.0,0.0,0.0,0.0,0.0,0.0,0.0,0.0,0.0,0.0,0.0,0.0,0.0,0.0,0.0,0.0,0.0,0.0,0.0,0.0,0.0,0.0,0.0,0.0,0.0,0.0,0.0,0.0,0.0,0.0,0.0,0.0,0.0,-4.3689,-4.2979,-4.2695,-4.1609,-3.9574,-3.7356,-3.6285,-3.6285,-3.5307,-3.4775,-3.4775,-3.4775,-3.4775,-3.4775,-3.4775,-3.4775,-3.4775,-3.4775,-3.4775,-3.4775,-3.4775,-3.4775,-3.4775,-3.4775,-3.516,-3.5617,-3.5593,-3.593,-3.6411,0.0,0.0,0.0,0.0,0.0,0.0,0.0,0.0,0.0,0.0,0.0,0.0,-2.7755,-2.8299,-2.8735,-2.9029,-2.9461,-2.9919,-3.0409,-3.0838,-3.1378,-3.2111,-3.2311,-3.2568,-3.2911,-3.2454,-3.252,-3.3111,-3.2306,-3.2479,-3.3542,-3.3677,-3.3955,-3.4346,-3.5777,-3.6437,-3.6515,-3.5182,0.0,0.0,-3.4965,-3.4654,0.0,0.0,0.0,0.0,0.0,-3.3782,0.0,0.0,-3.3952,-3.4143,0.0,0.0,0.0,0.0,0.0,0.0,-3.7295,0.0,0.0,0.0,0.0,0.0,0.0,0.0,0.0,0.0,0.0,0.0,0.0,0.0,0.0,0.0,0.0,0.0,0.0,0.0,0.0,0.0,0.0,0.0,0.0,0.0,0.0,0.0,0.0,-4.2911,-4.2022,-3.9806,-3.8155,-3.7243,-3.5881,-3.5187,-3.5187,-3.492,-3.4775,-3.4775,-3.4775,-3.4775,-3.4775,-3.4775,-3.4775,-3.4775,-3.4775,-3.4775,-3.4775,-3.4775,-3.4775,-3.4775,-3.4775,-3.516,-3.5569,-3.5135,-3.5617,-3.6411,0.0,0.0,0.0,0.0,0.0,0.0,0.0,0.0,0.0,0.0,0.0,0.0,-2.9832,-3.0004,-3.0237,-3.0648,-3.0764,-3.1081,-3.1746,-3.215,-3.2461,-3.2709,-3.3,-3.3144,-3.3144,-3.2799,-3.2865,-3.3339,-3.2963,-3.3165,-3.3854,-3.4511,-3.4906,-3.5136,0.0,0.0,0.0,0.0,0.0,0.0,-3.675,0.0,0.0,-3.6086,-3.5695,0.0,0.0,0.0,-3.5058,-3.4574,-3.4647,0.0,0.0,0.0,0.0,0.0,0.0,0.0,0.0,0.0,0.0,0.0,0.0,0.0,0.0,-3.8405,0.0,0.0,0.0,0.0,0.0,0.0,0.0,0.0,0.0,0.0,0.0,0.0,0.0,0.0,0.0,0.0,0.0,0.0,0.0,0.0,-4.2847,-4.2122,-4.0948,-3.8764,-3.7191,-3.6307,-3.5331,-3.4679,-3.4462,-3.4679,-3.4679,-3.4462,-3.4679,-3.4775,-3.4775,-3.4775,-3.4775,-3.4775,-3.4775,-3.4775,-3.4775,-3.4775,-3.4775,-3.4775,-3.4775,-3.4967,-3.5256,-3.4944,-3.5208,-3.5737,0.0,0.0,0.0,0.0,0.0,0.0,0.0,0.0,0.0,0.0,-3.0315,-3.0867,-3.2205,-3.1769,-3.1714,-3.2452,-3.1959,-3.1843,-3.2452,-3.2568,-3.2629,-3.2629,-3.3238,-3.362,-3.362,-3.362,-3.362,-3.362,-3.362,-3.3649,-3.3736,-3.5014,-3.5654,-3.577,0.0,0.0,0.0,0.0,0.0,-3.8919,-3.8724,-3.8674,0.0,0.0,-3.7768,0.0,-3.7071,-3.7101,-3.7148,-3.5741,-3.5561,0.0,0.0,0.0,0.0,0.0,-3.5425,0.0,0.0,0.0,0.0,0.0,0.0,0.0,-3.7034,-3.7324,-3.7418,0.0,0.0,0.0,0.0,0.0,0.0,0.0,0.0,0.0,0.0,0.0,0.0,0.0,0.0,0.0,0.0,0.0,0.0,-4.2005,-4.1852,-4.1197,-3.9754,-3.8756,-3.758,-3.6166,-3.5186,-3.4462,-3.4006,-3.4462,-3.4462,-3.4006,-3.4534,-3.4775,-3.4775,-3.4775,-3.4775,-3.4775,-3.4775,-3.4775,-3.4775,-3.4775,-3.4775,-3.4775,-3.4775,-3.4775,-3.4775,-3.4775,-3.4775,-3.4799,0.0,0.0,0.0,0.0,0.0,0.0,0.0,0.0,0.0,-3.1081,-3.1722,-3.2127,-3.242,-3.2333,-3.2304,-3.2481,-3.2365,-3.2336,-3.2481,-3.3006,-3.33,-3.33,-3.3906,-3.4225,-3.4225,-3.4225,-3.4225,-3.4225,-3.4225,-3.4486,-3.5043,-3.6315,-3.7186,-3.7709,0.0,0.0,0.0,0.0,0.0,-3.9112,-3.8919,0.0,-3.9739,-3.8947,-3.8438,-3.8089,-3.7945,-3.789,-3.7672,0.0,-3.6017,-3.5775,0.0,0.0,0.0,0.0,0.0,0.0,0.0,0.0,0.0,0.0,0.0,0.0,-3.7292,-3.7568,-3.8173,0.0,0.0,0.0,0.0,0.0,0.0,0.0,0.0,0.0,0.0,0.0,0.0,0.0,0.0,0.0,0.0,0.0,-4.1889,-4.1337,-4.0402,-3.9431,-3.8487,-3.754,-3.6449,-3.5163,-3.4462,-3.4102,-3.3982,-3.4102,-3.4102,-3.4006,-3.4534,-3.4775,-3.4775,-3.4775,-3.4775,-3.4775,-3.4775,-3.4775,-3.4775,-3.4775,-3.4775,-3.4775,-3.4775,-3.4775,-3.4775,-3.4775,-3.4775,-3.4895,0.0,0.0,0.0,0.0,0.0,0.0,0.0,0.0,0.0,-3.1959,-3.26,-3.3122,-3.3409,-3.318,0.0,0.0,0.0,0.0,0.0,-3.4084,-3.4317,-3.3964,-3.4864,-3.5357,-3.5357,-3.5677,-3.5706,-3.5357,-3.5996,-3.5996,-3.545,-3.7331,-3.7883,-3.7331,-3.9247,0.0,0.0,0.0,-4.1395,-4.1105,-4.1024,0.0,-4.0089,-4.0,-4.0068,-4.006,-3.9392,-3.8919,-3.8457,-3.7481,-3.7443,0.0,0.0,-3.5492,-3.5824,0.0,-3.4754,-3.4298,0.0,0.0,0.0,-3.5339,0.0,0.0,0.0,-3.6259,-3.6433,0.0,0.0,0.0,0.0,0.0,0.0,0.0,0.0,0.0,0.0,0.0,0.0,0.0,0.0,0.0,0.0,0.0,-4.0108,-4.0029,-3.9263,-3.8543,-3.794,-3.6878,-3.5952,-3.5131,-3.417,-3.3669,-3.3669,-3.3669,-3.3669,-3.3669,-3.415,-3.4534,-3.4775,-3.4775,-3.4775,-3.4775,-3.4775,-3.4775,-3.4775,-3.4775,-3.4775,-3.4775,-3.4775,-3.4775,-3.4775,-3.4775,-3.4775,-3.4847,0.0,0.0,0.0,0.0,0.0,0.0,0.0,0.0,-3.2669,-3.2687,-3.3602,-3.4339,-3.4578,0.0,0.0,0.0,0.0,0.0,0.0,0.0,-3.5218,-3.4806,-3.588,-3.6431,-3.6315,-3.707,-3.7215,-3.6664,-3.7709,-3.7476,-3.6177,-3.8347,-3.8609,-3.7302,0.0,0.0,0.0,0.0,0.0,-4.2644,0.0,-4.2121,-4.0902,-4.1308,-4.1802,-4.2121,-4.0902,-4.0176,-3.9615,-3.864,0.0,-3.9262,-3.6597,-3.6433,0.0,0.0,0.0,0.0,0.0,0.0,0.0,0.0,0.0,-3.5453,0.0,0.0,0.0,-3.6301,0.0,0.0,0.0,0.0,0.0,0.0,0.0,0.0,0.0,0.0,0.0,0.0,0.0,0.0,0.0,0.0,-3.8419,-3.8285,-3.8137,-3.7731,-3.7003,-3.6041,-3.534,-3.503,-3.3798,-3.314,-3.314,-3.314,-3.3188,-3.3308,-3.3789,-3.427,-3.4775,-3.4775,-3.4775,-3.4775,-3.4775,-3.4775,-3.4775,-3.4775,-3.4775,-3.4775,-3.4775,-3.4775,-3.4775,-3.4775,-3.4775,-3.4799,-3.4266,-3.4172,0.0,0.0,0.0,0.0,0.0,0.0,0.0,-3.3394,-3.5473,0.0,0.0,0.0,0.0,0.0,0.0,0.0,-3.8463,0.0,0.0,-3.6083,-3.6809,-3.6925,-3.6315,-3.7476,-3.8057,-3.7999,-3.8144,-3.8405,-3.8783,-3.9596,-4.0205,0.0,-3.9683,0.0,0.0,0.0,-4.0641,0.0,-4.2528,-4.3224,0.0,-4.2963,-4.2818,-4.2789,-4.2121,-4.1831,-4.157,0.0,-3.9607,-3.935,0.0,-3.7548,0.0,0.0,0.0,0.0,0.0,0.0,0.0,0.0,-3.8449,0.0,0.0,0.0,-3.8778,-3.8388,0.0,0.0,0.0,0.0,0.0,0.0,0.0,0.0,0.0,0.0,0.0,0.0,0.0,0.0,0.0,0.0,0.0,-3.6234,-3.6743,-3.6315,-3.4423,-3.4211,-3.3936,-3.3542,-3.2921,-3.2587,-3.2587,-3.2587,-3.2827,-3.3308,-3.3789,-3.427,-3.4775,-3.4775,-3.4775,-3.4775,-3.4775,-3.4775,-3.4775,-3.4775,-3.4775,-3.4775,-3.4775,-3.4775,-3.4775,-3.4775,-3.4775,-3.4895,-3.5299,-3.4997,0.0,0.0,0.0,0.0,0.0,0.0,0.0,-3.6926,-3.7244,0.0,0.0,0.0,0.0,0.0,0.0,-3.6257,0.0,0.0,0.0,-3.6867,-3.7854,-3.8289,-3.7999,-3.9247,-3.9509,-3.8783,-3.9509,-3.9654,-3.9218,-4.0205,-4.0612,-4.0495,-3.9973,0.0,-4.0786,0.0,0.0,0.0,0.0,0.0,0.0,-4.2847,-4.2469,-4.244,-4.2179,-4.2092,-4.1889,0.0,-4.0631,0.0,0.0,0.0,0.0,0.0,0.0,0.0,0.0,0.0,0.0,0.0,0.0,0.0,0.0,0.0,-3.676,0.0,0.0,0.0,0.0,0.0,0.0,0.0,0.0,0.0,0.0,0.0,0.0,0.0,0.0,0.0,0.0,0.0,0.0,0.0,0.0,-3.4909,-3.3374,-3.2564,-3.2302,-3.2635,-3.1957,-3.1697,-3.201,-3.2054,-3.2442,-3.3284,-3.3501,-3.403,-3.4775,-3.4775,-3.4775,-3.4775,-3.4775,-3.4775,-3.4775,-3.4775,-3.4775,-3.4775,-3.4775,-3.4775,-3.4775,-3.4775,-3.4775,-3.4799,-3.7364,0.0,0.0,0.0,0.0,0.0,0.0,0.0,0.0,0.0,0.0,0.0,-3.9593,-3.9473,0.0,0.0,0.0,-3.8552,0.0,0.0,-3.8201,0.0,0.0,0.0,0.0,-4.0525,-4.0931,-4.0002,-4.0728,-4.0815,-4.0263,-4.1018,-4.1308,-4.1134,0.0,-4.0437,-4.0525,0.0,0.0,-4.1976,-4.305,-4.3573,-4.3602,-4.2702,-4.2237,-4.2092,-4.2092,-4.2092,-4.1947,-4.0989,-4.1447,0.0,-3.9923,0.0,0.0,0.0,0.0,0.0,-3.7962,0.0,0.0,0.0,0.0,0.0,0.0,0.0,0.0,0.0,0.0,0.0,0.0,0.0,0.0,0.0,0.0,0.0,0.0,0.0,0.0,0.0,0.0,0.0,0.0,0.0,0.0,0.0,-3.3752,0.0,-3.1909,-3.0959,-3.0907,-3.1787,-3.1241,-3.1163,-3.1693,-3.1717,-3.2247,-3.3284,-3.314,-3.3693,-3.4823,-3.4631,-3.4655,-3.4775,-3.4775,-3.4775,-3.4775,-3.4775,-3.4775,-3.4775,-3.4775,-3.4775,-3.4775,-3.4775,-3.4775,-3.4775,-4.1259,-4.0321,0.0,0.0,0.0,0.0,0.0,0.0,0.0,0.0,0.0,0.0,0.0,0.0,0.0,0.0,0.0,-4.3536,-4.3208,0.0,-4.0464,0.0,0.0,-4.1424,0.0,0.0,-4.2034,-4.2005,-4.1395,-4.1715,-4.2847,-4.2324,-4.2702,-4.3776,-4.1889,-4.2092,-4.3718,-4.1889,-4.2179,-4.3805,-4.2615,-4.2498,-4.3021,0.0,-4.2615,-4.2092,-4.2092,0.0,0.0,-4.2063,-4.191,0.0,0.0,0.0,0.0,0.0,0.0,0.0,0.0,0.0,0.0,0.0,0.0,0.0,0.0,0.0,-3.9047,0.0,0.0,0.0,0.0,0.0,0.0,0.0,0.0,0.0,0.0,0.0,0.0,0.0,0.0,0.0,0.0,0.0,0.0,0.0,-3.2853,0.0,-2.9576,-2.9381,-2.9863,-3.0917,-3.0922,-3.1163,-3.1693,-3.1717,-3.2247,-3.3284,-3.2779,-3.3332,-3.4751,-3.4246,-3.4294,-3.4775,-3.4775,-3.4775,-3.4775,-3.4775,-3.4775,-3.4775,-3.4775,-3.4775,-3.4775,-3.4775,-3.4775,-3.4775,0.0,0.0,0.0,0.0,0.0,0.0,0.0,-4.4434,0.0,0.0,0.0,0.0,0.0,0.0,-4.937,0.0,0.0,-4.6779,-4.566,-4.4406,0.0,0.0,0.0,-4.1889,0.0,0.0,0.0,0.0,0.0,-4.3224,-4.366,-4.3456,-4.3805,-4.4501,0.0,-4.2121,0.0,0.0,0.0,0.0,0.0,-4.3456,-4.3515,0.0,0.0,-4.2092,-4.2092,-4.1802,0.0,-4.2411,-4.2631,-4.2444,-4.1686,-4.1819,-4.2067,-4.0955,-4.1018,0.0,0.0,0.0,-4.155,-4.1369,0.0,0.0,0.0,0.0,0.0,0.0,0.0,0.0,0.0,0.0,0.0,0.0,0.0,0.0,0.0,0.0,0.0,0.0,0.0,0.0,0.0,0.0,0.0,-3.1251,-3.1735,-3.1116,0.0,-2.8787,-2.91,-2.9821,-3.0182,-3.0657,-3.1187,-3.1524,-3.2078,-3.2779,-3.2947,-3.3477,-3.427,-3.4438,-3.4607,-3.4775,-3.4775,-3.4775,-3.4775,-3.4775,-3.4775,-3.4775,-3.4775,-3.4775,-3.4775,-3.4775,-3.4775,-3.4775,-4.6323,0.0,0.0,0.0,0.0,0.0,0.0,0.0,0.0,0.0,-5.172,0.0,-5.258,0.0,-5.3656,0.0,-5.1322,-5.0205,-4.7715,-4.6966,0.0,-4.2496,-4.3054,0.0,0.0,0.0,0.0,0.0,0.0,-4.3631,-4.3631,-4.3892,-4.4298,-4.4821,0.0,-4.2644,-4.244,0.0,-4.2731,0.0,0.0,-4.4298,0.0,0.0,-4.2034,0.0,0.0,-4.2063,-4.1279,-4.2557,-4.2702,-4.2208,-4.1628,-4.2005,-4.2411,-4.1134,-4.1285,-4.1827,-4.1798,-4.1798,0.0,0.0,-4.1493,0.0,0.0,0.0,0.0,0.0,0.0,0.0,0.0,0.0,0.0,0.0,0.0,0.0,0.0,0.0,0.0,0.0,0.0,0.0,0.0,0.0,-3.2543,-3.0999,-3.1198,-3.0499,0.0,0.0,-2.8763,-2.9292,-2.9629,-3.0158,-3.0898,-3.1259,-3.191,-3.2779,-3.2923,-3.3477,-3.427,-3.4438,-3.4607,-3.4775,-3.4775,-3.4775,-3.4775,-3.4775,-3.4775,-3.4775,-3.4775,-3.4775,-3.4775,-3.4775,-3.4775,-3.4775,0.0,0.0,0.0,0.0,-4.8199,0.0,0.0,0.0,-5.1879,0.0,-5.6057,-5.7324,-5.58,-5.7591,-5.7689,-5.4708,-5.5182,0.0,-4.9751,-5.0289,0.0,0.0,-4.4167,-4.3906,-3.9625,0.0,0.0,0.0,0.0,0.0,-4.3137,-4.3834,-4.4414,-4.4879,-4.4356,0.0,-4.305,-4.3776,-4.3689,-4.3195,-4.4385,-4.4908,-4.4821,-4.3602,0.0,-4.3166,-4.3747,-4.276,-4.1366,-4.2615,-4.2208,-4.1308,-4.1947,-4.215,-4.1889,-4.0583,-4.1134,-4.1918,-4.0641,-4.1221,-4.2138,-4.1872,0.0,0.0,0.0,0.0,-4.076,0.0,0.0,0.0,0.0,0.0,0.0,0.0,0.0,0.0,0.0,0.0,0.0,0.0,0.0,0.0,0.0,-3.342,-3.2702,-3.1619,-3.1111,0.0,0.0,0.0,0.0,-2.9316,-2.934,-2.9845,-3.0946,-3.0946,-3.1697,-3.3236,-3.2779,-3.3332,-3.4727,-3.4246,-3.4318,-3.4775,-3.4775,-3.4775,-3.4775,-3.4775,-3.4775,-3.4775,-3.4775,-3.4775,-3.4775,-3.4775,-3.4775,-3.4775,-4.9619,-5.0968,-5.1583,0.0,-4.9592,-4.8966,0.0,0.0,0.0,0.0,-5.9425,-6.1569,-6.1741,-6.2719,-6.2215,-5.9311,-5.9261,0.0,0.0,0.0,0.0,-4.8234,-4.6948,-4.5605,-4.4226,-4.4327,0.0,-4.5328,0.0,0.0,-4.5169,-4.5808,-4.5663,-4.4908,0.0,0.0,-4.3108,-4.4705,-4.5024,-4.4414,-4.4763,-4.5198,0.0,0.0,-4.4821,-4.4298,-4.3515,-4.2934,-4.2644,-4.3456,-4.3195,-4.2528,-4.2702,-4.276,-4.2615,-4.1831,-4.2498,-4.3427,-4.3079,-4.3253,-4.3443,-4.3199,-4.2867,-4.2405,0.0,0.0,0.0,0.0,0.0,0.0,0.0,0.0,0.0,0.0,0.0,0.0,0.0,0.0,0.0,0.0,0.0,0.0,0.0,-3.1801,-3.1226,-3.0511,-3.0011,0.0,0.0,0.0,0.0,-2.9869,-2.9893,-3.0398,-3.15,-3.15,-3.1889,-3.2707,-3.2971,-3.3477,-3.4198,-3.4462,-3.4655,-3.4775,-3.4775,-3.4775,-3.4775,-3.4775,-3.4775,-3.4775,-3.4775,-3.4775,-3.4775,-3.4775,-3.4775,-3.4775,-5.1047,0.0,0.0,-5.2119,0.0,0.0,-5.1503,0.0,0.0,-5.8205,-6.1077,0.0,-6.3052,-6.4509,-6.4606,-6.2404,-6.1336,0.0,0.0,0.0,0.0,-5.1434,-4.9339,-4.746,-4.5695,-4.5312,0.0,-4.5576,0.0,0.0,-4.5895,-4.6243,-4.6011,-4.5372,0.0,-4.5692,0.0,-4.4705,-4.5314,-4.5692,-4.5111,0.0,0.0,-4.5895,-4.5663,-4.5198,-4.4182,-4.3456,-4.3137,-4.4066,-4.3747,-4.305,-4.334,-4.3427,-4.3369,-4.3021,-4.3427,-4.3979,-4.3979,-4.3979,-4.3936,-4.382,-4.3603,-4.3255,-4.2524,-4.2251,-4.1894,0.0,0.0,0.0,0.0,0.0,0.0,0.0,0.0,0.0,0.0,0.0,0.0,0.0,0.0,0.0,0.0,-3.1019,-3.0206,-2.946,0.0,0.0,0.0,0.0,0.0,0.0,-3.0062,-3.0657,-3.1019,-3.1673,-3.2178,-3.2515,-3.3044,-3.3549,-3.4006,-3.4534,-3.4775,-3.4775,-3.4775,-3.4775,-3.4775,-3.4775,-3.4775,-3.4775,-3.4775,-3.4775,-3.4775,-3.4775,-3.4775,-3.4775,0.0,0.0,0.0,0.0,0.0,0.0,0.0,-5.5969,0.0,-5.9978,0.0,-6.3344,-6.2774,-6.4801,-6.5675,-6.425,0.0,-6.072,-5.9911,-5.7073,-5.4591,-5.272,-5.139,-4.9169,-4.5992,-4.5615,0.0,0.0,0.0,0.0,-4.5895,-4.5895,-4.5837,0.0,0.0,0.0,0.0,-4.424,-4.4908,0.0,-4.5285,-4.5285,-4.5895,-4.5895,-4.5895,-4.5808,-4.5227,-4.4298,-4.3515,-4.4531,-4.4153,-4.334,-4.3921,-4.4095,-4.4095,-4.4008,-4.4124,-4.4211,-4.4124,-4.4182,-4.4211,-4.4124,-4.4095,-4.4052,-4.3719,-4.3185,-4.2681,-4.2467,-4.1668,0.0,0.0,0.0,0.0,0.0,0.0,0.0,0.0,0.0,0.0,0.0,0.0,0.0,0.0,0.0,0.0,0.0,0.0,0.0,0.0,0.0,0.0,0.0,-3.0062,0.0,-3.0518,0.0,-3.2539,-3.2803,-3.314,-3.3597,-3.4102,-3.4558,-3.4775,-3.4775,-3.4775,-3.4775,-3.4775,-3.4775,-3.4775,-3.4775,-3.4775,-3.4775,-3.4775,-3.4775,-3.4775,-3.4775,0.0,0.0,0.0,0.0,0.0,-5.8713,-6.0459,-6.0443,-6.1099,-6.3609,-6.5866,0.0,-6.7395,-6.7183,-6.642,-6.4963,-6.3408,0.0,0.0,0.0,0.0,-5.5455,-5.2386,-5.0013,-4.8565,-4.6757,-4.622,0.0,0.0,0.0,-4.5895,-4.5895,0.0,0.0,0.0,0.0,-4.485,-4.424,0.0,-4.3747,-4.456,-4.5285,-4.5895,-4.5895,-4.5895,-4.5866,-4.575,-4.5576,-4.5314,-4.4995,-4.4734,-4.4589,-4.4705,-4.4734,-4.4618,-4.4124,-4.4734,-4.543,-4.4879,-4.514,-4.543,-4.4879,-4.4734,-4.4589,-4.4052,-4.3443,-4.295,-4.2907,-4.2079,-4.1211,-4.0783,0.0,0.0,0.0,0.0,0.0,0.0,0.0,0.0,0.0,0.0,0.0,0.0,0.0,0.0,0.0,0.0,0.0,0.0,0.0,0.0,0.0,0.0,0.0,0.0,0.0,0.0,-3.4414,-3.3645,-3.3789,-3.4655,-3.4751,-3.4775,-3.4775,-3.4775,-3.4775,-3.4775,-3.4775,-3.4775,-3.4775,-3.4775,-3.4775,-3.4775,-3.4775,-3.4775,-3.4775,0.0,0.0,0.0,0.0,0.0,0.0,0.0,-6.3725,0.0,-6.5174,-6.6282,-6.6939,-6.6939,-6.7525,-6.7443,-6.6258,-6.4833,-6.3376,-6.1983,-5.9878,-5.8152,-5.6947,-5.4396,0.0,-5.0482,-4.7925,-4.7166,-4.8275,0.0,0.0,0.0,0.0,0.0,0.0,0.0,-4.6127,0.0,0.0,0.0,-4.4037,-4.4647,-4.5285,-4.5895,-4.5895,-4.5895,-4.5895,-4.5895,-4.5895,-4.5837,-4.5518,-4.5401,-4.5401,-4.5401,-4.5401,-4.5343,-4.5053,-4.5401,-4.5808,-4.5488,-4.5634,-4.5808,-4.5488,-4.5401,-4.5227,-4.4589,-4.4211,-4.3733,-4.281,-4.2223,-4.1526,-4.0457,-3.7857,0.0,0.0,0.0,0.0,0.0,0.0,0.0,0.0,0.0,0.0,0.0,0.0,0.0,0.0,0.0,0.0,0.0,0.0,0.0,0.0,0.0,0.0,0.0,0.0,0.0,-3.403,-3.3789,-3.3933,-3.4366,-3.4655,-3.4775,-3.4775,-3.4775,-3.4775,-3.4775,-3.4775,-3.4775,-3.4775,-3.4775,-3.4775,-3.4775,-3.4775,-3.4775,-3.4775,0.0,-5.7144,0.0,0.0,-6.0688,0.0,0.0,-6.6337,-6.6845,-6.6659,-6.6565,-6.6358,-6.5991,-6.7411,-6.7883,-6.6663,-6.5319,-6.3959,-6.2534,-6.0591,-5.8907,-5.7644,-5.5811,-5.3778,-5.1678,-4.8679,-4.748,0.0,0.0,0.0,0.0,0.0,0.0,0.0,0.0,0.0,0.0,0.0,-4.3892,-4.4705,-4.4995,-4.543,-4.5895,-4.5895,-4.5895,-4.5895,-4.5895,-4.5895,-4.5895,-4.5895,-4.5895,-4.5895,-4.5895,-4.5895,-4.5895,-4.5895,-4.5895,-4.5895,-4.5895,-4.5895,-4.5895,-4.5895,-4.5895,-4.575,-4.5227,-4.4951,-4.4384,-4.2883,-4.2253,-4.1438,-3.9557,-3.7755,0.0,0.0,0.0,0.0,0.0,0.0,0.0,0.0,0.0,0.0,0.0,0.0,0.0,0.0,0.0,0.0,0.0,0.0,0.0,0.0,0.0,0.0,-3.1721,0.0,-3.3741,0.0,-3.391,-3.4054,-3.4174,-3.4583,-3.4775,-3.4775,-3.4775,-3.4775,-3.4775,-3.4775,-3.4775,-3.4775,-3.4775,-3.4775,-3.4775,-3.4775,-3.4775,-3.4775,0.0,0.0,0.0,0.0,0.0,0.0,0.0,-6.8128,-6.9453,-6.9453,-6.8989,-6.8469,-6.7847,-6.7704,-6.6777,-6.4477,-6.357,-6.2502,-6.1077,-5.9587,-5.8389,-5.7611,-5.5134,-5.3079,-5.1603,-4.8491,-4.6625,0.0,0.0,0.0,0.0,0.0,0.0,0.0,0.0,0.0,0.0,-4.4327,-4.4472,-4.4182,-4.5314,-4.5837,-4.5895,-4.5895,-4.5895,-4.5895,-4.5895,-4.5895,-4.5895,-4.5895,-4.5895,-4.5895,-4.5895,-4.5895,-4.5895,-4.5895,-4.5895,-4.5895,-4.5895,-4.5895,-4.5895,-4.5895,-4.5895,-4.5866,-4.5808,-4.5209,-4.4396,-4.3632,-4.2224,-4.0716,-3.9431,-3.8889,-3.8143,0.0,0.0,0.0,0.0,0.0,0.0,0.0,0.0,0.0,0.0,0.0,0.0,0.0,0.0,0.0,0.0,0.0,0.0,0.0,0.0,-3.2563,-3.4438,-3.326,0.0,-3.54,-3.4414,-3.4246,-3.4703,-3.4751,-3.4775,-3.4775,-3.4775,-3.4775,-3.4775,-3.4775,-3.4775,-3.4775,-3.4775,-3.4775,-3.4775,-3.4775,-3.4775,-3.4775,0.0,0.0,0.0,0.0,0.0,0.0,0.0,-6.8572,-6.9301,-6.9732,-6.9607,-6.9331,-6.8923,-6.86,-6.7834,-6.6273,-6.4928,-6.357,-6.2145,-6.072,-5.9129,-5.7368,-5.5326,-5.3515,-5.1955,-4.9304,-4.784,0.0,0.0,0.0,0.0,0.0,0.0,0.0,0.0,-4.3369,-4.3021,-4.3544,-4.3834,-4.4095,-4.5372,-4.5895,-4.5895,-4.5895,-4.5895,-4.5895,-4.5895,-4.5895,-4.5895,-4.5895,-4.5895,-4.5895,-4.5895,-4.5895,-4.5895,-4.5895,-4.5895,-4.5895,-4.5895,-4.5895,-4.5895,-4.5895,-4.5895,-4.5895,-4.5895,-4.5647,-4.5091,-4.4161,-4.2577,-4.1109,-4.0241,-3.9554,-3.8608,0.0,0.0,0.0,0.0,0.0,0.0,0.0,0.0,0.0,0.0,0.0,0.0,0.0,0.0,0.0,0.0,0.0,0.0,-3.0898,0.0,-3.1745,-3.3885,-3.3284,-3.3693,-3.5087,-3.4679,-3.4583,-3.4775,-3.4775,-3.4775,-3.4775,-3.4775,-3.4775,-3.4775,-3.4775,-3.4775,-3.4775,-3.4775,-3.4775,-3.4775,-3.4775,-3.4775,-3.4775,-6.42,0.0,-6.4995,0.0,-6.6684,-6.7214,-6.8771,-6.9003,-6.9202,-6.9732,-6.9798,-6.9556,-6.907,-6.8844,-6.8143,-6.6695,-6.522,-6.3797,-6.2372,-6.1141,-5.96,-5.765,-5.5732,0.0,-5.2554,-5.0022,-4.8489,-4.8112,-4.8362,0.0,0.0,0.0,0.0,0.0,-4.2847,-4.2905,-4.3282,-4.3282,-4.3776,-4.4618,-4.5518,-4.5895,-4.5895,-4.5895,-4.5895,-4.5895,-4.5895,-4.5895,-4.5895,-4.5895,-4.5895,-4.5895,-4.5895,-4.5895,-4.5895,-4.5895,-4.5895,-4.5895,-4.5895,-4.5895,-4.5895,-4.5895,-4.5895,-4.5895,-4.5895,-4.585,-4.5409,-4.4081,-4.2701,-4.1505,-4.0828,-3.9897,-3.8907,0.0,0.0,0.0,0.0,0.0,0.0,0.0,0.0,0.0,0.0,0.0,0.0,0.0,0.0,0.0,0.0,0.0,0.0,0.0,0.0,0.0,0.0,0.0,-3.3958,-3.4775,-3.4775,-3.4775,-3.4775,-3.4775,-3.4775,-3.4775,-3.4775,-3.4775,-3.4775,-3.4775,-3.4775,-3.4775,-3.4775,-3.4775,-3.4775,-3.4775,-3.4775,-3.4775,-6.6353,-6.7036,-6.8042,-6.95,-6.9732,-6.9765,-6.9765,-6.9765,-6.9765,-6.9798,-6.9798,-6.9343,-6.8173,-6.8026,-6.6935,-6.4297,-6.3344,-6.2307,-6.0915,-6.0137,-5.9349,0.0,0.0,-5.436,-5.3591,-5.0372,-4.8054,-4.6807,0.0,0.0,-4.305,0.0,0.0,-4.3979,-4.3979,-4.3979,-4.3979,-4.3979,-4.4705,-4.5866,-4.5866,-4.5895,-4.5895,-4.5895,-4.5895,-4.5895,-4.5895,-4.5895,-4.5895,-4.5895,-4.5895,-4.5895,-4.5895,-4.5895,-4.5895,-4.5895,-4.5895,-4.5895,-4.5895,-4.5895,-4.5895,-4.5895,-4.5895,-4.5895,-4.5895,-4.5685,-4.4994,-4.3243,-4.2417,-4.1722,-4.0843,-3.9897,-3.9356,-3.988,0.0,0.0,0.0,0.0,0.0,0.0,0.0,0.0,0.0,0.0,0.0,0.0,0.0,0.0,0.0,0.0,0.0,-3.0922,-3.1913,0.0,-3.3958,-3.3982,-3.4246,-3.4775,-3.4775,-3.4775,-3.4775,-3.4775,-3.4775,-3.4775,-3.4775,-3.4775,-3.4775,-3.4775,-3.4775,-3.4775,-3.4775,-3.4775,-3.4775,-3.4775,-3.4775,-3.4775,-6.8705,-6.8937,-6.9235,-6.9699,-6.9798,-6.9798,-6.9798,-6.9798,-6.9798,-6.9798,-6.9798,-6.9508,-6.8747,-6.8385,-6.7794,0.0,-6.4561,-6.2912,0.0,-6.0656,-5.9278,-5.8351,-5.6013,-5.425,-5.336,-5.0718,-4.8972,-4.8083,0.0,0.0,0.0,-4.4066,-4.3282,-4.2063,-4.2934,-4.3573,-4.4037,-4.4908,-4.5518,-4.5895,-4.5895,-4.5895,-4.5895,-4.5895,-4.5895,-4.5895,-4.5895,-4.5895,-4.5895,-4.5895,-4.5895,-4.5895,-4.5895,-4.5895,-4.5895,-4.5895,-4.5895,-4.5895,-4.5895,-4.5895,-4.5895,-4.5895,-4.5895,-4.5895,-4.5895,-4.5685,-4.5228,-4.426,-4.3605,-4.2899,-4.1792,-4.1175,-4.0316,-3.8724,0.0,0.0,0.0,0.0,0.0,0.0,0.0,0.0,0.0,0.0,0.0,0.0,0.0,0.0,0.0,0.0,0.0,0.0,-3.1789,0.0,-3.3982,-3.3982,-3.427,-3.4775,-3.4775,-3.4775,-3.4775,-3.4775,-3.4775,-3.4775,-3.4775,-3.4775,-3.4775,-3.4775,-3.4775,-3.4775,-3.4775,-3.4775,-3.4775,-3.4775,-3.4775,-3.4775,-6.9798,-6.9798,-6.9798,-6.9798,-6.9798,-6.9798,-6.9798,-6.9798,-6.9798,-6.9798,-6.9798,-6.9655,-6.9188,-6.8627,0.0,-6.7345,-6.5002,0.0,-6.2502,-6.0753,-5.9419,-5.876,-5.6387,-5.4665,-5.3789,0.0,0.0,-4.9088,-4.9001,-4.7927,-4.5953,-4.5343,-4.4269,-4.2934,-4.3979,-4.4385,-4.4385,-4.543,-4.5895,-4.5895,-4.5895,-4.5895,-4.5895,-4.5895,-4.5895,-4.5895,-4.5895,-4.5895,-4.5895,-4.5895,-4.5895,-4.5895,-4.5895,-4.5895,-4.5895,-4.5895,-4.5895,-4.5895,-4.5895,-4.5895,-4.5895,-4.5895,-4.5895,-4.5895,-4.5895,-4.5776,-4.5467,-4.4742,-4.433,-4.3662,-4.2234,-4.1279,-4.0168,-3.8557,0.0,0.0,0.0,0.0,0.0,0.0,0.0,0.0,0.0,-2.9941,0.0,0.0,0.0,0.0,0.0,0.0,0.0,-3.138,-3.1813,0.0,-3.3982,-3.4198,-3.4462,-3.4775,-3.4775,-3.4775,-3.4775,-3.4775,-3.4775,-3.4775,-3.4775,-3.4775,-3.4775,-3.4775,-3.4775,-3.4775,-3.4775,-3.4775,-3.4775,-3.4775,-3.4775,-3.4775,-6.9798,-6.9798,0.0,0.0,-6.9798,0.0,-6.9798,-6.9798,-6.9798,-6.9798,-6.9798,-6.9703,-6.9382,-6.8741,-6.7764,-6.6274,0.0,0.0,0.0,-6.0494,-5.9716,-5.9716,-5.7086,0.0,-5.47,-5.2021,-5.0307,-4.9717,-4.8449,-4.7811,-4.7782,-4.7114,-4.6505,-4.5982,-4.6563,-4.6185,-4.5111,-4.5721,-4.5953,-4.5953,-4.5866,-4.5837,-4.5866,-4.5837,-4.5837,-4.5895,-4.5895,-4.5895,-4.5895,-4.5895,-4.5895,-4.5895,-4.5895,-4.5895,-4.5895,-4.5895,-4.5895,-4.5895,-4.5895,-4.5895,-4.5895,-4.5895,-4.5895,-4.5895,-4.5895,-4.5895,-4.5676,-4.4844,-4.464,-4.4104,-4.2464,-4.0576,-3.9287,-3.9141,-3.5488,-3.2767,-3.2932,0.0,0.0,0.0,0.0,0.0,0.0,-3.1529,-3.1601,0.0,0.0,0.0,0.0,0.0,-3.1597,-3.0995,-3.2034,-3.3068,-3.3982,-3.451,-3.4775,-3.4775,-3.4775,-3.4775,-3.4775,-3.4775,-3.4775,-3.4775,-3.4775,-3.4775,-3.4775,-3.4775,-3.4775,-3.4775,-3.4775,-3.4775,-3.4775,-3.4775,-3.4775,-3.4775,0.0,0.0,-6.9798,-6.9798,-6.9798,-6.9798,-6.9798,-6.9798,-6.9798,-6.9798,-6.9655,-6.9382,-6.914,-6.8732,-6.8128,-6.7052,-6.4828,-6.2977,-6.1854,-6.0494,-5.9716,-5.9716,-5.6661,-5.4854,-5.4669,-5.1595,-4.9892,-4.9717,-4.8885,-4.8246,-4.7782,-4.7114,-4.6691,-4.6621,-4.672,-4.694,-4.7085,-4.6737,-4.6621,-4.6534,-4.5518,-4.543,-4.5837,-4.5314,-4.543,-4.5895,-4.5895,-4.5895,-4.5895,-4.5895,-4.5895,-4.5895,-4.5895,-4.5895,-4.5895,-4.5895,-4.5895,-4.5895,-4.5895,-4.5895,-4.5895,-4.5895,-4.5895,-4.5895,-4.5895,-4.5895,-4.5792,-4.5347,-4.5137,-4.4652,-4.3567,-4.2491,-4.0986,-3.861,-3.6217,-3.3946,-3.173,0.0,0.0,0.0,-3.0543,-3.1019,-3.1308,-3.1308,-3.1577,0.0,0.0,0.0,0.0,0.0,-3.2875,-3.1573,-3.2899,-3.3742,-3.3982,-3.451,-3.4775,-3.4775,-3.4775,-3.4775,-3.4775,-3.4775,-3.4775,-3.4775,-3.4775,-3.4775,-3.4775,-3.4775,-3.4775,-3.4775,-3.4775,-3.4775,-3.4775,-3.4775,-3.4775,-3.4775,-6.9798,-6.9798,-6.9798,-6.9798,-6.9798,-6.9798,-6.9798,-6.9798,-6.9798,-6.9798,-6.9559,-6.9285,-6.9042,-6.8487,-6.7753,-6.6793,-6.4799,-6.3256,-6.234,-6.0688,-5.9716,-5.9716,-5.7498,-5.5813,-5.4746,-5.2444,-5.0789,-4.9717,-4.932,-4.8972,-4.8653,-4.8304,-4.7811,-4.7288,-4.7579,-4.7579,-4.7346,-4.7288,-4.7259,-4.7201,-4.6505,-4.6243,-4.6272,-4.5924,-4.5808,-4.5895,-4.5895,-4.5895,-4.5895,-4.5895,-4.5895,-4.5895,-4.5895,-4.5895,-4.5837,-4.5518,-4.5634,-4.5895,-4.5895,-4.5895,-4.5895,-4.5895,-4.5663,-4.5518,-4.5808,-4.5663,-4.5473,-4.5627,-4.5458,-4.5029,-4.4129,-4.2544,-4.0586,-3.7949,-3.5388,-3.2982,-3.0834,-3.0062,0.0,-3.0062,-3.0802,-3.1404,-3.1669,-3.2058,-3.2491,-3.2899,0.0,0.0,-3.3308,-3.4006,-3.3789,-3.2488,-3.3477,-3.4102,-3.4342,-3.4919,-3.5184,-3.5184,-3.5425,-3.5545,-3.5545,-3.5304,-3.5184,-3.5184,-3.4944,-3.4775,-3.4775,-3.4775,-3.4775,-3.4775,-3.4775,-3.4775,-3.4775,-3.4775,-3.4775,-3.4775,-6.9798,-6.9798,-6.9798,-6.9798,-6.9798,-6.9798,-6.9798,-6.9798,-6.9798,-6.9798,-6.946,-6.9073,-6.8879,-6.7965,-6.7021,-6.6161,-6.4833,-6.3635,-6.2793,-6.0947,-5.9814,-5.9716,-5.8619,-5.7009,-5.4746,-5.3386,-5.1727,-4.9717,-4.9717,-4.9717,-4.9717,-4.9717,-4.9088,-4.8101,-4.8624,-4.8275,-4.7288,-4.7724,-4.7927,-4.7898,-4.7724,-4.7375,-4.694,-4.6766,-4.6417,-4.6011,-4.5924,-4.5895,-4.5895,-4.5895,-4.5895,-4.5895,-4.5895,-4.5895,-4.5779,-4.5198,-4.543,-4.5866,-4.5779,-4.5808,-4.5895,-4.5895,-4.5459,-4.5198,-4.575,-4.543,-4.5198,-4.5689,-4.5595,-4.5195,-4.4379,-4.2113,-3.9721,-3.7806,-3.4521,-3.1826,-3.0513,0.0,-2.9845,-3.0398,-3.1456,-3.2247,-3.2415,-3.3525,-3.391,-3.314,-3.4174,0.0,0.0,-3.4511,-3.4583,-3.3789,-3.4102,-3.4486,-3.5015,-3.5521,-3.5737,-3.5737,-3.6194,-3.6411,-3.6386,-3.5857,-3.5617,-3.5593,-3.5015,-3.4775,-3.4775,-3.4775,-3.4775,-3.4775,-3.4775,-3.4775,-3.4775,-3.4775,-3.4775,-3.4799,-6.9798,-6.9798,-6.9798,-6.9798,-6.9798,-6.9798,-6.9798,-6.9798,-6.9798,-6.9798,-6.8888,-6.819,-6.819,-6.7053,-6.6274,-6.6129,-6.4833,-6.3441,-6.2081,-6.1141,-6.0364,-5.9749,-5.8186,-5.6521,-5.4746,-5.1768,-5.0067,-4.9717,-4.9717,-4.9717,-4.9717,-4.9717,-4.9582,-4.9427,-4.9494,-4.9407,-4.9204,-4.8769,-4.8566,-4.8478,-4.7404,-4.723,-4.7521,-4.6446,-4.6301,-4.6621,-4.6069,-4.5895,-4.5895,-4.5895,-4.5895,-4.5895,-4.5895,-4.5895,-4.5866,-4.5779,-4.5808,-4.5779,-4.5198,-4.5459,-4.5895,-4.5895,-4.5808,-4.575,-4.5866,-4.5808,-4.566,-4.5293,-4.5184,-4.5018,-4.447,-4.3192,-4.1544,-3.9527,-3.6713,-3.4032,0.0,0.0,-3.1548,-3.2058,-3.3428,-3.4679,-3.5569,-3.5497,-3.5497,-3.5785,-3.5184,-3.5136,-3.5881,-3.5641,-3.5617,-3.5905,-3.5569,-3.5617,-3.6146,-3.6242,-3.629,-3.629,-3.6362,-3.6411,-3.6386,-3.5857,-3.5617,-3.5593,-3.5015,-3.4775,-3.4775,-3.4775,-3.4775,-3.4775,-3.4775,-3.4775,-3.4775,-3.4775,-3.4775,-3.4847,-6.9798,-6.9798,-6.9798,-6.9798,-6.9467,-6.9202,-6.9202,-6.9202,-6.9202,-6.9202,-6.884,-6.8371,-6.8059,-6.689,-6.5967,-6.5546,-6.4606,-6.3538,-6.2469,-6.14,-6.0461,-5.9749,-5.8441,-5.6527,-5.3932,-5.1109,-4.9717,-4.9717,-4.9717,-4.9717,-4.9717,-4.9717,-4.9717,-4.9717,-4.9717,-4.9717,-4.9688,-4.9349,-4.9233,-4.9175,-4.8595,-4.8333,-4.8188,-4.7259,-4.6882,-4.6691,-4.6127,-4.5895,-4.5895,-4.5895,-4.5895,-4.5895,-4.5895,-4.5895,-4.5808,-4.5459,-4.5605,-4.5808,-4.5518,-4.5663,-4.5895,-4.5895,-4.5605,-4.543,-4.5808,-4.5515,-4.5236,-4.5281,-4.5138,-4.4723,-4.3899,-4.2266,-4.0381,-3.86,-3.5796,0.0,0.0,-3.2106,-3.2418,-3.3236,-3.4463,-3.5545,-3.6314,-3.6194,-3.6146,-3.6386,-3.5954,-3.5881,-3.6386,-3.617,-3.6146,-3.6386,-3.617,-3.617,-3.6411,-3.6699,-3.6819,-3.6819,-3.7108,-3.7252,-3.7228,-3.6699,-3.6314,-3.6002,-3.5473,-3.5088,-3.4775,-3.4775,-3.4943,-3.5232,-3.4895,-3.5184,-3.5617,-3.4991,-3.5184,-3.5615,-6.9798,-6.9798,-6.9732,-6.9566,-6.9069,-6.8672,-6.8625,-6.8578,-6.8644,-6.8762,-6.8564,-6.8209,-6.7733,-6.6452,-6.5384,-6.4833,-6.4315,-6.3635,-6.2696,-6.1627,-6.072,-6.0008,-5.831,-5.6061,-5.3241,-5.0896,-4.9717,-4.9717,-4.9717,-4.9717,-4.9717,-4.9717,-4.9717,-4.9717,-4.9717,-4.9717,-4.9717,-4.9717,-4.9717,-4.9717,-4.9717,-4.9378,-4.8885,-4.8246,-4.7608,-4.6969,-4.633,-4.6011,-4.5895,-4.5895,-4.5895,-4.5895,-4.5895,-4.5895,-4.5779,-4.5256,-4.5488,-4.5895,-4.5895,-4.5895,-4.5895,-4.5895,-4.5488,-4.5256,-4.5779,-4.5354,-4.5017,-4.5343,-4.5138,-4.4583,-4.3634,-4.1686,-3.9664,-3.8194,0.0,0.0,0.0,-3.3044,-3.338,-3.4246,-3.5352,-3.6194,-3.6723,-3.6771,-3.6771,-3.6771,-3.6651,-3.6651,-3.6771,-3.6651,-3.6651,-3.6771,-3.6651,-3.6651,-3.6771,-3.718,-3.7372,-3.7372,-3.7781,-3.7974,-3.7974,-3.7445,-3.6964,-3.6555,-3.6026,-3.5497,-3.5016,-3.5016,-3.5184,-3.54,-3.5112,-3.5497,-3.6146,-3.5449,-3.5713,-3.6312,-6.9798,-6.9798,-6.9566,-6.8904,-6.8738,-6.8625,-6.8342,-6.8342,-6.8511,-6.8927,-6.7621,-6.6694,-6.6628,-6.5138,-6.4153,-6.4088,-6.4056,-6.3408,-6.1983,-6.1789,-6.1433,-6.0753,-5.7035,-5.4418,-5.3241,-5.0896,-4.9717,-4.9717,-4.9717,-4.9717,-4.9717,-4.9717,-4.9717,-4.9717,-4.9717,-4.9717,-4.9717,-4.9717,-4.9717,-4.9717,-4.9717,-4.964,-4.9524,-4.8914,-4.8275,-4.7637,-4.6998,-4.6388,-4.5895,-4.5895,-4.5895,-4.5895,-4.5895,-4.5895,-4.5866,-4.5837,-4.5837,-4.5895,-4.5895,-4.5895,-4.5895,-4.5895,-4.5837,-4.5837,-4.5866,-4.5837,-4.5702,-4.5201,-4.511,-4.4954,-4.4397,-4.292,-4.1388,-4.035,0.0,0.0,-3.4752,-3.4607,-3.4823,-3.5425,-3.6435,-3.7276,-3.7805,-3.7853,-3.7853,-3.7853,-3.7421,-3.7348,-3.7829,-3.7397,-3.7348,-3.7853,-3.7397,-3.7372,-3.7853,-3.7902,-3.7926,-3.7926,-3.7974,-3.7974,-3.7974,-3.7445,-3.718,-3.7108,-3.6579,-3.605,-3.5569,-3.5569,-3.5304,-3.4871,-3.5376,-3.5617,-3.5737,-3.6146,-3.6338,-3.6381,-6.9798,-6.9798,-6.9699,-6.9434,-6.9003,-6.8578,-6.8342,-6.8295,-6.8298,-6.8321,-6.7638,-6.7004,-6.6548,-6.5365,-6.4477,-6.4056,-6.4024,-6.3335,-6.1662,-6.1136,-5.9899,-5.7713,-5.5159,-5.3128,-5.1699,-5.0379,-4.9717,-4.9717,-4.9717,-4.9717,-4.9717,-4.9717,-4.9717,-4.9717,-4.9717,-4.9717,-4.9717,-4.9717,-4.9717,-4.964,-4.9233,-4.932,-4.9601,-4.8537,-4.7985,-4.7695,-4.7056,-4.6417,-4.5895,-4.5895,-4.5895,-4.5895,-4.5895,-4.5895,-4.5895,-4.5895,-4.6156,-4.6388,-4.5982,-4.5895,-4.5895,-4.5895,-4.5895,-4.5895,-4.5895,-4.5776,-4.5549,-4.5184,-4.5,-4.463,-4.3586,-4.2064,-4.0706,-4.003,0.0,-3.5965,-3.6245,-3.6002,-3.6002,-3.6531,-3.7252,-3.7757,-3.7974,-3.7974,-3.7974,-3.7974,-3.7781,-3.7781,-3.7974,-3.7781,-3.7781,-3.7974,-3.7781,-3.7781,-3.7974,-3.7974,-3.7974,-3.7974,-3.7974,-3.7974,-3.7974,-3.7781,-3.7493,-3.718,-3.6988,-3.6603,-3.6098,-3.6098,-3.617,-3.629,-3.6146,-3.6507,-3.7036,-3.6579,-3.6819,-3.732,-6.9798,-6.9798,-6.9732,-6.95,-6.9036,-6.8578,-6.8247,-6.82,-6.8122,-6.8013,-6.7492,-6.6939,-6.6452,-6.535,-6.4509,-6.4056,-6.4024,-6.3146,-6.1169,-5.9548,-5.7748,-5.559,-5.4032,-5.2496,-5.1025,-5.0133,-4.9717,-4.9717,-4.9717,-4.9717,-4.9717,-4.9717,-4.9717,-4.9717,-4.9717,-4.9717,-4.9717,-4.9717,-4.9553,-4.9349,-4.9117,-4.9059,-4.903,-4.8566,-4.8014,-4.7433,-4.7201,-4.6592,-4.5924,-4.6127,-4.604,-4.5924,-4.6127,-4.604,-4.5924,-4.6127,-4.6359,-4.6446,-4.6011,-4.5895,-4.5895,-4.5895,-4.5895,-4.5895,-4.5895,-4.573,-4.5549,-4.5184,-4.5,-4.4583,-4.3491,-4.1838,-4.045,-3.9955,-3.7763,-3.6362,-3.7084,-3.6867,-3.6843,-3.7372,-3.7757,-3.7974,-3.7974,-3.7974,-3.7974,-3.7974,-3.7974,-3.7974,-3.7974,-3.7974,-3.7974,-3.7974,-3.7974,-3.7974,-3.7974,-3.7974,-3.7974,-3.7974,-3.7974,-3.7974,-3.7974,-3.7974,-3.7781,-3.7445,-3.7445,-3.7132,-3.6651,-3.6651,-3.6771,-3.6916,-3.6723,-3.7108,-3.7661,-3.7108,-3.7348,-3.7873,-6.9798,-6.9798,-6.9566,-6.8837,-6.8705,-6.8564,-6.8009,-6.7912,-6.7981,-6.8154,-6.6971,-6.6096,-6.6096,-6.4866,-6.3976,-6.3976,-6.3944,-6.2921,-6.0424,-5.7033,-5.5089,-5.5089,-5.3882,-5.2704,-5.1614,-5.0336,-4.9717,-4.9717,-4.9717,-4.9717,-4.9717,-4.9717,-4.9717,-4.9717,-4.9717,-4.9717,-4.9717,-4.9717,-4.932,-4.8798,-4.9407,-4.8914,-4.7927,-4.9223,-4.8478,-4.6865,-4.755,-4.6969,-4.5982,-4.6621,-4.6417,-4.5982,-4.6621,-4.6388,-4.6011,-4.665,-4.6388,-4.5895,-4.5895,-4.5895,-4.5895,-4.5895,-4.5895,-4.5895,-4.5895,-4.5895,-4.573,-4.523,-4.5064,-4.4926,-4.449,-4.2625,-4.1036,-4.0461,-3.8591,-3.7204,-3.7204,-3.7204,-3.7397,-3.7926,-3.7974,-3.7974,-3.7974,-3.7974,-3.7974,-3.7974,-3.7974,-3.7974,-3.7974,-3.7974,-3.7974,-3.7974,-3.7974,-3.7974,-3.7974,-3.7974,-3.7974,-3.7974,-3.7974,-3.7974,-3.7974,-3.7974,-3.7974,-3.7974,-3.7974,-3.7685,-3.7204,-3.7204,-3.6892,-3.6459,-3.6988,-3.7204,-3.7252,-3.7781,-3.7974,-3.7921,-6.9798,-6.9798,-6.9732,-6.95,-6.9467,-6.9324,-6.8763,-6.8666,-6.8536,-6.8219,-6.6971,-6.6096,-6.6096,-6.4142,-6.2793,-6.2793,-6.168,-5.993,-5.7495,-5.5232,-5.3993,-5.3993,-5.2792,-5.1733,-5.0975,-5.0104,-4.9717,-4.9717,-4.9717,-4.9717,-4.9717,-4.9717,-4.9717,-4.9717,-4.9717,-4.9717,-4.9717,-4.9717,-4.9553,-4.932,-4.8624,-4.8653,-4.9107,-4.8537,-4.8275,-4.8083,-4.7869,-4.7259,-4.6592,-4.672,-4.6417,-4.5924,-4.6098,-4.6359,-4.6505,-4.6243,-4.6359,-4.6534,-4.6534,-4.6214,-4.5895,-4.5895,-4.5895,-4.5895,-4.5895,-4.5895,-4.5776,-4.5458,-4.4666,-4.3862,-4.3634,-4.164,-4.0007,-3.9829,-3.865,-3.7733,-3.7733,-3.7733,-3.7805,-3.7974,-3.7974,-3.7974,-3.7974,-3.7974,-3.7974,-3.7974,-3.7974,-3.7974,-3.7974,-3.7974,-3.7974,-3.7974,-3.7974,-3.7974,-3.7974,-3.7974,-3.7974,-3.7974,-3.7974,-3.7974,-3.7974,-3.7974,-3.7974,-3.7974,-3.7974,-3.7902,-3.7733,-3.7733,-3.7661,-3.7517,-3.7685,-3.7733,-3.7757,-3.7926,-3.7974,-3.7921,-6.9798,-6.9566,-6.9334,-6.9334,-6.9136,-6.8847,-6.8632,-6.8568,-6.8471,-6.8219,-6.723,-6.642,-6.6129,-6.4073,-6.2635,-6.2351,-6.0279,-5.8325,-5.6599,-5.4831,-5.3791,-5.353,-5.2543,-5.1701,-5.1062,-5.0394,-4.9979,-4.9717,-4.9717,-4.9717,-4.9717,-4.9717,-4.9717,-4.9717,-4.9717,-4.9717,-4.9717,-4.9717,-4.9427,-4.8914,-4.8653,-4.8537,-4.8537,-4.8537,-4.8449,-4.8304,-4.7927,-4.7375,-4.6807,-4.7114,-4.694,-4.6621,-4.6621,-4.6563,-4.6475,-4.6592,-4.6534,-4.6505,-4.672,-4.6359,-4.5953,-4.6214,-4.6069,-4.5895,-4.5895,-4.5895,-4.5776,-4.5413,-4.4712,-4.3909,-4.3177,-4.1492,-4.0109,-3.9648,-3.8687,-3.7974,-3.7974,-3.7974,-3.7974,-3.7974,-3.7974,-3.7974,-3.7974,-3.7974,-3.7974,-3.7974,-3.7974,-3.7974,-3.7974,-3.7974,-3.7974,-3.7974,-3.7974,-3.7974,-3.7974,-3.7974,-3.7974,-3.7974,-3.7974,-3.7974,-3.7974,-3.7974,-3.7974,-3.7974,-3.7974,-3.7974,-3.7974,-3.7974,-3.7974,-3.7974,-3.7974,-3.7974,-3.7974,-3.7974,-3.7974,-3.7921,-6.9798,-6.9202,-6.8705,-6.8771,-6.8095,-6.7611,-6.7862,-6.7864,-6.7915,-6.7992,-6.7489,-6.6759,-6.5918,-6.4211,-6.2865,-6.2053,-5.9427,-5.7504,-5.69,-5.5307,-5.4139,-5.353,-5.2949,-5.2368,-5.1701,-5.1033,-5.0415,-4.9805,-4.9698,-4.9717,-4.9717,-4.9717,-4.9717,-4.9717,-4.9717,-4.9717,-4.9717,-4.9717,-4.9001,-4.8043,-4.9146,-4.8595,-4.7259,-4.8943,-4.8914,-4.7927,-4.7811,-4.7404,-4.6952,-4.7521,-4.7695,-4.7695,-4.7753,-4.6911,-4.6127,-4.7346,-4.6824,-4.604,-4.6737,-4.6446,-4.6127,-4.6778,-4.6475,-4.5953,-4.5895,-4.5895,-4.573,-4.523,-4.5018,-4.448,-4.2985,-4.1815,-4.0718,-3.9648,-3.8635,-3.7974,-3.7974,-3.7974,-3.7974,-3.7974,-3.7974,-3.7974,-3.7974,-3.7974,-3.7974,-3.7974,-3.7974,-3.7974,-3.7974,-3.7974,-3.7974,-3.7974,-3.7974,-3.7974,-3.7974,-3.7974,-3.7974,-3.7974,-3.7974,-3.7974,-3.7974,-3.7974,-3.7974,-3.7974,-3.7974,-3.7974,-3.7974,-3.7974,-3.7974,-3.7974,-3.7974,-3.7974,-3.7974,-3.7974,-3.7974,-3.7868,-6.9798,-6.906,-6.8587,-6.9148,-6.8002,-6.7174,-6.7606,-6.7655,-6.7427,-6.6663,-6.642,-6.5738,-6.4161,-6.2347,-6.0824,-5.9781,-5.7398,-5.5708,-5.5094,-5.424,-5.3675,-5.353,-5.3384,-5.3007,-5.2368,-5.1316,-5.0598,-5.0502,-4.9979,-4.9717,-4.9717,-4.9717,-4.9717,-4.9717,-4.9717,-4.9717,-4.9717,-4.9717,-4.9524,-4.9262,-4.903,-4.8972,-4.9059,-4.8972,-4.9059,-4.9194,-4.813,-4.7695,-4.7521,-4.7143,-4.7027,-4.7114,-4.7608,-4.6911,-4.604,-4.6824,-4.6505,-4.6127,-4.7259,-4.7114,-4.6911,-4.7996,-4.7462,-4.6505,-4.6011,-4.5895,-4.5805,-4.5504,-4.4545,-4.3436,-4.2084,-4.0792,-3.9597,-3.853,-3.8133,-3.7974,-3.7974,-3.7974,-3.7974,-3.7974,-3.7974,-3.7974,-3.7974,-3.7974,-3.7974,-3.7974,-3.7974,-3.7974,-3.7974,-3.7974,-3.7974,-3.7974,-3.7974,-3.7974,-3.7974,-3.7974,-3.7974,-3.7974,-3.7974,-3.7974,-3.7974,-3.7974,-3.7974,-3.7974,-3.7974,-3.7974,-3.7974,-3.7974,-3.7974,-3.7974,-3.7974,-3.7974,-3.7974,-3.7974,-3.7974,-3.7761,-6.9798,-6.9013,-6.8427,-6.8789,-6.7776,-6.69,-6.7052,-6.7069,-6.6842,-6.621,-6.6096,-6.5415,-6.3608,-6.2052,-6.038,-5.8386,-5.6735,-5.562,-5.4981,-5.4342,-5.3849,-5.353,-5.35,-5.3355,-5.3036,-5.2078,-5.1345,-5.0734,-5.0386,-4.9988,-4.9717,-4.9717,-4.9717,-4.9717,-4.9717,-4.9717,-4.9688,-4.9349,-4.9059,-4.8769,-4.874,-4.874,-4.8798,-4.9088,-4.9204,-4.9088,-4.813,-4.7782,-4.7637,-4.6708,-4.6766,-4.7288,-4.7317,-4.6882,-4.6446,-4.7085,-4.6824,-4.6621,-4.7898,-4.755,-4.7097,-4.8373,-4.7706,-4.6691,-4.6417,-4.6007,-4.564,-4.5367,-4.4666,-4.3559,-4.1739,-4.0869,-3.9853,-3.8238,-3.7974,-3.7974,-3.7974,-3.7974,-3.7974,-3.7974,-3.7974,-3.7974,-3.7974,-3.7974,-3.7974,-3.7974,-3.7974,-3.7974,-3.7974,-3.7974,-3.7974,-3.7974,-3.7974,-3.7974,-3.7974,-3.7974,-3.7974,-3.7974,-3.7974,-3.7974,-3.7974,-3.7974,-3.7974,-3.7974,-3.7974,-3.7974,-3.7974,-3.7974,-3.7974,-3.7974,-3.7974,-3.7974,-3.7974,-3.7838,-3.7281,-3.6208,-6.9633,-6.8767,-6.8083,-6.8083,-6.7108,-6.63,-6.6239,-6.6239,-6.6063,-6.5546,-6.5594,-6.4846,-6.2833,-6.1628,-5.9951,-5.7355,-5.6578,-5.5968,-5.53,-5.4691,-5.4081,-5.353,-5.35,-5.35,-5.35,-5.3007,-5.2216,-5.1004,-5.0772,-5.0444,-4.9892,-4.9727,-4.9717,-4.9717,-4.9717,-4.9611,-4.9465,-4.8943,-4.842,-4.7985,-4.8508,-4.8478,-4.8217,-4.9311,-4.9349,-4.8798,-4.8043,-4.7724,-4.7462,-4.6534,-4.6911,-4.7695,-4.7288,-4.7039,-4.7085,-4.7637,-4.7317,-4.7039,-4.8246,-4.7811,-4.7259,-4.8402,-4.788,-4.7068,-4.6981,-4.6235,-4.5413,-4.5155,-4.4954,-4.404,-4.1667,-4.1219,-4.0516,-3.8344,-3.7974,-3.7974,-3.7974,-3.7974,-3.7974,-3.7974,-3.7974,-3.7974,-3.7974,-3.7974,-3.7974,-3.7974,-3.7974,-3.7974,-3.7974,-3.7974,-3.7974,-3.7974,-3.7974,-3.7974,-3.7974,-3.7974,-3.7974,-3.7974,-3.7974,-3.7974,-3.7974,-3.7974,-3.7974,-3.7974,-3.7974,-3.7974,-3.7974,-3.7974,-3.7974,-3.7974,-3.7974,-3.7974,-3.7921,-3.7465,-3.6013,-3.3979,-6.897,-6.7899,-6.7123,-6.7123,-6.5585,-6.4604,-6.514,-6.5205,-6.4642,-6.3045,-6.339,-6.27,-5.9887,-5.8584,-5.7494,-5.6578,-5.5939,-5.53,-5.4662,-5.4023,-5.3617,-5.35,-5.35,-5.35,-5.35,-5.3442,-5.3036,-5.2362,-5.1257,-5.0627,-5.054,-4.9979,-4.9717,-4.9717,-4.9717,-4.9378,-4.8856,-4.8769,-4.8682,-4.8624,-4.8682,-4.9001,-4.9436,-4.9611,-4.9611,-4.9378,-4.8188,-4.7433,-4.7027,-4.7404,-4.7637,-4.7869,-4.8333,-4.8101,-4.7666,-4.7753,-4.7317,-4.6923,-4.7724,-4.7782,-4.7811,-4.8537,-4.8595,-4.8333,-4.7782,-4.6524,-4.5413,-4.5155,-4.4954,-4.404,-4.1667,-4.1219,-4.0516,-3.8344,-3.7974,-3.7974,-3.7974,-3.7974,-3.7974,-3.7974,-3.7974,-3.7974,-3.7974,-3.7974,-3.7974,-3.7974,-3.7974,-3.7974,-3.7974,-3.7974,-3.7974,-3.7974,-3.7974,-3.7974,-3.7974,-3.7974,-3.7974,-3.7974,-3.7974,-3.7974,-3.7974,-3.7974,-3.7974,-3.7974,-3.7974,-3.7974,-3.7974,-3.7974,-3.7974,-3.7974,-3.7974,-3.7974,-3.7814,-3.6534,-3.4236,-3.1667,-6.8241,-6.7471,-6.6864,-6.6864,-6.5914,-6.5157,-6.5012,-6.498,-6.4353,-6.2513,-6.2572,-6.1832,-5.9278,-5.7676,-5.6694,-5.6432,-5.5474,-5.4807,-5.4546,-5.3878,-5.35,-5.35,-5.35,-5.35,-5.35,-5.3181,-5.2862,-5.2623,-5.2071,-5.1432,-5.0705,-5.0415,-5.0095,-4.9717,-4.9717,-4.932,-4.8663,-4.8663,-4.8537,-4.8217,-4.8566,-4.8885,-4.9175,-4.9553,-4.9465,-4.903,-4.8101,-4.784,-4.7869,-4.7811,-4.7782,-4.784,-4.8101,-4.8014,-4.784,-4.8188,-4.7869,-4.7579,-4.8566,-4.8072,-4.7532,-4.875,-4.85,-4.7932,-4.7894,-4.6966,-4.6034,-4.5738,-4.5071,-4.401,-4.204,-4.1428,-4.0516,-3.8344,-3.7974,-3.7974,-3.7974,-3.7974,-3.7974,-3.7974,-3.7974,-3.7974,-3.7974,-3.7974,-3.7974,-3.7974,-3.7974,-3.7974,-3.7974,-3.7974,-3.7974,-3.7974,-3.7974,-3.7974,-3.7974,-3.7974,-3.7974,-3.7974,-3.7974,-3.7974,-3.7974,-3.7974,-3.7974,-3.7974,-3.7974,-3.7974,-3.7974,-3.7974,-3.7974,-3.7974,-3.7974,-3.7364,-3.6294,-3.4847,-3.2886,-3.0897]},{"header":{"parameterUnit":"m.s-1","parameterCategory":1,"la1":30.6,"la2":28.766,"lo1":-90.7593,"lo2":-88.6598,"dy":0.0162,"dx":0.0183,"nx":116,"ny":114,"refTime":"2023-03-13T00:00:00:Z","depth":0,"parameterNumber":3,"parameterNumberName":"V-component_of_WINDS"},"data":[0.0,0.0,0.0,0.0,0.0,0.0,0.0,0.0,0.0,0.0,0.0,0.0,0.0,0.0,0.0,0.0,0.0,0.0,0.0,0.0,0.0,0.0,0.0,0.0,0.0,0.0,0.0,0.0,0.0,0.0,0.0,0.0,0.0,0.0,0.0,0.0,0.0,0.0,0.0,0.0,0.0,0.0,0.0,0.0,0.0,0.0,0.0,0.0,0.0,0.0,0.0,0.0,0.0,0.0,0.0,0.0,0.0,0.0,0.0,0.0,0.0,0.0,0.0,0.0,0.0,0.0,0.0,0.0,0.0,0.0,0.0,0.0,0.0,0.0,0.0,0.0,0.0,0.0,0.0,0.0,0.0,0.0,0.0,0.0,0.0,0.0,0.0,0.0,0.0,0.0,0.0,0.0,0.0,0.0,0.0,0.0,0.0,0.0,0.0,0.0,0.0,0.0,0.0,0.0,0.0,0.0,0.0,0.0,0.0,0.0,0.0,0.0,0.0,0.0,0.0,0.0,0.0,0.0,0.0,0.0,0.0,0.0,0.0,0.0,0.0,0.0,0.0,0.0,0.0,0.0,0.0,0.0,0.0,0.0,0.0,0.0,0.0,0.0,0.0,0.0,0.0,0.0,0.0,0.0,0.0,0.0,0.0,0.0,0.0,0.0,0.0,0.0,0.0,0.0,0.0,0.0,0.0,0.0,0.0,0.0,0.0,0.0,0.0,0.0,0.0,0.0,0.0,0.0,0.0,0.0,0.0,0.0,0.0,0.0,0.0,0.0,0.0,0.0,0.0,0.0,0.0,0.0,0.0,0.0,0.0,0.0,0.0,0.0,0.0,0.0,0.0,0.0,0.0,0.0,0.0,0.0,0.0,0.0,0.0,0.0,0.0,0.0,0.0,0.0,0.0,0.0,0.0,0.0,0.0,0.0,0.0,0.0,0.0,0.0,0.0,0.0,0.0,0.0,0.0,0.0,0.0,0.0,0.0,0.0,0.0,0.0,0.0,0.0,0.0,0.0,0.0,0.0,0.0,0.0,0.0,0.0,0.0,0.0,0.0,0.0,0.0,0.0,0.0,0.0,0.0,0.0,0.0,0.0,0.0,0.0,0.0,0.0,0.0,0.0,0.0,0.0,0.0,0.0,0.0,0.0,0.0,0.0,0.0,0.0,0.0,0.0,0.0,0.0,0.0,0.0,0.0,0.0,0.0,0.0,0.0,0.0,0.0,0.0,0.0,0.0,0.0,0.0,0.0,0.0,0.0,0.0,0.0,0.0,0.0,0.0,0.0,0.0,0.0,0.0,0.0,0.0,0.0,0.0,0.0,0.0,0.0,0.0,0.0,0.0,0.0,0.0,0.0,0.0,0.0,0.0,0.0,0.0,0.0,0.0,0.0,0.0,0.0,0.0,0.0,0.0,0.0,0.0,0.0,0.0,0.0,0.0,0.0,0.0,0.0,0.0,0.0,0.0,0.0,0.0,0.0,0.0,0.0,0.0,0.0,0.0,0.0,0.0,0.0,0.0,0.0,0.0,0.0,0.0,0.0,0.0,0.0,0.0,0.0,0.0,0.0,0.0,0.0,0.0,0.0,0.0,0.0,0.0,0.0,0.0,0.0,0.0,0.0,0.0,0.0,0.0,0.0,0.0,0.0,0.0,0.0,0.0,0.0,0.0,0.0,0.0,0.0,0.0,0.0,0.0,0.0,0.0,0.0,0.0,0.0,0.0,0.0,0.0,0.0,0.0,0.0,0.0,0.0,0.0,0.0,0.0,0.0,0.0,0.0,0.0,0.0,0.0,0.0,0.0,0.0,0.0,0.0,0.0,0.0,0.0,0.0,0.0,0.0,0.0,0.0,0.0,0.0,0.0,0.0,0.0,0.0,0.0,0.0,0.0,0.0,0.0,0.0,0.0,0.0,0.0,0.0,0.0,0.0,0.0,0.0,0.0,0.0,0.0,0.0,0.0,0.0,0.0,0.0,0.0,0.0,0.0,0.0,0.0,0.0,0.0,0.0,0.0,0.0,0.0,0.0,0.0,0.0,0.0,0.0,0.0,0.0,0.0,0.0,0.0,0.0,0.0,0.0,0.0,0.0,0.0,0.0,0.0,0.0,0.0,0.0,0.0,0.0,0.0,0.0,0.0,0.0,0.0,0.0,0.0,0.0,0.0,0.0,0.0,0.0,0.0,0.0,0.0,0.0,0.0,0.0,0.0,0.0,0.0,0.0,0.0,0.0,0.0,0.0,0.0,0.0,0.0,0.0,0.0,0.0,0.0,0.0,0.0,0.0,0.0,0.0,0.0,0.0,0.0,0.0,0.0,0.0,0.0,0.0,0.0,0.0,0.0,0.0,0.0,0.0,0.0,0.0,0.0,0.0,0.0,0.0,0.0,0.0,0.0,0.0,0.0,0.0,0.0,0.0,0.0,0.0,0.0,0.0,0.0,0.0,0.0,0.0,0.0,0.0,0.0,0.0,0.0,0.0,0.0,0.0,0.0,0.0,0.0,0.0,0.0,0.0,0.0,0.0,0.0,0.0,0.0,0.0,0.0,0.0,0.0,0.0,0.0,0.0,0.0,0.0,0.0,0.0,0.0,0.0,0.0,0.0,0.0,0.0,0.0,0.0,0.0,0.0,0.0,0.0,0.0,0.0,0.0,0.0,0.0,0.0,0.0,0.0,0.0,0.0,0.0,0.0,0.0,0.0,0.0,0.0,0.0,0.0,0.0,0.0,0.0,0.0,0.0,0.0,0.0,0.0,0.0,0.0,0.0,0.0,0.0,0.0,0.0,0.0,0.0,0.0,0.0,0.0,0.0,0.0,0.0,0.0,0.0,0.0,0.0,0.0,0.0,0.0,0.0,0.0,0.0,0.0,0.0,0.0,0.0,0.0,0.0,0.0,0.0,0.0,0.0,0.0,0.0,0.0,0.0,0.0,0.0,0.0,0.0,0.0,0.0,0.0,0.0,0.0,0.0,0.0,0.0,0.0,0.0,0.0,0.0,0.0,0.0,0.0,0.0,0.0,0.0,0.0,0.0,0.0,0.0,0.0,0.0,0.0,0.0,0.0,0.0,0.0,0.0,0.0,0.0,0.0,0.0,0.0,0.0,0.0,0.0,0.0,0.0,0.0,0.0,0.0,0.0,0.0,0.0,0.0,0.0,0.0,0.0,0.0,0.0,0.0,0.0,0.0,0.0,0.0,0.0,0.0,0.0,0.0,0.0,0.0,0.0,0.0,0.0,0.0,0.0,0.0,0.0,0.0,0.0,0.0,0.0,0.0,0.0,0.0,0.0,0.0,0.0,0.0,0.0,0.0,0.0,0.0,0.0,0.0,0.0,0.0,0.0,0.0,0.0,0.0,0.0,0.0,0.0,0.0,0.0,0.0,0.0,0.0,0.0,0.0,0.0,0.0,0.0,0.0,0.0,0.0,0.0,0.0,0.0,0.0,0.0,0.0,0.0,0.0,0.0,0.0,0.0,0.0,0.0,0.0,0.0,0.0,0.0,0.0,0.0,0.0,0.0,0.0,0.0,0.0,0.0,0.0,0.0,0.0,0.0,0.0,0.0,0.0,0.0,0.0,0.0,0.0,0.0,0.0,0.0,0.0,0.0,0.0,0.0,0.0,0.0,0.0,0.0,0.0,0.0,0.0,0.0,0.0,0.0,0.0,0.0,0.0,0.0,0.0,0.0,0.0,0.0,0.0,0.0,0.0,0.0,0.0,0.0,0.0,0.0,0.0,0.0,0.0,0.0,0.0,0.0,0.0,0.0,0.0,0.0,0.0,0.0,0.0,0.0,0.0,0.0,0.0,0.0,0.0,0.0,0.0,0.0,0.0,0.0,0.0,0.0,0.0,0.0,0.0,0.0,0.0,0.0,0.0,0.0,0.0,0.0,0.0,0.0,0.0,0.0,0.0,0.0,0.0,0.0,0.0,0.0,0.0,0.0,0.0,0.0,0.0,0.0,0.0,0.0,0.0,0.0,0.0,0.0,0.0,0.0,0.0,0.0,0.0,0.0,0.0,0.0,0.0,0.0,0.0,0.0,0.0,0.0,0.0,0.0,0.0,0.0,0.0,0.0,0.0,0.0,0.0,0.0,0.0,0.0,0.0,0.0,0.0,0.0,0.0,0.0,0.0,0.0,0.0,0.0,0.0,0.0,0.0,0.0,0.0,0.0,0.0,0.0,0.0,0.0,0.0,0.0,0.0,0.0,0.0,0.0,0.0,0.0,0.0,0.0,0.0,0.0,0.0,0.0,0.0,0.0,0.0,0.0,0.0,0.0,0.0,0.0,0.0,0.0,0.0,0.0,0.0,0.0,0.0,0.0,0.0,0.0,0.0,0.0,0.0,0.0,0.0,0.0,0.0,0.0,0.0,0.0,0.0,0.0,0.0,0.0,0.0,0.0,0.0,0.0,0.0,0.0,0.0,0.0,0.0,0.0,0.0,0.0,0.0,0.0,0.0,0.0,0.0,0.0,0.0,0.0,0.0,0.0,0.0,0.0,0.0,0.0,0.0,0.0,0.0,0.0,0.0,0.0,0.0,0.0,0.0,0.0,0.0,0.0,0.0,0.0,0.0,0.0,0.0,0.0,0.0,0.0,0.0,0.0,0.0,0.0,0.0,0.0,0.0,0.0,0.0,0.0,0.0,0.0,0.0,0.0,0.0,0.0,0.0,0.0,0.0,0.0,0.0,0.0,0.0,0.0,0.0,0.0,0.0,0.0,0.0,0.0,0.0,0.0,0.0,0.0,0.0,0.0,0.0,0.0,0.0,0.0,0.0,0.0,0.0,0.0,0.0,0.0,0.0,0.0,0.0,0.0,0.0,0.0,0.0,0.0,0.0,0.0,0.0,0.0,0.0,0.0,0.0,0.0,0.0,0.0,0.0,0.0,0.0,0.0,0.0,0.0,0.0,0.0,0.0,0.0,0.0,0.0,0.0,0.0,0.0,0.0,0.0,0.0,0.0,0.0,0.0,0.0,0.0,0.0,0.0,0.0,0.0,0.0,0.0,0.0,0.0,0.0,0.0,0.0,0.0,0.0,0.0,0.0,0.0,0.0,0.0,0.0,0.0,0.0,0.0,0.0,0.0,0.0,0.0,0.0,0.0,0.0,0.0,0.0,0.0,0.0,0.0,0.0,0.0,0.0,0.0,0.0,0.0,0.0,0.0,0.0,0.0,0.0,0.0,0.0,0.0,0.0,0.0,0.0,0.0,0.0,0.0,0.0,0.0,0.0,0.0,0.0,0.0,0.0,0.0,0.0,0.0,0.0,0.0,0.0,0.0,0.0,0.0,0.0,0.0,0.0,0.0,0.0,0.0,0.0,0.0,0.0,0.0,0.0,0.0,0.0,0.0,0.0,0.0,0.0,0.0,0.0,0.0,0.0,0.0,0.0,0.0,0.0,0.0,0.0,0.0,0.0,0.0,0.0,0.0,0.0,0.0,0.0,0.0,0.0,0.0,0.0,0.0,0.0,0.0,0.0,0.0,0.0,0.0,0.0,0.0,0.0,0.0,0.0,0.0,0.0,0.0,0.0,0.0,0.0,0.0,0.0,0.0,0.0,0.0,0.0,0.0,0.0,0.0,0.0,0.0,0.0,0.0,0.0,0.0,0.0,0.0,0.0,0.0,0.0,0.0,0.0,0.0,0.0,0.0,0.0,0.0,0.0,0.0,0.0,0.0,0.0,0.0,0.0,0.0,0.0,0.0,0.0,0.0,0.0,0.0,0.0,0.0,0.0,0.0,0.0,0.0,0.0,0.0,0.0,0.0,0.0,0.0,0.0,0.0,0.0,0.0,0.0,0.0,0.0,0.0,0.0,0.0,0.0,0.0,0.0,0.0,0.0,0.0,0.0,0.0,0.0,0.0,0.0,0.0,0.0,0.0,0.0,0.0,0.0,0.0,0.0,0.0,0.0,0.0,0.0,0.0,0.0,0.0,0.0,0.0,0.0,0.0,0.0,0.0,0.0,0.0,0.0,0.0,0.0,0.0,0.0,0.0,0.0,0.0,0.0,0.0,0.0,0.0,0.0,0.0,0.0,0.0,0.0,0.0,0.0,0.0,0.0,0.0,0.0,0.0,0.0,0.0,0.0,0.0,0.0,2.677,0.0,0.0,0.0,0.0,0.0,0.0,0.0,0.0,0.0,0.0,0.0,0.0,0.0,0.0,0.0,0.0,0.0,0.0,0.0,0.0,0.0,0.0,0.0,0.0,0.0,0.0,0.0,0.0,0.0,0.0,0.0,0.0,0.0,0.0,0.0,0.0,0.0,0.0,0.0,2.3621,2.4081,2.4958,2.4886,2.447,2.3752,0.0,0.0,0.0,0.0,0.0,0.0,0.0,0.0,0.0,0.0,0.0,0.0,0.0,0.0,0.0,0.0,0.0,0.0,0.0,0.0,0.0,0.0,0.0,0.0,0.0,0.0,0.0,0.0,0.0,0.0,0.0,0.0,0.0,0.0,0.0,0.0,0.0,0.0,0.0,0.0,0.0,0.0,0.0,0.0,0.0,0.0,0.0,0.0,0.0,0.0,0.0,0.0,0.0,0.0,0.0,0.0,0.0,0.0,0.0,0.0,0.0,0.0,0.0,0.0,0.0,0.0,0.0,0.0,0.0,0.0,0.0,2.7005,0.0,0.0,0.0,0.0,0.0,0.0,0.0,0.0,0.0,0.0,0.0,0.0,0.0,0.0,0.0,0.0,0.0,0.0,0.0,0.0,0.0,0.0,0.0,0.0,2.2516,0.0,0.0,0.0,0.0,0.0,0.0,0.0,0.0,0.0,0.0,2.4092,2.4216,2.4784,2.5143,2.5861,2.694,2.7062,2.6156,2.4461,2.4301,0.0,0.0,0.0,0.0,0.0,0.0,0.0,0.0,0.0,0.0,0.0,0.0,0.0,0.0,0.0,0.0,0.0,0.0,0.0,0.0,0.0,0.0,0.0,0.0,0.0,0.0,0.0,0.0,0.0,0.0,0.0,0.0,0.0,0.0,0.0,0.0,0.0,0.0,0.0,0.0,0.0,0.0,0.0,0.0,0.0,0.0,0.0,0.0,0.0,0.0,0.0,0.0,0.0,0.0,0.0,0.0,0.0,0.0,0.0,0.0,0.0,0.0,0.0,0.0,0.0,3.4253,3.4145,3.4323,3.4418,3.0148,2.857,2.8931,0.0,0.0,0.0,0.0,0.0,0.0,0.0,0.0,0.0,0.0,0.0,0.0,0.0,0.0,0.0,0.0,0.0,0.0,0.0,0.0,0.0,0.0,2.1949,2.2532,2.3009,2.3577,2.4184,0.0,0.0,0.0,0.0,0.0,0.0,2.5246,2.5176,2.5259,2.5465,2.723,2.8723,2.9946,3.0518,3.0636,3.0265,2.7694,2.7222,2.8263,0.0,0.0,0.0,0.0,0.0,0.0,0.0,0.0,0.0,0.0,0.0,0.0,0.0,0.0,0.0,0.0,0.0,0.0,0.0,0.0,0.0,0.0,0.0,0.0,0.0,0.0,0.0,0.0,0.0,0.0,0.0,0.0,0.0,0.0,0.0,0.0,0.0,0.0,0.0,0.0,0.0,2.4448,2.5258,0.0,0.0,0.0,0.0,0.0,0.0,0.0,0.0,0.0,0.0,0.0,0.0,0.0,0.0,3.0555,3.1874,3.2866,3.356,3.4866,3.553,3.5612,3.4981,3.4796,3.4891,3.3589,0.0,3.1715,3.1036,0.0,0.0,0.0,0.0,0.0,0.0,0.0,0.0,0.0,0.0,0.0,0.0,0.0,0.0,0.0,0.0,0.0,0.0,0.0,0.0,0.0,2.4347,2.4934,2.4769,2.6356,2.6733,2.5305,0.0,0.0,0.0,0.0,2.5212,2.5283,2.5283,2.609,2.7727,3.0165,3.1839,3.2736,3.3425,3.3754,3.3664,3.1994,3.0469,2.913,2.8037,0.0,0.0,0.0,0.0,0.0,0.0,0.0,0.0,0.0,0.0,0.0,0.0,0.0,0.0,0.0,0.0,0.0,0.0,0.0,0.0,0.0,0.0,0.0,0.0,0.0,0.0,0.0,0.0,0.0,0.0,0.0,0.0,0.0,0.0,0.0,0.0,0.0,0.0,0.0,2.453,2.573,2.6114,2.691,2.7166,0.0,0.0,0.0,0.0,0.0,0.0,0.0,0.0,0.0,3.107,3.1468,3.2181,3.3324,3.4284,3.5128,3.5817,3.682,3.7535,3.7959,3.766,3.7752,3.8161,3.6945,3.5933,3.5015,3.3007,3.2074,3.1827,0.0,0.0,0.0,0.0,0.0,3.1372,0.0,0.0,0.0,0.0,0.0,0.0,0.0,0.0,0.0,0.0,0.0,0.0,2.5612,2.6945,2.7647,2.7448,2.9317,2.9521,2.7205,2.7721,0.0,0.0,0.0,2.545,2.5675,2.6323,2.7945,3.0537,3.3121,3.4939,3.6071,3.6824,3.7152,3.7122,3.6537,3.4271,3.0846,2.9763,2.8451,2.7057,0.0,0.0,0.0,0.0,0.0,0.0,0.0,0.0,0.0,0.0,0.0,0.0,0.0,0.0,0.0,0.0,0.0,0.0,0.0,0.0,0.0,0.0,0.0,0.0,0.0,0.0,0.0,0.0,0.0,0.0,0.0,0.0,0.0,0.0,0.0,0.0,0.0,2.5454,2.6561,2.6834,2.774,2.8116,0.0,0.0,0.0,0.0,0.0,0.0,3.0537,3.1053,3.2024,3.3521,3.4037,3.4793,3.5769,3.6451,3.7113,3.785,3.8566,3.9198,3.978,3.978,4.0098,4.0583,3.9451,3.8669,3.7992,3.5014,3.3569,3.3094,3.2007,3.1958,0.0,3.1842,3.2372,3.3332,0.0,0.0,0.0,0.0,0.0,0.0,0.0,0.0,0.0,0.0,0.0,2.5641,2.7374,2.871,2.9958,3.1119,3.1932,3.2309,3.2135,2.9968,2.836,2.7681,2.6497,2.6185,2.6889,2.9406,3.1691,3.3662,3.5667,3.7906,4.038,4.1261,4.1665,4.1635,4.1249,3.8876,3.4955,3.1564,3.0483,3.0794,2.8023,0.0,0.0,0.0,0.0,0.0,0.0,0.0,0.0,0.0,0.0,0.0,0.0,0.0,0.0,0.0,0.0,0.0,0.0,0.0,0.0,0.0,0.0,0.0,0.0,0.0,0.0,0.0,0.0,0.0,0.0,0.0,0.0,0.0,0.0,0.0,0.0,0.0,0.0,2.6893,2.7275,0.0,0.0,0.0,0.0,2.9261,3.0552,3.1879,3.3147,3.3239,3.3915,3.5304,3.5397,3.6045,3.7372,3.7965,3.8618,3.9313,3.9927,4.0229,4.0261,4.0261,4.0351,4.0502,4.0437,4.046,4.0312,3.7345,3.5295,3.4023,3.3958,3.4064,3.425,3.4218,3.4347,3.4508,0.0,0.0,0.0,0.0,0.0,0.0,0.0,0.0,0.0,2.4733,2.5923,2.7459,2.9348,3.1438,3.2858,3.3354,3.4341,3.4254,3.2597,3.0845,2.9563,2.8881,2.7564,2.7318,2.8333,3.1063,3.3129,3.439,3.6816,3.8902,4.0604,4.2023,4.2763,4.2902,4.3016,4.2166,4.0307,3.6075,3.3576,3.2247,2.9965,2.8396,0.0,0.0,0.0,0.0,0.0,0.0,0.0,0.0,0.0,0.0,0.0,0.0,0.0,0.0,0.0,0.0,0.0,0.0,0.0,0.0,0.0,0.0,0.0,0.0,0.0,0.0,0.0,0.0,0.0,0.0,0.0,0.0,0.0,0.0,0.0,0.0,0.0,2.9155,3.0824,0.0,0.0,3.1934,3.2219,3.2463,3.3203,3.4118,3.5125,3.5615,3.6321,3.74,3.8262,3.897,3.9431,4.0529,4.1224,4.1441,4.1682,4.1784,4.1784,4.1784,4.1567,4.1227,4.1227,4.0727,3.9849,3.8811,3.8093,3.7525,3.656,3.6228,3.6267,3.5817,3.5992,3.6488,0.0,0.0,0.0,0.0,0.0,0.0,0.0,0.0,0.0,2.5371,2.7318,2.9493,3.1642,3.4167,3.5652,3.5569,3.6179,3.5611,3.3378,3.1277,2.9882,2.9373,2.8475,2.8592,2.9966,3.2626,3.4623,3.5832,3.7993,3.9813,4.1223,4.2851,4.3612,4.3574,4.4528,4.4489,4.3466,4.042,3.7365,3.4334,3.2179,3.0593,2.9286,0.0,0.0,0.0,0.0,0.0,0.0,0.0,0.0,0.0,0.0,0.0,0.0,0.0,0.0,0.0,0.0,0.0,0.0,0.0,0.0,0.0,0.0,0.0,0.0,0.0,0.0,0.0,0.0,0.0,0.0,0.0,0.0,0.0,0.0,0.0,3.114,3.1546,3.341,3.4543,3.4298,3.479,3.5125,3.5125,3.6034,3.6945,3.7712,3.8202,3.8818,3.9627,4.0725,4.1342,4.1449,4.2585,4.3205,4.3279,4.3279,4.3156,4.294,4.294,4.2571,4.1955,4.1955,4.1432,4.057,4.057,4.0591,4.0447,3.8469,3.7764,3.7787,3.731,3.7523,3.8019,0.0,0.0,0.0,0.0,0.0,0.0,0.0,2.4201,2.5317,2.6675,2.9087,3.1613,3.4167,3.6686,3.8112,3.7878,3.7327,3.637,3.4814,3.1272,2.9293,2.931,2.9265,3.003,3.1733,3.4217,3.6327,3.8041,3.933,4.083,4.2652,4.3993,4.4347,4.3906,4.5917,4.5918,4.4276,4.4364,4.1795,3.7434,3.4741,3.3245,3.2317,0.0,0.0,0.0,0.0,0.0,0.0,0.0,0.0,0.0,0.0,0.0,0.0,0.0,0.0,0.0,0.0,0.0,0.0,0.0,0.0,0.0,0.0,0.0,0.0,0.0,0.0,0.0,0.0,0.0,0.0,0.0,0.0,0.0,3.0,3.1293,3.272,3.391,3.4667,3.4848,3.4182,3.5876,3.6962,3.6962,3.881,4.0202,4.0837,4.0867,4.117,4.1842,4.2501,4.2978,4.3311,4.3983,4.4435,4.4671,4.4671,4.4332,4.3685,4.3685,4.331,4.2694,4.2663,4.2663,4.2633,4.2633,4.2602,4.2325,3.9647,3.8699,3.8829,3.8829,3.8897,3.8964,0.0,0.0,0.0,0.0,0.0,0.0,0.0,2.5022,2.6134,2.7448,3.0162,3.2774,3.4898,3.6768,3.8105,3.8564,3.6286,3.4799,3.4772,3.0874,2.8922,2.963,3.0919,3.2161,3.3283,3.5669,3.767,3.9213,3.998,4.1182,4.2928,4.3228,4.3635,4.409,4.4958,4.576,4.6332,4.5875,4.4993,4.3439,3.8901,3.6088,3.4382,0.0,0.0,0.0,0.0,0.0,0.0,0.0,0.0,0.0,0.0,0.0,0.0,0.0,0.0,0.0,0.0,0.0,0.0,0.0,0.0,0.0,0.0,0.0,0.0,0.0,0.0,0.0,0.0,0.0,0.0,0.0,0.0,3.2188,3.2101,3.4516,3.6609,3.7425,3.8387,3.9099,3.9424,3.9208,3.8993,3.8993,3.9791,4.0392,4.0658,4.0699,4.0826,4.1163,4.184,4.2643,4.3648,4.4336,4.5112,4.6049,4.6049,4.5926,4.5772,4.5772,4.5403,4.4756,4.4264,4.3771,4.3316,4.2786,4.2602,4.2479,4.1247,4.0447,3.9958,3.9498,3.9038,3.8639,0.0,0.0,0.0,0.0,0.0,0.0,0.0,2.5879,2.7166,2.793,3.1156,3.3918,3.5316,3.7139,3.8165,3.7964,3.5654,3.3953,3.3397,3.0762,2.9629,3.0446,3.2164,3.3895,3.5579,3.7464,3.9193,4.0779,4.1279,4.2158,4.3369,4.3762,4.4087,4.4361,4.5418,4.6154,4.6578,4.6869,4.6992,4.6711,4.3448,4.0786,3.8446,3.5487,3.3694,3.2467,3.073,3.0248,3.0156,2.8081,0.0,0.0,0.0,0.0,0.0,0.0,0.0,0.0,0.0,0.0,0.0,0.0,0.0,0.0,0.0,0.0,0.0,0.0,0.0,0.0,0.0,0.0,0.0,0.0,3.2668,3.4594,3.5787,3.7236,3.8429,3.9073,3.9923,4.0625,4.104,4.0674,4.0435,4.0435,4.0895,4.1231,4.129,4.129,4.1377,4.1464,4.2128,4.2879,4.3745,4.4385,4.514,4.5938,4.5938,4.5789,4.552,4.5478,4.515,0.0,4.4619,4.4273,4.3706,4.4105,4.411,0.0,0.0,0.0,0.0,0.0,3.9955,3.937,0.0,0.0,0.0,0.0,0.0,0.0,0.0,2.6599,2.8175,2.8323,3.1953,3.4723,3.5336,3.7253,3.7945,3.6634,3.5114,3.3331,3.1342,3.0959,3.106,3.1637,3.3345,3.5504,3.814,3.9371,4.0777,4.2489,4.2911,4.3489,4.4066,4.4991,4.5166,4.4752,4.6343,4.6597,4.5891,4.7263,4.7856,4.7815,4.7489,4.5798,4.317,4.0127,3.8811,3.8212,3.525,3.3455,3.2288,3.0851,0.0,0.0,0.0,0.0,0.0,0.0,0.0,0.0,0.0,0.0,0.0,0.0,0.0,0.0,0.0,0.0,0.0,0.0,0.0,0.0,0.0,0.0,0.0,0.0,3.5062,3.7025,3.9719,3.9461,3.927,3.9914,4.047,4.0773,4.0773,4.113,4.1363,4.1307,4.1907,4.2258,4.2203,0.0,0.0,0.0,0.0,4.324,4.3624,4.416,4.4627,4.5012,4.5012,4.4681,4.4093,4.4122,4.3792,4.3323,4.4323,4.4435,4.4045,4.5607,4.5935,4.5287,4.3519,4.2786,4.2633,4.1955,4.1309,0.0,0.0,0.0,0.0,0.0,0.0,0.0,0.0,2.6634,2.7925,2.8966,3.2017,3.41,3.4054,3.5175,3.5967,3.6102,3.3292,3.1138,3.0145,3.1235,3.2365,3.337,3.5429,3.7437,3.932,4.093,4.2484,4.4141,4.4242,4.4819,4.5799,4.5102,4.5001,4.5296,4.5214,4.5649,4.6523,4.6835,4.7051,4.7184,4.7353,4.6356,4.4736,4.306,4.1414,3.9858,3.8691,3.8452,3.8332,3.5938,3.5013,3.4445,3.2107,0.0,0.0,0.0,0.0,0.0,0.0,0.0,0.0,0.0,0.0,0.0,0.0,0.0,0.0,0.0,0.0,0.0,0.0,0.0,0.0,3.3437,3.6161,3.8515,3.9574,4.0759,4.1925,4.3,4.3086,4.3039,4.3039,4.2445,4.1819,4.1342,4.1845,4.2027,4.1501,4.1474,0.0,4.1474,4.1607,4.2145,4.3196,4.3353,4.3901,4.5012,0.0,0.0,4.4795,4.4795,4.4829,4.4924,4.4629,4.4516,4.4588,4.4352,4.4371,4.4449,4.4274,4.3864,4.3347,4.2663,4.2325,4.2202,0.0,0.0,0.0,0.0,0.0,0.0,0.0,2.6971,2.8353,2.9337,3.1872,3.3406,3.2893,3.3407,3.3508,3.281,3.05,2.9122,2.9327,3.116,3.2968,3.465,3.7111,3.922,4.0877,4.2534,4.394,4.5045,4.5347,4.5748,4.6301,4.5723,4.5623,4.5899,4.5598,4.5859,4.654,4.6948,4.7147,4.7298,4.7855,4.7403,4.6183,4.4442,4.2981,4.1736,4.0712,4.0163,3.971,3.8005,3.6851,3.5783,3.4065,3.1789,2.9459,0.0,0.0,0.0,0.0,0.0,0.0,0.0,0.0,0.0,0.0,0.0,0.0,0.0,0.0,2.951,0.0,0.0,3.4214,3.6279,3.8266,4.0174,4.1951,4.2657,4.2938,4.2685,4.282,4.2838,4.2545,4.2332,4.2107,4.1768,4.2004,4.2107,4.1768,4.1455,4.1324,4.1324,4.1324,4.1597,4.2159,4.2208,4.255,4.315,4.315,4.315,4.315,4.315,4.3197,4.3341,4.3622,4.3913,4.4276,4.4768,4.5368,4.5849,4.5309,4.4517,4.3562,4.3217,4.2879,4.2602,0.0,0.0,0.0,0.0,0.0,0.0,0.0,0.0,2.8487,2.9295,3.1424,3.2584,3.1751,3.1974,3.1331,2.9302,2.8265,2.8127,2.9176,3.1311,3.3545,3.5708,3.8542,4.0727,4.2338,4.384,4.497,4.5648,4.61,4.6301,4.6301,4.6301,4.6301,4.6301,4.6301,4.6301,4.6336,4.6959,4.7195,4.7153,4.7913,4.7593,4.6414,4.4661,4.3851,4.349,4.2183,4.0867,3.9662,3.9033,3.7597,3.593,3.5419,3.3567,3.1314,2.9536,2.8011,0.0,0.0,0.0,0.0,0.0,0.0,0.0,0.0,0.0,2.8586,2.9536,3.0555,3.1719,3.3247,3.4659,3.6488,3.9311,4.0514,4.1899,4.4278,4.4382,4.3572,4.1847,4.2239,4.2526,4.2186,4.2474,4.2605,4.2552,4.2552,4.2499,4.2343,4.1899,4.1638,4.1638,4.1533,4.1481,4.1481,4.1376,4.1324,4.1324,4.1324,4.1324,4.1324,4.1324,4.1324,4.1448,4.2501,4.316,4.3497,4.4859,4.6003,4.6656,4.5677,4.4616,4.3738,4.3765,4.3433,4.3002,0.0,0.0,0.0,0.0,0.0,0.0,0.0,0.0,0.0,2.8547,3.0464,3.1364,3.0566,3.0955,3.0325,2.8016,2.8637,2.9523,3.0371,3.2491,3.47,3.691,3.9672,4.1706,4.2861,4.4041,4.5146,4.6225,4.6276,4.6301,4.6301,4.6301,4.6301,4.6301,4.6301,4.6301,4.6301,4.6405,4.6162,4.5742,4.6076,4.5252,4.3826,4.3325,4.3919,4.4799,4.3582,4.2052,4.0576,4.0449,3.9211,3.7625,3.7489,3.6028,3.4029,3.219,0.0,2.8029,2.7293,2.7125,2.7164,2.7157,2.768,2.8856,0.0,0.0,3.1928,3.4084,3.4999,3.5652,3.6384,3.8292,3.986,4.0252,4.2108,4.3598,4.3912,4.48,4.4774,4.3049,4.3781,4.4617,4.5088,4.4722,4.4225,4.3782,4.3729,4.3467,4.2944,4.2866,4.284,4.284,4.2343,4.2133,4.2133,4.1559,4.1324,4.1324,4.1324,4.1324,4.1324,4.1324,4.1398,4.1696,4.2289,4.2604,4.2641,4.254,4.299,4.3799,4.3994,4.4098,4.4158,4.4396,4.4456,4.4394,0.0,0.0,0.0,0.0,0.0,0.0,0.0,0.0,0.0,0.0,2.8816,2.951,2.8693,2.838,2.7627,2.631,2.7189,2.8543,3.0261,3.2664,3.5168,3.7848,4.0106,4.1856,4.2961,4.4066,4.502,4.5824,4.615,4.615,4.5849,4.615,4.6301,4.6301,4.6301,4.6301,4.6301,4.6301,4.5999,4.5497,4.559,4.4756,4.333,4.2525,4.1956,4.1331,3.9853,3.847,0.0,0.0,3.6236,3.5521,3.6155,3.4834,3.2836,3.1782,3.0025,0.0,2.8088,2.8516,0.0,0.0,2.998,3.1731,3.2934,3.3796,3.4685,3.6018,3.7011,3.7795,3.8397,3.9834,4.1272,0.0,4.352,4.4671,4.5297,4.5218,4.4853,4.4121,4.3859,4.3702,4.3624,4.399,4.4121,4.3939,4.3912,4.3781,4.352,4.3206,4.3023,4.3023,4.2788,4.2657,4.2657,4.2108,4.1794,4.1794,4.1481,4.1324,4.1324,4.1324,4.1374,4.1498,4.2311,4.2722,4.2861,4.311,4.3794,4.4734,4.4683,4.5024,4.5534,4.5287,4.4949,4.461,0.0,0.0,0.0,0.0,0.0,0.0,0.0,0.0,0.0,0.0,0.0,2.8166,2.7709,2.6796,2.6014,2.555,2.6149,2.7606,3.0113,3.2474,3.5041,3.7872,3.9929,4.1367,4.2283,4.3388,4.4292,4.502,4.5271,4.5271,4.502,4.5422,4.5623,4.5623,4.5949,4.6075,4.6075,4.6075,4.5773,4.5246,4.507,4.4029,4.2486,4.1372,3.9474,3.7351,3.6308,3.5079,0.0,0.0,3.2656,3.2449,3.3439,3.271,3.1446,3.1029,3.0048,2.91,2.8908,0.0,0.0,3.0581,3.2515,3.4607,3.492,3.594,3.709,3.8004,3.871,3.9364,3.9965,4.101,0.0,4.365,4.4643,4.5483,4.595,4.5558,4.4853,4.3938,4.3337,4.2735,4.2004,4.3101,4.3938,4.4095,4.4121,4.4121,4.4121,4.3729,4.3493,4.3493,4.3337,4.3258,4.3258,4.2683,4.2396,4.2396,4.1821,4.1559,4.1533,4.1402,4.1324,4.1348,4.2137,4.2598,4.2738,4.3249,4.3976,4.4818,4.5124,4.558,4.599,4.6098,4.5588,4.4856,0.0,0.0,0.0,0.0,0.0,0.0,0.0,0.0,0.0,0.0,0.0,0.0,0.0,0.0,2.6416,2.6283,2.6246,2.741,3.0215,3.2046,3.4152,3.6649,3.8921,4.026,4.0576,4.1681,4.276,4.384,4.3338,4.3338,4.384,4.3865,4.389,4.3915,4.502,4.5522,4.5522,4.5522,4.5171,4.4593,4.4066,4.2534,4.0475,3.9422,3.6933,3.4111,3.4587,0.0,0.0,0.0,2.9402,2.9052,2.9608,3.0209,0.0,3.0684,3.0809,0.0,0.0,0.0,3.3483,3.3456,3.5208,3.7194,3.8292,3.8579,3.9128,4.0827,4.0749,4.054,4.1167,4.2186,4.318,4.3781,4.5297,4.6055,4.4983,4.5741,4.5192,4.1821,4.2369,4.2579,0.0,4.2866,4.4095,4.467,4.4696,4.4696,4.4696,4.4696,4.467,4.467,4.4121,4.3833,4.3833,4.3284,4.2997,4.2997,4.2422,4.2185,4.2159,4.1559,4.1324,4.1324,4.1597,4.1746,4.1746,4.2065,4.2186,4.2404,4.4553,4.5001,4.4719,4.6758,4.6696,4.5464,0.0,0.0,0.0,0.0,0.0,0.0,0.0,0.0,0.0,0.0,0.0,0.0,0.0,0.0,0.0,0.0,0.0,2.7397,2.8832,3.1612,3.3688,3.4727,3.7568,3.8865,3.8316,4.0107,4.1054,4.1078,4.163,4.1806,4.163,4.2007,4.2103,4.2208,4.2936,4.3344,4.3369,4.3664,4.3087,4.1856,4.1304,3.9747,3.7588,3.573,3.3646,3.1486,0.0,0.0,0.0,0.0,0.0,0.0,2.8055,0.0,0.0,2.9119,0.0,0.0,0.0,0.0,3.5547,3.6698,3.8135,3.9573,4.0749,4.101,4.1167,4.1768,4.0488,3.9337,3.9547,4.0226,4.1063,4.203,4.3964,4.5349,4.5349,4.5323,4.446,4.216,4.2213,0.0,0.0,0.0,0.0,4.4095,4.4173,4.433,4.4642,4.4668,4.4668,4.4668,4.4539,4.4434,4.4434,4.3885,4.3598,4.3572,4.2682,4.1977,4.1611,4.1402,4.1324,4.1324,4.1398,4.1398,4.1448,4.1696,4.2577,4.3862,4.4794,4.5812,4.683,4.728,4.714,4.6557,0.0,0.0,0.0,0.0,0.0,0.0,0.0,0.0,0.0,0.0,0.0,0.0,0.0,0.0,0.0,0.0,0.0,0.0,2.784,3.0152,3.1839,3.258,3.4749,3.5755,3.5271,3.6527,3.716,3.701,3.7939,3.8316,3.8265,3.902,3.9473,3.9699,4.0455,4.0961,4.1137,4.126,4.0253,3.8491,3.7937,3.6229,3.3872,3.2215,3.0557,0.0,0.0,0.0,0.0,0.0,0.0,0.0,0.0,0.0,0.0,0.0,0.0,0.0,0.0,3.5893,3.7632,3.9351,4.0546,4.1481,4.2107,4.2211,4.2054,4.1376,3.9886,3.8579,3.8161,3.8423,3.9128,4.0488,4.2108,4.3572,4.4511,4.4199,4.3337,4.2004,4.1873,0.0,0.0,0.0,0.0,4.3834,4.3912,4.4121,4.4696,4.4668,4.4668,4.4668,4.4668,4.4668,4.4668,4.4356,4.3964,4.3572,4.2814,4.2056,4.1324,4.1324,4.1324,4.1324,4.1324,4.1324,4.1324,4.1498,4.2333,4.3673,4.4627,4.584,4.7116,4.7574,4.7753,4.7569,0.0,0.0,0.0,0.0,0.0,0.0,0.0,0.0,0.0,0.0,0.0,0.0,0.0,0.0,0.0,0.0,0.0,0.0,2.7073,2.7869,2.8878,3.0221,3.0874,3.1299,3.1458,3.1403,3.1584,3.2014,3.2541,3.3222,3.39,3.499,3.5775,3.6286,3.7374,3.8159,3.8664,3.8108,3.664,3.4705,3.4103,3.2196,2.9553,2.8976,0.0,0.0,0.0,0.0,0.0,0.0,0.0,0.0,0.0,0.0,0.0,0.0,0.0,3.3709,3.6402,3.8225,3.9734,4.1388,4.245,4.2919,4.2422,4.2213,4.1638,3.9965,3.9024,3.8161,0.0,0.0,3.7534,3.9233,4.0122,4.1193,4.2866,4.2657,4.2108,0.0,0.0,0.0,0.0,0.0,0.0,4.3755,0.0,4.4095,4.4696,4.4668,4.4668,4.4668,4.4668,4.4668,4.4668,4.4668,4.4147,4.3023,4.3023,4.2422,4.1324,4.1324,4.1324,4.1324,4.1324,4.1324,4.1324,4.1324,4.1448,4.1967,4.4069,4.5132,4.566,4.7776,4.8521,4.8378,0.0,0.0,0.0,0.0,0.0,0.0,0.0,0.0,0.0,0.0,0.0,0.0,0.0,0.0,0.0,0.0,0.0,0.0,2.5282,2.6827,2.763,2.7314,2.9956,3.0503,2.8534,3.0139,3.0401,2.9303,2.9429,2.9618,2.9808,3.0087,3.0275,3.0335,3.1095,3.1473,3.1568,3.1969,3.1221,2.9856,0.0,2.8749,2.7278,0.0,0.0,0.0,0.0,0.0,0.0,0.0,0.0,0.0,0.0,0.0,3.0385,0.0,0.0,3.6045,3.7619,3.9675,4.1671,4.2954,4.3607,4.3955,4.3799,4.2606,4.1167,3.9886,3.7403,3.5286,0.0,0.0,0.0,3.8109,4.0958,0.0,4.4173,4.4565,0.0,4.3337,0.0,4.2997,4.2422,4.25,0.0,0.0,4.3467,4.3676,4.467,4.4668,4.4668,4.4668,4.4668,4.4668,4.4668,4.4668,4.4147,4.3023,4.3023,4.2422,4.1324,4.1324,4.1324,4.1324,4.1324,4.1324,4.1324,4.1324,4.1769,4.2625,4.3368,4.4563,4.6018,4.6973,4.7807,4.8366,0.0,0.0,0.0,0.0,0.0,0.0,0.0,0.0,0.0,0.0,0.0,0.0,0.0,0.0,0.0,0.0,0.0,0.0,0.0,2.5226,2.5729,2.5508,2.7114,2.7393,2.6131,2.6813,2.6734,2.5807,2.6092,2.6381,2.6712,2.7196,2.7524,2.7687,2.8031,2.82,2.817,2.8318,0.0,0.0,0.0,0.0,0.0,0.0,0.0,0.0,0.0,0.0,0.0,0.0,0.0,2.7454,2.8775,3.0507,3.2416,3.4324,0.0,3.8034,3.96,4.1326,4.2965,4.4087,4.4164,4.3663,4.294,4.1593,3.9939,3.7769,3.5574,0.0,0.0,0.0,0.0,0.0,0.0,0.0,4.3389,4.3885,4.4042,0.0,4.4095,0.0,4.3101,4.3415,4.3807,0.0,4.3572,4.3781,4.4615,4.4668,4.4668,4.4668,4.4668,4.4668,4.4668,4.4487,4.3912,4.3023,4.2762,4.2186,4.1324,4.1324,4.1324,4.1324,0.0,4.1324,4.1324,4.1324,4.1967,4.306,4.3606,4.484,4.6403,4.7219,4.7849,4.8343,0.0,0.0,0.0,0.0,0.0,0.0,0.0,0.0,0.0,0.0,0.0,0.0,0.0,0.0,0.0,0.0,0.0,0.0,0.0,0.0,0.0,2.4455,2.3944,2.388,2.4378,0.0,0.0,0.0,0.0,0.0,2.4253,2.5242,2.5962,2.6386,2.6386,2.6395,0.0,0.0,0.0,0.0,0.0,0.0,0.0,0.0,0.0,0.0,0.0,0.0,0.0,0.0,2.7896,2.8825,3.0507,3.2566,3.4751,3.6885,3.8416,3.9799,4.1861,4.3033,4.3908,4.482,4.4198,4.2911,4.1157,3.9959,3.8272,3.4972,0.0,3.3012,3.1902,0.0,3.3483,3.5234,0.0,3.9337,4.2108,4.263,4.2997,4.399,4.4539,4.4434,4.3363,4.4147,4.4565,4.4121,4.4121,4.433,4.4772,4.4853,4.4853,4.4853,4.472,4.4668,4.4668,4.4225,4.3702,4.3127,4.2631,4.2056,4.1428,4.1428,4.1402,4.1324,0.0,0.0,4.1498,4.1498,4.2213,4.3444,4.4331,4.5434,4.6623,4.7734,4.8229,4.8355,0.0,0.0,0.0,0.0,0.0,0.0,0.0,0.0,0.0,0.0,2.5001,2.442,0.0,0.0,0.0,0.0,0.0,0.0,0.0,0.0,0.0,0.0,2.4194,2.42,0.0,0.0,0.0,0.0,0.0,0.0,2.2349,0.0,0.0,0.0,0.0,0.0,0.0,0.0,0.0,0.0,0.0,0.0,0.0,0.0,0.0,0.0,0.0,0.0,0.0,0.0,2.9227,3.111,3.2792,3.4851,3.696,3.8743,4.0427,4.1911,4.3162,4.4324,4.5028,4.4752,4.4055,4.2914,4.0952,3.8711,0.0,0.0,0.0,3.1902,3.1261,3.2751,0.0,3.641,0.0,0.0,0.0,0.0,4.5114,0.0,0.0,0.0,0.0,0.0,0.0,0.0,0.0,0.0,4.5454,4.5425,4.5425,4.5425,4.4929,4.4668,4.4668,4.4617,4.4304,4.3729,4.3624,4.3075,4.2004,4.2004,4.1768,4.1324,0.0,0.0,4.255,4.255,4.3177,4.4172,4.4702,4.557,4.6579,4.7146,4.7861,4.8521,0.0,0.0,0.0,0.0,0.0,0.0,0.0,2.6556,2.6385,2.6383,2.5783,2.5093,2.4307,2.4224,0.0,0.0,0.0,0.0,0.0,0.0,0.0,0.0,0.0,0.0,0.0,0.0,0.0,0.0,0.0,0.0,0.0,0.0,0.0,0.0,0.0,0.0,0.0,0.0,0.0,0.0,0.0,0.0,0.0,0.0,0.0,0.0,0.0,0.0,0.0,0.0,2.9403,3.1838,3.4374,3.6307,3.799,3.9973,4.1304,4.2514,4.384,4.4618,4.5045,4.507,4.3588,4.1557,3.9497,0.0,0.0,0.0,0.0,3.1313,3.1026,0.0,0.0,0.0,0.0,0.0,0.0,0.0,0.0,0.0,0.0,0.0,0.0,0.0,0.0,0.0,0.0,0.0,4.6081,4.5794,4.548,4.5111,4.4824,4.4668,4.4668,4.4434,4.4147,4.3912,4.3572,4.3154,4.2605,4.2342,4.2004,4.1742,0.0,0.0,4.2065,4.255,4.3436,4.4517,4.5298,4.6241,4.7306,4.7649,4.8061,4.8469,0.0,0.0,0.0,0.0,0.0,0.0,0.0,2.6691,2.6691,2.6691,2.6419,2.572,2.4338,2.4373,2.4284,0.0,0.0,0.0,0.0,0.0,0.0,0.0,0.0,0.0,0.0,0.0,0.0,0.0,0.0,0.0,0.0,0.0,0.0,0.0,0.0,0.0,0.0,0.0,0.0,0.0,0.0,0.0,0.0,0.0,0.0,0.0,0.0,0.0,0.0,0.0,2.8987,3.1301,3.469,3.6857,3.8542,4.03,4.1605,4.2841,4.4091,4.4777,4.5079,4.5095,4.2932,4.021,3.8095,3.5583,0.0,0.0,3.0973,3.0973,3.0973,0.0,3.296,0.0,0.0,0.0,0.0,0.0,0.0,0.0,0.0,0.0,0.0,0.0,0.0,0.0,0.0,0.0,0.0,4.6003,4.5454,4.5114,4.4853,4.4668,4.4668,4.4278,4.4042,4.4042,4.3598,4.3258,4.2997,4.2552,4.2213,4.1951,0.0,0.0,0.0,4.2722,4.3815,4.5041,4.6107,4.7176,4.8091,4.8301,4.8355,4.8385,0.0,0.0,0.0,0.0,0.0,0.0,0.0,2.6691,2.6691,2.6691,2.6674,2.6084,2.4619,2.4322,2.4204,0.0,0.0,0.0,0.0,0.0,0.0,0.0,0.0,0.0,0.0,0.0,0.0,0.0,0.0,0.0,0.0,0.0,0.0,0.0,0.0,0.0,0.0,0.0,0.0,0.0,0.0,0.0,0.0,0.0,0.0,0.0,0.0,0.0,0.0,0.0,0.0,2.9164,3.2525,3.5995,3.8894,3.9044,0.0,0.0,4.384,4.5229,4.6155,4.4375,4.2128,3.9702,3.7581,0.0,0.0,3.1159,3.0973,3.0973,3.0973,3.1496,3.2607,0.0,0.0,3.7508,0.0,0.0,0.0,0.0,0.0,0.0,0.0,0.0,0.0,0.0,0.0,0.0,0.0,4.6156,4.5846,4.629,4.5271,4.4668,4.4668,4.467,4.4643,4.4643,4.4591,4.4016,4.3023,4.2971,4.2369,4.1402,0.0,0.0,0.0,4.3748,4.4886,4.6107,4.7349,4.8007,4.8301,4.851,4.8563,4.8563,0.0,0.0,0.0,0.0,0.0,0.0,2.6691,2.6691,2.6691,2.6691,2.6691,2.6488,2.5895,2.4946,2.41,0.0,0.0,0.0,0.0,0.0,0.0,0.0,0.0,0.0,0.0,0.0,0.0,0.0,0.0,0.0,0.0,0.0,0.0,0.0,0.0,0.0,0.0,0.0,0.0,0.0,0.0,0.0,0.0,0.0,0.0,0.0,0.0,0.0,0.0,0.0,0.0,0.0,2.9277,3.2138,0.0,0.0,3.9521,4.1279,4.3263,4.4911,4.5674,4.437,4.1695,3.8968,3.718,0.0,0.0,3.1081,3.0973,3.0973,3.0973,3.1182,3.1967,3.3953,3.4136,0.0,0.0,0.0,0.0,0.0,0.0,0.0,0.0,0.0,0.0,0.0,0.0,0.0,0.0,4.6447,4.5741,4.595,4.5166,4.4668,4.4668,4.4668,4.4668,4.4668,4.4668,4.4304,4.352,4.318,4.2579,4.1871,0.0,0.0,0.0,4.4284,4.5298,4.5631,4.7306,4.8218,4.848,4.8563,4.8604,4.8604,0.0,0.0,0.0,0.0,0.0,2.6639,2.6182,2.6487,2.669,2.642,2.6386,2.642,2.6387,2.5049,2.386,2.3048,0.0,0.0,0.0,0.0,0.0,0.0,0.0,0.0,0.0,0.0,0.0,0.0,0.0,0.0,0.0,0.0,0.0,0.0,0.0,0.0,0.0,0.0,0.0,0.0,0.0,0.0,0.0,0.0,0.0,0.0,0.0,0.0,0.0,0.0,0.0,0.0,0.0,0.0,0.0,0.0,3.7513,3.9371,4.1706,4.3809,4.5009,4.3897,4.1145,3.838,0.0,0.0,3.1048,3.1003,3.0973,3.0973,3.0973,3.1261,3.1993,3.3561,3.377,3.4868,0.0,0.0,0.0,0.0,0.0,0.0,0.0,0.0,0.0,0.0,0.0,0.0,0.0,4.6369,4.5715,4.5872,4.514,4.4668,4.4668,4.4668,4.4668,4.4668,4.4565,4.4173,4.3598,4.3023,4.2448,0.0,0.0,0.0,0.0,4.4748,4.5705,4.5631,4.7392,4.8301,4.8604,4.8604,4.8604,4.8604,0.0,0.0,0.0,0.0,0.0,0.0,2.4963,2.6002,2.6702,2.5823,2.5705,2.5689,2.5609,2.4289,2.341,2.3376,0.0,0.0,0.0,0.0,0.0,0.0,0.0,0.0,0.0,0.0,0.0,0.0,0.0,0.0,0.0,0.0,0.0,0.0,0.0,0.0,0.0,0.0,0.0,0.0,0.0,0.0,0.0,0.0,0.0,0.0,0.0,0.0,0.0,0.0,0.0,0.0,0.0,0.0,0.0,0.0,3.5403,3.8919,3.8969,4.1785,4.4326,4.2654,4.0287,3.8028,0.0,0.0,3.0773,3.0962,3.0973,3.0973,3.0973,3.1914,3.3064,3.4214,3.5338,0.0,0.0,0.0,0.0,0.0,0.0,0.0,0.0,0.0,0.0,0.0,0.0,0.0,0.0,0.0,4.5872,4.6447,4.5349,4.4668,4.4668,4.4668,4.4668,4.4668,4.4147,4.3572,4.3023,4.2448,0.0,0.0,0.0,0.0,0.0,4.5178,4.6241,4.6623,4.7849,4.8427,4.8604,4.8604,4.8604,4.8604,0.0,0.0,0.0,0.0,0.0,0.0,0.0,2.51,2.5338,2.5035,2.5035,2.5004,2.4927,2.406,2.3435,2.3391,0.0,0.0,0.0,0.0,0.0,0.0,0.0,0.0,0.0,0.0,2.4172,2.416,2.416,2.4088,0.0,0.0,0.0,0.0,0.0,0.0,0.0,0.0,0.0,0.0,0.0,0.0,0.0,0.0,0.0,0.0,0.0,0.0,0.0,0.0,0.0,0.0,0.0,0.0,0.0,0.0,0.0,0.0,3.6784,3.8741,4.0058,3.8965,3.722,3.5499,3.4623,0.0,3.0773,3.0962,3.0973,3.0973,3.0973,3.1287,3.215,3.4084,3.4711,0.0,0.0,0.0,0.0,0.0,0.0,0.0,0.0,0.0,0.0,0.0,0.0,0.0,0.0,0.0,4.5715,4.5898,4.514,4.4668,4.4668,4.4668,4.4668,4.4668,4.4147,4.3781,4.3572,4.2656,0.0,0.0,0.0,0.0,0.0,4.5958,4.6872,4.6623,4.7849,4.8427,4.8604,4.8604,4.8604,4.8604,0.0,0.0,0.0,0.0,0.0,0.0,0.0,2.4452,2.4712,2.4374,2.434,2.4398,2.4596,2.3726,2.3201,2.3435,0.0,0.0,0.0,0.0,0.0,0.0,0.0,0.0,0.0,2.4453,2.4224,2.4451,2.4317,2.4193,2.4109,2.4088,0.0,0.0,0.0,0.0,0.0,0.0,0.0,0.0,0.0,0.0,2.203,0.0,0.0,0.0,0.0,0.0,0.0,0.0,0.0,0.0,0.0,0.0,0.0,0.0,0.0,0.0,0.0,3.621,3.718,3.6836,3.5608,0.0,0.0,0.0,3.0849,3.0999,3.0973,3.0973,3.0973,3.1339,3.2176,3.3822,3.4633,0.0,0.0,0.0,0.0,0.0,0.0,0.0,0.0,0.0,0.0,0.0,0.0,0.0,0.0,0.0,4.5532,4.5297,4.4931,4.4668,4.4668,4.4668,4.4668,4.4668,4.4147,4.3755,4.352,0.0,0.0,0.0,0.0,0.0,0.0,4.6565,4.7465,4.7176,4.8061,4.848,4.8604,4.8604,4.8604,4.8604,0.0,0.0,0.0,0.0,0.0,0.0,0.0,0.0,2.4563,2.3721,2.3618,2.385,2.4466,2.332,2.276,2.3357,0.0,0.0,0.0,0.0,0.0,0.0,0.0,0.0,0.0,2.4347,2.413,2.482,2.4523,2.4379,2.4379,2.4357,2.4315,2.4172,0.0,0.0,0.0,0.0,0.0,0.0,0.0,0.0,0.0,0.0,0.0,0.0,0.0,0.0,0.0,0.0,0.0,0.0,0.0,0.0,0.0,0.0,0.0,0.0,0.0,0.0,0.0,0.0,0.0,0.0,0.0,0.0,0.0,3.0973,3.0973,3.0999,3.1026,3.1914,3.2855,3.3587,0.0,0.0,0.0,0.0,0.0,0.0,0.0,0.0,0.0,0.0,0.0,0.0,0.0,0.0,0.0,0.0,0.0,4.4748,4.4668,4.4668,4.4668,4.4696,4.467,4.467,4.4042,4.3493,4.2997,0.0,0.0,0.0,0.0,0.0,0.0,4.7003,4.8007,4.8049,4.8438,4.8604,4.8604,4.8604,4.8604,4.8604,0.0,0.0,0.0,0.0,0.0,0.0,0.0,0.0,0.0,0.0,2.293,2.2972,2.3096,2.2788,2.2597,0.0,0.0,0.0,0.0,0.0,0.0,0.0,0.0,0.0,0.0,2.3948,2.3891,2.4067,2.473,2.5066,2.5066,2.5619,2.5312,2.4276,2.4019,2.3599,2.3058,0.0,0.0,0.0,0.0,0.0,0.0,0.0,0.0,0.0,2.2349,2.3055,0.0,0.0,0.0,0.0,0.0,0.0,0.0,0.0,2.9437,0.0,3.0868,0.0,3.1268,3.1822,3.1902,3.1757,0.0,0.0,0.0,0.0,0.0,0.0,0.0,0.0,0.0,0.0,0.0,0.0,0.0,0.0,0.0,0.0,0.0,0.0,0.0,0.0,0.0,0.0,0.0,0.0,0.0,0.0,0.0,4.4748,4.4668,4.4668,4.4668,4.4278,4.4068,4.4068,4.3101,4.2735,4.2997,0.0,0.0,0.0,0.0,0.0,4.5598,4.7292,4.8007,4.8049,4.8438,4.8604,4.8604,4.8604,4.8604,4.8604,0.0,0.0,0.0,0.0,0.0,0.0,0.0,0.0,0.0,0.0,0.0,0.0,0.0,0.0,0.0,0.0,0.0,0.0,0.0,0.0,0.0,0.0,0.0,2.4275,2.4176,2.3787,2.3761,2.4079,2.4584,2.5004,2.5281,2.5395,2.5179,2.4727,2.4367,2.3926,2.3466,2.3695,2.376,0.0,0.0,0.0,0.0,0.0,0.0,0.0,2.2296,2.2949,0.0,2.5589,2.5907,2.6013,0.0,0.0,0.0,0.0,2.9622,2.9413,3.0427,3.0077,2.9647,3.0577,3.0924,3.1052,3.1313,0.0,0.0,0.0,0.0,0.0,0.0,0.0,0.0,0.0,0.0,0.0,0.0,0.0,0.0,0.0,0.0,0.0,0.0,0.0,0.0,0.0,0.0,0.0,0.0,0.0,0.0,0.0,4.4668,4.4591,4.433,4.4016,4.3729,4.3467,4.2866,4.2579,4.2605,0.0,0.0,0.0,0.0,0.0,4.6226,4.7593,4.8133,4.8175,4.848,4.8604,4.8604,4.8604,4.8604,4.8604,0.0,0.0,0.0,0.0,0.0,0.0,0.0,0.0,0.0,0.0,0.0,0.0,0.0,0.0,0.0,0.0,0.0,0.0,0.0,0.0,0.0,0.0,0.0,2.3909,2.4397,2.3768,2.3729,2.4319,2.4509,2.4933,2.5465,2.5118,2.5118,2.5435,2.4602,2.4284,2.4334,2.4113,2.3975,0.0,0.0,0.0,0.0,0.0,0.0,0.0,0.0,0.0,0.0,2.6367,2.6303,2.5656,2.874,0.0,0.0,0.0,0.0,0.0,3.0658,3.0125,2.9564,3.0701,3.0973,3.1104,3.1562,0.0,0.0,0.0,0.0,0.0,0.0,0.0,0.0,0.0,0.0,0.0,0.0,0.0,0.0,0.0,0.0,0.0,0.0,0.0,0.0,0.0,0.0,0.0,0.0,0.0,0.0,0.0,4.4591,4.4278,4.3677,4.3702,4.3441,4.2892,4.2788,4.2603,4.2284,4.2308,0.0,0.0,0.0,0.0,4.6798,4.7892,4.8301,4.8343,4.8521,4.8604,4.8604,4.8604,4.8604,4.8604,0.0,0.0,0.0,0.0,0.0,0.0,0.0,0.0,0.0,0.0,0.0,0.0,0.0,0.0,0.0,0.0,0.0,0.0,0.0,0.0,0.0,2.2863,2.3881,2.428,2.4016,2.4154,2.4118,2.3891,2.5361,2.6134,2.6257,2.7303,2.7211,2.6164,2.485,2.4572,2.5028,2.4985,2.4854,2.4664,0.0,0.0,0.0,0.0,0.0,0.0,0.0,0.0,0.0,2.5584,2.6524,2.7326,2.89,0.0,0.0,0.0,0.0,0.0,3.1211,3.1197,3.0727,3.0947,3.0973,3.0999,3.1104,0.0,0.0,0.0,0.0,0.0,0.0,0.0,0.0,0.0,0.0,0.0,0.0,0.0,0.0,0.0,0.0,0.0,0.0,0.0,0.0,0.0,0.0,0.0,0.0,0.0,0.0,0.0,0.0,4.3493,4.2499,4.2918,4.2866,4.2291,4.1821,4.1957,4.2685,4.29,4.3965,0.0,0.0,4.6798,4.7807,4.8175,4.8301,4.8343,4.8521,4.8604,4.8604,4.8604,4.8604,4.8604,0.0,0.0,0.0,0.0,0.0,0.0,0.0,0.0,0.0,0.0,0.0,0.0,0.0,0.0,0.0,0.0,0.0,0.0,0.0,0.0,0.0,2.4311,2.4323,2.4007,2.3307,2.418,2.4537,2.4343,2.5722,2.6587,2.6934,2.718,2.6565,2.5241,2.4964,2.4983,2.5277,2.5601,2.5665,2.553,0.0,0.0,0.0,0.0,0.0,0.0,0.0,0.0,0.0,0.0,2.6863,2.7445,2.9536,0.0,0.0,0.0,0.0,0.0,3.1156,3.1418,3.1444,3.1444,3.1679,3.1836,3.1522,0.0,0.0,0.0,0.0,0.0,0.0,0.0,0.0,0.0,0.0,0.0,0.0,0.0,0.0,0.0,0.0,0.0,0.0,0.0,0.0,0.0,0.0,0.0,0.0,0.0,0.0,0.0,0.0,0.0,4.2238,4.2422,4.2265,4.1716,4.1428,4.1547,4.2016,4.2765,4.3994,0.0,0.0,4.7276,4.8343,4.8396,4.8438,4.8438,4.8563,4.8604,4.8604,4.8604,4.8604,4.8604,0.0,0.0,0.0,0.0,0.0,0.0,0.0,0.0,0.0,0.0,0.0,0.0,0.0,0.0,0.0,0.0,0.0,0.0,0.0,0.0,2.3955,2.5555,2.4708,2.405,2.3687,2.4582,2.5089,2.5175,2.6143,2.6903,2.7396,2.6819,2.5949,2.481,2.5333,2.5619,2.5804,2.629,2.6436,2.6367,0.0,0.0,0.0,0.0,0.0,0.0,0.0,0.0,0.0,0.0,0.0,0.0,0.0,0.0,0.0,3.0843,3.0895,3.0843,3.1104,3.1601,3.2006,3.2006,0.0,0.0,0.0,0.0,0.0,0.0,0.0,0.0,0.0,0.0,0.0,0.0,0.0,0.0,0.0,0.0,0.0,0.0,0.0,0.0,0.0,0.0,0.0,0.0,0.0,0.0,0.0,0.0,0.0,0.0,0.0,0.0,4.1977,4.1977,4.1742,4.1324,4.1324,4.1398,4.167,4.2958,4.4181,4.545,4.6681,4.7776,4.8604,4.8604,4.8604,4.8604,4.8604,4.8604,4.8604,4.8604,4.8604,4.8604,0.0,0.0,0.0,0.0,0.0,0.0,0.0,0.0,0.0,0.0,0.0,0.0,0.0,0.0,0.0,0.0,0.0,0.0,0.0,0.0,2.4829,2.4769,2.4697,2.5169,2.6212,2.597,2.5978,2.6271,2.6988,2.7334,2.7396,2.7334,2.6934,2.6226,2.6287,2.6657,2.7242,2.7303,2.7163,2.7005,2.7595,0.0,0.0,0.0,0.0,0.0,0.0,0.0,0.0,0.0,0.0,0.0,0.0,0.0,3.0921,3.0973,3.0607,3.0388,3.1458,3.2202,3.2646,3.2646,3.2672,0.0,3.3979,3.4188,0.0,3.5626,0.0,0.0,0.0,0.0,0.0,0.0,0.0,0.0,0.0,0.0,0.0,0.0,0.0,0.0,0.0,0.0,0.0,0.0,0.0,0.0,0.0,0.0,0.0,0.0,0.0,0.0,4.1402,4.1376,4.135,4.1324,4.1324,4.1769,4.2744,4.421,4.545,4.6491,4.7861,4.8521,4.8604,4.8604,4.8604,4.8604,4.8604,4.8604,4.8604,4.8604,4.8604,4.8604,0.0,0.0,0.0,0.0,0.0,0.0,0.0,0.0,0.0,0.0,0.0,0.0,0.0,0.0,0.0,0.0,0.0,0.0,0.0,2.479,2.499,2.5055,2.4759,2.5061,2.6086,2.6177,2.6497,2.7026,2.7272,2.718,2.678,2.678,2.6649,2.6433,2.6842,2.7149,2.7426,2.7857,2.7915,2.7771,2.7923,2.7352,0.0,0.0,0.0,0.0,0.0,0.0,0.0,0.0,2.7968,2.9144,3.0294,3.0817,3.0973,3.0973,3.0843,3.0764,3.1182,3.2254,3.3064,3.2359,3.296,0.0,0.0,3.4685,3.5182,3.594,3.6959,0.0,0.0,0.0,0.0,0.0,0.0,0.0,0.0,0.0,0.0,0.0,0.0,0.0,0.0,0.0,0.0,0.0,0.0,0.0,0.0,0.0,0.0,0.0,0.0,0.0,0.0,4.1324,4.1324,4.1324,4.1324,4.1819,4.284,4.4321,4.5541,4.6579,4.7988,4.8604,4.8604,4.8604,4.8604,4.8604,4.8604,4.8604,4.8604,4.8604,4.8604,4.8604,0.0,0.0,0.0,0.0,0.0,0.0,0.0,0.0,0.0,0.0,0.0,0.0,0.0,0.0,0.0,0.0,0.0,0.0,2.5088,2.5081,2.5137,2.5427,2.4705,2.4798,2.5873,2.5982,2.638,2.7088,2.7303,2.7057,2.6433,2.6811,2.6903,2.6749,2.7426,2.7827,2.8042,2.8319,2.8553,2.8767,2.845,2.8228,0.0,0.0,0.0,0.0,0.0,0.0,0.0,0.0,2.8726,2.9719,3.0686,3.0973,3.0973,3.0973,3.0869,3.0712,3.0712,3.1862,3.2803,3.181,0.0,0.0,3.5391,3.5835,3.6541,3.7978,3.8945,0.0,0.0,0.0,0.0,0.0,0.0,0.0,0.0,0.0,0.0,0.0,0.0,0.0,0.0,0.0,0.0,0.0,0.0,0.0,0.0,0.0,0.0,0.0,0.0,0.0,0.0,4.1324,4.1324,4.1298,4.167,4.2088,4.2501,4.4303,4.5496,4.627,4.7904,4.8604,4.8604,4.8604,4.8604,4.8604,4.8604,4.8604,4.8604,4.8604,4.8604,4.8604,0.0,0.0,0.0,0.0,0.0,0.0,0.0,0.0,0.0,0.0,0.0,0.0,0.0,0.0,0.0,0.0,0.0,0.0,2.5411,2.533,2.541,2.5654,2.4543,2.4523,2.5873,2.5517,2.5672,2.6402,2.7057,2.7057,2.6464,2.7765,2.8042,2.7426,2.8134,2.8781,2.9341,2.8695,2.9066,3.0036,2.9301,2.8882,2.8634,0.0,0.0,0.0,0.0,0.0,0.0,0.0,2.9666,3.0205,3.0817,3.0973,3.0973,3.0973,3.0581,3.01,3.01,3.0936,3.1667,0.0,0.0,0.0,3.7508,3.7926,3.8893,4.2317,0.0,0.0,0.0,0.0,0.0,0.0,0.0,0.0,0.0,0.0,0.0,0.0,0.0,0.0,0.0,0.0,0.0,0.0,0.0,0.0,0.0,0.0,0.0,0.0,0.0,0.0,0.0,4.1324,4.1324,4.1324,4.255,4.262,4.1796,4.4284,4.5389,4.5524,4.7691,4.8604,4.8604,4.8604,4.8604,4.8604,4.8604,4.8604,4.8604,4.8604,4.8604,4.8604,0.0,0.0,0.0,0.0,0.0,0.0,0.0,0.0,0.0,0.0,0.0,0.0,0.0,0.0,0.0,0.0,0.0,0.0,2.4995,2.5403,2.5335,2.4604,2.4595,2.4669,2.4751,2.5099,2.5672,2.6402,2.7057,2.7303,2.7119,2.798,2.8288,2.8165,2.9279,2.9648,2.9377,2.9182,2.9478,3.0039,2.9402,2.9215,2.928,0.0,0.0,0.0,0.0,0.0,0.0,0.0,0.0,0.0,3.0921,3.0973,3.0973,3.0973,3.0869,3.0817,3.1197,3.1823,0.0,3.2751,0.0,0.0,0.0,3.8475,0.0,0.0,0.0,0.0,0.0,0.0,0.0,0.0,0.0,0.0,0.0,0.0,0.0,0.0,0.0,0.0,0.0,0.0,0.0,0.0,0.0,0.0,0.0,0.0,0.0,0.0,0.0,0.0,0.0,0.0,4.1424,4.1597,4.2164,4.2889,4.3815,4.5586,4.6769,4.7478,4.8271,4.8604,4.8604,4.8604,4.8604,4.8604,4.8604,4.8604,4.8604,4.8604,4.8604,4.8604,0.0,0.0,0.0,0.0,0.0,0.0,0.0,0.0,0.0,0.0,2.3612,2.421,0.0,0.0,0.0,0.0,0.0,0.0,0.0,2.5513,2.5458,2.4606,2.5185,2.5394,2.5149,2.5795,2.6349,2.678,2.718,2.7396,2.7426,2.8381,2.8812,2.8818,2.9925,3.0448,3.0545,2.9994,3.0361,3.1305,3.0237,3.0039,3.0335,0.0,0.0,0.0,0.0,0.0,0.0,0.0,0.0,0.0,3.0973,3.0973,3.0947,3.0712,3.0634,3.0686,3.079,3.1731,0.0,3.3143,3.4789,3.6881,3.8919,0.0,0.0,0.0,0.0,0.0,0.0,0.0,0.0,0.0,0.0,0.0,0.0,0.0,0.0,0.0,0.0,0.0,0.0,0.0,0.0,0.0,0.0,0.0,0.0,0.0,0.0,0.0,0.0,0.0,0.0,0.0,0.0,4.1696,4.2867,4.3909,4.4978,4.5929,4.6929,4.7892,4.8396,4.8604,4.8604,4.8604,4.8604,4.8604,4.8604,4.8604,4.8604,4.8604,4.8604,4.8604,0.0,0.0,0.0,0.0,0.0,0.0,0.0,0.0,0.0,0.0,2.4107,2.4853,0.0,0.0,0.0,0.0,0.0,0.0,0.0,0.0,2.5696,2.5324,2.601,2.6402,2.6402,2.7057,2.7426,2.7488,2.7488,2.7488,2.7519,2.8873,2.9408,2.9327,3.0268,3.1255,3.2158,3.0968,3.1542,3.3071,3.1496,3.115,3.1526,3.0751,0.0,0.0,0.0,0.0,0.0,0.0,0.0,0.0,3.0973,3.0973,3.0869,3.0335,3.0179,3.0074,2.9693,0.0,0.0,3.3012,3.5678,0.0,0.0,0.0,0.0,0.0,0.0,0.0,0.0,0.0,0.0,0.0,0.0,0.0,0.0,0.0,0.0,0.0,0.0,0.0,0.0,0.0,0.0,0.0,0.0,0.0,0.0,0.0,0.0,0.0,0.0,0.0,0.0,0.0,0.0,0.0,4.4144,4.5343,4.557,4.5913,4.6535,4.7392,4.8229,4.8604,4.8604,4.8604,4.8604,4.8604,4.8604,4.8604,4.8604,4.8604,4.8604,4.8604,0.0,0.0,0.0,0.0,0.0,0.0,0.0,0.0,0.0,0.0,0.0,0.0,0.0,0.0,0.0,0.0,0.0,0.0,0.0,0.0,2.5548,2.5462,2.6055,2.6402,2.6402,2.7057,2.7673,2.8196,2.8196,2.8196,2.8227,2.9556,2.9632,2.8737,3.1518,3.2034,3.0896,3.1654,3.2141,3.2354,3.1516,3.1431,3.179,3.1476,3.1282,0.0,0.0,0.0,0.0,0.0,0.0,0.0,3.0973,3.0973,3.0947,3.0843,3.0817,3.0973,0.0,3.2306,0.0,0.0,3.8344,4.0906,0.0,0.0,0.0,0.0,0.0,0.0,0.0,0.0,0.0,0.0,0.0,0.0,0.0,0.0,0.0,0.0,0.0,0.0,0.0,0.0,0.0,0.0,0.0,0.0,0.0,0.0,0.0,0.0,0.0,0.0,4.1324,4.1547,4.2186,0.0,4.3862,4.5115,4.6842,4.7649,4.8115,4.8313,4.8521,4.8604,4.8604,4.8604,4.8604,4.8604,4.8604,4.8604,4.8604,4.8604,4.8604,4.8604,0.0,0.0,0.0,0.0,0.0,0.0,0.0,0.0,0.0,0.0,0.0,0.0,0.0,0.0,0.0,0.0,0.0,0.0,0.0,0.0,2.6562,2.6848,2.7172,2.7365,2.7365,2.8011,2.8535,2.8873,2.9187,2.9341,2.9371,2.9733,2.9746,2.9507,3.1581,3.2079,3.1406,3.2072,3.2458,3.2597,3.1872,3.173,3.189,3.1669,3.1522,3.141,0.0,0.0,0.0,0.0,0.0,0.0,0.0,0.0,3.0921,3.066,3.0973,0.0,0.0,0.0,0.0,3.7534,0.0,0.0,0.0,0.0,0.0,0.0,0.0,0.0,0.0,0.0,0.0,0.0,0.0,0.0,0.0,0.0,0.0,0.0,0.0,0.0,0.0,0.0,0.0,0.0,0.0,0.0,0.0,0.0,0.0,0.0,0.0,0.0,4.1498,4.236,4.2897,4.323,4.4431,4.5815,4.7448,4.8243,4.8604,4.8604,4.8604,4.8604,4.8604,4.8604,4.8604,4.8604,4.8604,4.8604,4.8604,4.8604,4.8604,4.8604,0.0,0.0,0.0,0.0,0.0,0.0,0.0,0.0,0.0,0.0,0.0,0.0,0.0,0.0,0.0,0.0,0.0,0.0,0.0,0.0,0.0,2.8381,2.8504,2.8554,2.8578,2.9321,2.973,2.9711,3.03,3.0575,3.0559,2.991,2.9816,3.0213,3.1099,3.163,3.19,3.2195,3.2521,3.2821,3.2173,3.1963,3.1927,3.1706,0.0,0.0,0.0,0.0,0.0,0.0,0.0,0.0,0.0,0.0,3.0895,3.0388,0.0,0.0,0.0,0.0,3.6201,3.8815,4.0671,0.0,0.0,0.0,0.0,0.0,0.0,0.0,0.0,0.0,0.0,0.0,0.0,0.0,0.0,0.0,0.0,0.0,0.0,0.0,0.0,0.0,0.0,0.0,0.0,0.0,0.0,0.0,0.0,0.0,0.0,4.1644,4.1565,4.2992,4.3464,4.3034,4.5212,4.6709,4.7465,4.8019,4.8327,4.8419,4.8327,4.8266,4.8266,4.8389,4.845,4.845,4.8573,4.8604,4.8604,4.8604,4.8604,4.8604,0.0,0.0,0.0,0.0,0.0,0.0,0.0,0.0,0.0,0.0,2.4441,2.4138,0.0,0.0,0.0,0.0,0.0,0.0,0.0,0.0,0.0,2.8381,2.8965,2.9241,2.9182,3.046,3.1099,3.1036,3.1189,3.1278,3.1243,3.0625,2.9781,2.8843,3.0678,3.0908,2.9997,3.159,3.204,3.1591,3.2001,3.2146,3.2146,3.1927,0.0,0.0,0.0,0.0,0.0,0.0,0.0,0.0,0.0,0.0,0.0,0.0,0.0,0.0,0.0,0.0,3.7116,0.0,0.0,0.0,0.0,0.0,0.0,0.0,0.0,0.0,0.0,0.0,0.0,0.0,0.0,0.0,0.0,0.0,0.0,0.0,0.0,0.0,0.0,0.0,0.0,0.0,0.0,0.0,0.0,0.0,4.1324,4.1324,4.1547,0.0,4.0909,4.2316,4.3143,4.3442,4.553,4.6607,4.6726,4.6819,4.7188,4.7711,4.7127,4.688,4.6911,4.7496,4.7742,4.7804,4.8389,4.8604,4.8604,4.8604,4.8604,4.8604,0.0,0.0,0.0,0.0,0.0,0.0,0.0,0.0,0.0,0.0,0.0,2.4387,0.0,0.0,0.0,0.0,0.0,0.0,0.0,0.0,0.0,2.8349,2.8727,2.9032,2.9373,3.0658,3.1338,3.1312,3.1709,3.1526,3.0842,3.0924,3.0283,2.9108,3.035,3.0555,3.0072,3.161,3.209,3.1802,3.211,3.1929,3.155,0.0,0.0,0.0,0.0,0.0,0.0,0.0,0.0,0.0,0.0,0.0,0.0,0.0,0.0,0.0,3.3822,3.5286,3.6776,0.0,0.0,0.0,0.0,0.0,0.0,0.0,0.0,0.0,0.0,0.0,0.0,0.0,0.0,0.0,0.0,0.0,0.0,0.0,0.0,0.0,0.0,0.0,0.0,0.0,0.0,0.0,0.0,4.1324,4.1324,4.1324,4.138,0.0,4.102,4.2638,4.3864,4.4676,4.5227,4.568,4.6018,4.5649,4.6049,4.7034,4.6726,4.6603,4.6603,4.6911,4.725,4.7619,4.7927,4.8296,4.8604,4.8604,4.8604,4.8604,0.0,0.0,0.0,0.0,0.0,0.0,0.0,0.0,0.0,0.0,0.0,0.0,0.0,0.0,0.0,0.0,0.0,0.0,0.0,0.0,0.0,2.8379,2.8646,2.9117,2.9857,3.1133,3.1703,3.1521,3.2062,3.1663,3.0415,3.086,3.0531,2.9533,3.0109,3.051,3.0697,3.1599,3.1963,3.1965,3.1965,0.0,0.0,0.0,0.0,0.0,0.0,0.0,0.0,0.0,0.0,0.0,0.0,0.0,0.0,0.0,0.0,0.0,0.0,0.0,0.0,0.0,0.0,0.0,0.0,0.0,0.0,0.0,0.0,0.0,0.0,0.0,0.0,0.0,0.0,0.0,0.0,0.0,0.0,0.0,0.0,0.0,0.0,0.0,0.0,0.0,0.0,0.0,4.1089,4.1089,4.101,4.0979,4.0971,4.1036,4.116,4.2864,4.4292,4.5311,4.4856,4.4849,4.5311,4.4856,4.5126,4.608,4.608,4.608,4.608,4.6265,4.6634,4.7127,4.7281,4.7773,4.8358,4.8358,4.845,4.8604,0.0,0.0,0.0,0.0,0.0,0.0,0.0,0.0,0.0,0.0,0.0,0.0,0.0,2.5826,2.5764,2.6447,0.0,0.0,0.0,0.0,0.0,2.8422,2.9117,0.0,3.1058,3.2495,3.2823,3.2128,3.2319,3.17,3.0398,3.0426,3.0133,2.9535,3.0127,3.0724,3.126,0.0,0.0,3.1341,0.0,0.0,0.0,0.0,0.0,0.0,0.0,0.0,0.0,0.0,0.0,0.0,0.0,0.0,0.0,0.0,0.0,0.0,0.0,0.0,0.0,0.0,0.0,0.0,0.0,0.0,0.0,0.0,0.0,0.0,0.0,0.0,0.0,0.0,0.0,0.0,0.0,0.0,0.0,0.0,0.0,0.0,0.0,0.0,0.0,0.0,0.0,0.0,4.0488,4.0461,4.0297,3.9986,4.0198,4.058,4.1085,4.2602,4.3784,4.4671,4.4641,4.4641,4.4671,4.4641,4.4641,4.4702,4.4702,4.4702,4.4764,4.5372,4.5649,4.5741,4.6388,4.7065,4.765,4.765,4.805,4.8604,0.0,0.0,0.0,0.0,0.0,0.0,0.0,0.0,0.0,0.0,0.0,0.0,0.0,2.5771,2.6034,2.7117,2.6939,0.0,0.0,0.0,0.0,2.9574,2.9544,2.9896,3.0644,3.1169,3.144,3.1433,3.1093,3.0875,3.0778,3.0645,3.0831,3.1241,3.1042,3.1097,3.1314,3.1694,0.0,0.0,0.0,0.0,0.0,0.0,0.0,0.0,0.0,0.0,0.0,0.0,0.0,0.0,0.0,0.0,0.0,0.0,0.0,0.0,0.0,0.0,0.0,0.0,0.0,0.0,0.0,0.0,0.0,0.0,0.0,0.0,0.0,0.0,0.0,0.0,0.0,0.0,0.0,0.0,0.0,0.0,0.0,0.0,0.0,0.0,0.0,0.0,0.0,0.0,4.0435,4.0215,4.0283,4.0796,4.0832,4.1383,4.2502,4.307,4.3732,4.461,4.461,4.461,4.461,4.461,4.461,4.461,4.461,4.461,4.4641,4.4849,4.5187,4.5618,4.5865,4.6634,4.7558,4.7127,4.765,4.8543,0.0,0.0,0.0,0.0,0.0,0.0,0.0,0.0,0.0,0.0,0.0,0.0,0.0,0.0,2.6517,2.7117,2.7102,2.734,2.8118,2.7445,2.7769,2.9481,2.9393,2.9706,3.0454,3.0481,3.0635,3.0896,3.0127,3.0046,3.0601,3.0432,3.086,3.1703,3.1703,3.1811,0.0,0.0,0.0,3.2641,0.0,0.0,3.1739,0.0,0.0,0.0,0.0,0.0,0.0,0.0,0.0,0.0,0.0,0.0,0.0,0.0,0.0,0.0,0.0,0.0,0.0,0.0,0.0,0.0,0.0,0.0,0.0,0.0,0.0,0.0,0.0,0.0,0.0,0.0,0.0,0.0,0.0,0.0,0.0,0.0,0.0,0.0,0.0,0.0,0.0,0.0,0.0,0.0,3.986,3.9707,4.0047,4.0931,4.1549,4.2312,4.3299,4.3615,4.4004,4.461,4.461,4.461,4.461,4.461,4.461,4.461,4.461,4.461,4.461,4.461,4.4849,4.5249,4.5249,4.5926,4.688,4.6419,4.6973,4.7865,0.0,0.0,0.0,0.0,0.0,0.0,0.0,0.0,0.0,2.7245,0.0,0.0,0.0,0.0,0.0,2.6382,2.6347,2.6347,2.6374,2.6401,2.6934,2.8106,0.0,0.0,3.0663,3.0663,3.0663,3.069,2.9579,2.9278,2.9829,2.9829,3.0148,3.0796,3.1931,3.2898,3.3599,0.0,3.3317,3.3545,0.0,3.2562,3.3023,0.0,0.0,0.0,3.287,3.2671,0.0,0.0,0.0,0.0,0.0,0.0,0.0,0.0,0.0,0.0,0.0,0.0,0.0,0.0,0.0,0.0,0.0,0.0,0.0,0.0,0.0,0.0,0.0,0.0,0.0,0.0,0.0,0.0,0.0,0.0,0.0,0.0,0.0,0.0,0.0,0.0,0.0,0.0,0.0,3.9337,3.8783,3.9037,3.9572,4.0358,4.2316,4.3339,4.3339,4.4189,4.461,4.461,4.461,4.461,4.461,4.461,4.461,4.461,4.461,4.461,4.461,4.461,4.461,4.461,4.461,4.5003,4.5588,4.5557,4.5988,4.6603,0.0,0.0,0.0,0.0,0.0,0.0,0.0,0.0,0.0,0.0,0.0,0.0,2.7097,2.7209,2.7091,2.6776,2.7114,2.7597,2.7987,2.8444,2.9069,2.9944,3.013,3.037,3.069,3.0264,3.0193,3.0474,2.9733,2.9892,3.0871,3.0724,3.1114,3.1958,3.2999,3.3609,3.3754,3.2951,0.0,0.0,3.3181,3.2885,0.0,0.0,0.0,0.0,0.0,3.1988,0.0,0.0,3.2149,3.2685,0.0,0.0,0.0,0.0,0.0,0.0,3.3654,0.0,0.0,0.0,0.0,0.0,0.0,0.0,0.0,0.0,0.0,0.0,0.0,0.0,0.0,0.0,0.0,0.0,0.0,0.0,0.0,0.0,0.0,0.0,0.0,0.0,0.0,0.0,0.0,3.9149,3.9704,4.0951,4.1914,4.2467,4.3624,4.4236,4.4236,4.4496,4.461,4.461,4.461,4.461,4.461,4.461,4.461,4.461,4.461,4.461,4.461,4.461,4.461,4.461,4.461,4.5003,4.5526,4.5072,4.5588,4.6603,0.0,0.0,0.0,0.0,0.0,0.0,0.0,0.0,0.0,0.0,0.0,0.0,2.7576,2.7735,2.7829,2.79,2.8005,2.8294,2.8899,2.9267,2.968,3.0103,3.0306,3.0438,3.0438,3.0121,3.0049,3.0283,2.9941,3.0125,3.0819,3.1142,3.1637,3.2196,0.0,0.0,0.0,0.0,0.0,0.0,3.442,0.0,0.0,3.3872,3.3432,0.0,0.0,0.0,3.3196,3.2171,3.2379,0.0,0.0,0.0,0.0,0.0,0.0,0.0,0.0,0.0,0.0,0.0,0.0,0.0,0.0,3.458,0.0,0.0,0.0,0.0,0.0,0.0,0.0,0.0,0.0,0.0,0.0,0.0,0.0,0.0,0.0,0.0,0.0,0.0,0.0,0.0,3.8579,3.8852,3.9977,4.1298,4.2408,4.3269,4.412,4.4486,4.4209,4.4486,4.4486,4.4209,4.4486,4.461,4.461,4.461,4.461,4.461,4.461,4.461,4.461,4.461,4.461,4.461,4.461,4.4856,4.5126,4.4726,4.5064,4.5741,0.0,0.0,0.0,0.0,0.0,0.0,0.0,0.0,0.0,0.0,2.8146,2.8471,2.9381,2.9047,2.8934,2.9284,2.8839,2.8734,2.9284,2.9388,2.9379,2.9379,2.9928,3.0205,3.0205,3.0205,3.0205,3.0205,3.0205,3.0231,3.0309,3.1458,3.2032,3.2137,0.0,0.0,0.0,0.0,0.0,3.5584,3.5796,3.5907,0.0,0.0,3.4989,0.0,3.4419,3.4673,3.5022,3.3038,3.2657,0.0,0.0,0.0,0.0,0.0,3.2747,0.0,0.0,0.0,0.0,0.0,0.0,0.0,3.3418,3.368,3.3692,0.0,0.0,0.0,0.0,0.0,0.0,0.0,0.0,0.0,0.0,0.0,0.0,0.0,0.0,0.0,0.0,0.0,0.0,3.7821,3.7933,3.8585,4.0015,4.093,4.2012,4.3388,4.4136,4.4209,4.3624,4.4209,4.4209,4.3624,4.4302,4.461,4.461,4.461,4.461,4.461,4.461,4.461,4.461,4.461,4.461,4.461,4.461,4.461,4.461,4.461,4.461,4.4641,0.0,0.0,0.0,0.0,0.0,0.0,0.0,0.0,0.0,2.8294,2.8751,2.9118,2.9319,2.924,2.9214,2.931,2.9205,2.9179,2.931,2.9719,2.9918,2.9918,3.0529,3.0817,3.0817,3.0817,3.0817,3.0817,3.0817,3.1052,3.1484,3.2698,3.3483,3.3953,0.0,0.0,0.0,0.0,0.0,3.5372,3.5584,0.0,3.6018,3.5611,3.5068,3.4522,3.4391,3.4568,3.4747,0.0,3.366,3.3288,0.0,0.0,0.0,0.0,0.0,0.0,0.0,0.0,0.0,0.0,0.0,0.0,3.3948,3.405,3.4371,0.0,0.0,0.0,0.0,0.0,0.0,0.0,0.0,0.0,0.0,0.0,0.0,0.0,0.0,0.0,0.0,0.0,3.7717,3.722,3.8006,3.9345,4.1182,4.2152,4.315,4.4305,4.4011,4.3747,4.3593,4.3747,4.3747,4.3624,4.4302,4.461,4.461,4.461,4.461,4.461,4.461,4.461,4.461,4.461,4.461,4.461,4.461,4.461,4.461,4.461,4.461,4.4764,0.0,0.0,0.0,0.0,0.0,0.0,0.0,0.0,0.0,2.8839,2.9353,2.9823,3.0147,2.9876,0.0,0.0,0.0,0.0,0.0,3.0623,3.0831,3.0581,3.1392,3.1836,3.1836,3.2123,3.215,3.1836,3.2411,3.2411,3.185,3.3613,3.411,3.3613,3.5338,0.0,0.0,0.0,3.7273,3.7011,3.7101,0.0,3.6096,3.6254,3.6236,3.607,3.5469,3.5119,3.4931,3.4723,3.4764,0.0,0.0,3.3534,3.3921,0.0,3.2551,3.2123,0.0,0.0,0.0,3.2667,0.0,0.0,0.0,3.3225,3.3093,0.0,0.0,0.0,0.0,0.0,0.0,0.0,0.0,0.0,0.0,0.0,0.0,0.0,0.0,0.0,0.0,0.0,3.6192,3.628,3.7504,3.8796,3.9981,4.1591,4.2751,4.3479,4.3247,4.3094,4.3094,4.3094,4.3094,4.3094,4.3809,4.4302,4.461,4.461,4.461,4.461,4.461,4.461,4.461,4.461,4.461,4.461,4.461,4.461,4.461,4.461,4.461,4.4702,0.0,0.0,0.0,0.0,0.0,0.0,0.0,0.0,2.9158,2.9431,2.9991,3.0514,3.1066,0.0,0.0,0.0,0.0,0.0,0.0,0.0,3.1641,3.1339,3.2306,3.2803,3.2698,3.3378,3.3509,3.3012,3.3953,3.3744,3.2502,3.4528,3.4763,3.3587,0.0,0.0,0.0,0.0,0.0,3.8397,0.0,3.7926,3.6828,3.7194,3.7639,3.7926,3.6828,3.6175,3.5748,3.5252,0.0,3.6135,3.3608,3.39,0.0,0.0,0.0,0.0,0.0,0.0,0.0,0.0,0.0,3.3061,0.0,0.0,0.0,3.341,0.0,0.0,0.0,0.0,0.0,0.0,0.0,0.0,0.0,0.0,0.0,0.0,0.0,0.0,0.0,0.0,3.5205,3.6094,3.7152,3.8061,3.8823,4.0558,4.1837,4.2401,4.2395,4.2417,4.2417,4.2417,4.2479,4.2633,4.3248,4.3963,4.461,4.461,4.461,4.461,4.461,4.461,4.461,4.461,4.461,4.461,4.461,4.461,4.461,4.461,4.461,4.4641,2.7013,2.6879,0.0,0.0,0.0,0.0,0.0,0.0,0.0,2.9871,3.0701,0.0,0.0,0.0,0.0,0.0,0.0,0.0,3.4633,0.0,0.0,3.2489,3.3143,3.3247,3.2698,3.3744,3.4267,3.4214,3.4345,3.458,3.492,3.5652,3.6201,0.0,3.573,0.0,0.0,0.0,3.6593,0.0,3.8292,3.8919,0.0,3.8684,3.8553,3.8527,3.7926,3.7665,3.7429,0.0,3.6452,3.6614,0.0,3.4938,0.0,0.0,0.0,0.0,0.0,0.0,0.0,0.0,3.6091,0.0,0.0,0.0,3.6082,3.5641,0.0,0.0,0.0,0.0,0.0,0.0,0.0,0.0,0.0,0.0,0.0,0.0,0.0,0.0,0.0,0.0,0.0,3.8099,3.7718,3.8184,3.995,4.0234,4.1076,4.2548,4.2043,4.1709,4.1709,4.1709,4.2017,4.2633,4.3248,4.3963,4.461,4.461,4.461,4.461,4.461,4.461,4.461,4.461,4.461,4.461,4.461,4.461,4.461,4.461,4.461,4.4664,2.7147,2.722,0.0,0.0,0.0,0.0,0.0,0.0,0.0,3.0372,3.0907,0.0,0.0,0.0,0.0,0.0,0.0,3.2646,0.0,0.0,0.0,3.3195,3.4084,3.4476,3.4214,3.5338,3.5574,3.492,3.5574,3.5704,3.5312,3.6201,3.6567,3.6462,3.5992,0.0,3.6724,0.0,0.0,0.0,0.0,0.0,0.0,3.8579,3.824,3.8214,3.7978,3.79,3.7717,0.0,3.7069,0.0,0.0,0.0,0.0,0.0,0.0,0.0,0.0,0.0,0.0,0.0,0.0,0.0,0.0,0.0,3.458,0.0,0.0,0.0,0.0,0.0,0.0,0.0,0.0,0.0,0.0,0.0,0.0,0.0,0.0,0.0,0.0,0.0,0.0,0.0,0.0,3.7682,3.7806,3.9067,3.9889,4.0122,4.0266,4.057,4.097,4.0935,4.1524,4.2602,4.2879,4.3556,4.461,4.461,4.461,4.461,4.461,4.461,4.461,4.461,4.461,4.461,4.461,4.461,4.461,4.461,4.461,4.4641,2.7522,0.0,0.0,0.0,0.0,0.0,0.0,0.0,0.0,0.0,0.0,0.0,3.1423,3.1822,0.0,0.0,0.0,3.3292,0.0,0.0,3.3871,0.0,0.0,0.0,0.0,3.6488,3.6854,3.6018,3.6671,3.675,3.6253,3.6933,3.7194,3.7037,0.0,3.641,3.6488,0.0,0.0,3.7795,3.8762,3.9233,3.9259,3.8449,3.8031,3.79,3.79,3.79,3.7769,3.6907,3.7565,0.0,3.6105,0.0,0.0,0.0,0.0,0.0,3.5868,0.0,0.0,0.0,0.0,0.0,0.0,0.0,0.0,0.0,0.0,0.0,0.0,0.0,0.0,0.0,0.0,0.0,0.0,0.0,0.0,0.0,0.0,0.0,0.0,0.0,0.0,0.0,3.6995,0.0,3.6546,3.8061,3.8855,3.8646,3.9188,3.9797,4.0474,4.0505,4.1181,4.2602,4.2417,4.3125,4.4572,4.4425,4.4456,4.461,4.461,4.461,4.461,4.461,4.461,4.461,4.461,4.461,4.461,4.461,4.461,4.461,2.7895,2.7261,0.0,0.0,0.0,0.0,0.0,0.0,0.0,0.0,0.0,0.0,0.0,0.0,0.0,0.0,0.0,3.4244,3.6016,0.0,3.4483,0.0,0.0,3.7299,0.0,0.0,3.7848,3.7821,3.7273,3.756,3.8579,3.8109,3.8449,3.9416,3.7717,3.79,3.9364,3.7717,3.7978,3.9442,3.837,3.8266,3.8736,0.0,3.837,3.79,3.79,0.0,0.0,3.7874,3.7985,0.0,0.0,0.0,0.0,0.0,0.0,0.0,0.0,0.0,0.0,0.0,0.0,0.0,0.0,0.0,3.8121,0.0,0.0,0.0,0.0,0.0,0.0,0.0,0.0,0.0,0.0,0.0,0.0,0.0,0.0,0.0,0.0,0.0,0.0,0.0,3.8722,0.0,3.7517,3.7522,3.8137,3.9395,3.949,3.9797,4.0474,4.0505,4.1181,4.2602,4.1955,4.2663,4.4579,4.3932,4.3994,4.461,4.461,4.461,4.461,4.461,4.461,4.461,4.461,4.461,4.461,4.461,4.461,4.461,0.0,0.0,0.0,0.0,0.0,0.0,0.0,3.1476,0.0,0.0,0.0,0.0,0.0,0.0,3.6449,0.0,0.0,3.6057,3.6157,3.6282,0.0,0.0,0.0,3.7717,0.0,0.0,0.0,0.0,0.0,3.8919,3.9311,3.9128,3.9442,4.0069,0.0,3.7926,0.0,0.0,0.0,0.0,0.0,3.9128,3.9181,0.0,0.0,3.79,3.79,3.7639,0.0,3.8187,3.8469,3.8385,3.7534,3.7736,3.8044,3.7119,3.734,0.0,0.0,0.0,3.8493,3.9087,0.0,0.0,0.0,0.0,0.0,0.0,0.0,0.0,0.0,0.0,0.0,0.0,0.0,0.0,0.0,0.0,0.0,0.0,0.0,0.0,0.0,0.0,0.0,3.7161,3.757,3.7579,0.0,3.6846,3.7246,3.8169,3.8631,3.9152,3.9828,4.0259,4.0966,4.1955,4.2171,4.2848,4.3963,4.4178,4.4394,4.461,4.461,4.461,4.461,4.461,4.461,4.461,4.461,4.461,4.461,4.461,4.461,4.461,3.0011,0.0,0.0,0.0,0.0,0.0,0.0,0.0,0.0,0.0,3.5712,0.0,3.6391,0.0,3.792,0.0,3.7288,3.6896,3.5793,3.7025,0.0,3.5344,3.7758,0.0,0.0,0.0,0.0,0.0,0.0,3.9285,3.9285,3.952,3.9886,4.0357,0.0,3.8397,3.8214,0.0,3.8475,0.0,0.0,3.9886,0.0,0.0,3.7848,0.0,0.0,3.7874,3.7168,3.8318,3.8449,3.8004,3.7482,3.7821,3.8187,3.7037,3.7337,3.8076,3.805,3.805,0.0,0.0,3.844,0.0,0.0,0.0,0.0,0.0,0.0,0.0,0.0,0.0,0.0,0.0,0.0,0.0,0.0,0.0,0.0,0.0,0.0,0.0,0.0,0.0,3.939,3.6862,3.7511,3.7579,0.0,0.0,3.6815,3.7492,3.7923,3.86,3.9459,3.992,4.0751,4.1955,4.214,4.2848,4.3963,4.4178,4.4394,4.461,4.461,4.461,4.461,4.461,4.461,4.461,4.461,4.461,4.461,4.461,4.461,4.461,0.0,0.0,0.0,0.0,3.2206,0.0,0.0,0.0,3.4993,0.0,3.7811,3.9214,3.9893,3.9859,3.9648,3.9203,3.8192,0.0,3.5323,3.7895,0.0,0.0,3.8563,3.9446,3.5678,0.0,0.0,0.0,0.0,0.0,3.8841,3.9468,3.9991,4.0409,3.9939,0.0,3.8762,3.9416,3.9337,3.8893,3.9965,4.0435,4.0357,3.9259,0.0,3.8867,3.939,3.8501,3.7246,3.837,3.8004,3.7194,3.7769,3.7952,3.7717,3.6541,3.7037,3.7743,3.6593,3.7116,3.8024,3.8201,0.0,0.0,0.0,0.0,3.9104,0.0,0.0,0.0,0.0,0.0,0.0,0.0,0.0,0.0,0.0,0.0,0.0,0.0,0.0,0.0,0.0,4.1547,4.1021,3.7515,3.8591,0.0,0.0,0.0,0.0,3.7523,3.7554,3.82,3.9521,3.9521,4.057,4.254,4.1955,4.2663,4.4548,4.3932,4.4024,4.461,4.461,4.461,4.461,4.461,4.461,4.461,4.461,4.461,4.461,4.461,4.461,4.461,3.1383,3.2392,3.3099,0.0,3.2437,3.218,0.0,0.0,0.0,0.0,4.0083,4.1724,4.2235,4.2604,4.2163,4.0668,4.0255,0.0,0.0,0.0,0.0,3.7939,3.8787,3.9469,3.9734,3.9913,0.0,4.0903,0.0,0.0,4.0671,4.1246,4.1115,4.0435,0.0,0.0,3.8815,4.0252,4.054,3.9991,4.0305,4.0697,0.0,0.0,4.0357,3.9886,3.9181,3.8658,3.8397,3.9128,3.8893,3.8292,3.8449,3.8501,3.837,3.7665,3.8266,3.9102,3.8789,3.8945,3.9202,3.9412,3.9023,3.8602,0.0,0.0,0.0,0.0,0.0,0.0,0.0,0.0,0.0,0.0,0.0,0.0,0.0,0.0,0.0,0.0,0.0,0.0,0.0,4.0339,3.9699,3.8272,3.8069,0.0,0.0,0.0,0.0,3.8231,3.8262,3.8908,4.0228,4.0228,4.0816,4.1863,4.2202,4.2848,4.387,4.4209,4.4456,4.461,4.461,4.461,4.461,4.461,4.461,4.461,4.461,4.461,4.461,4.461,4.461,4.461,3.1975,0.0,0.0,3.3203,0.0,0.0,3.4009,0.0,0.0,3.9167,4.1197,0.0,4.2529,4.3512,4.3578,4.2092,4.1371,0.0,0.0,0.0,0.0,3.8583,3.8809,3.921,3.9722,3.9389,0.0,4.1036,0.0,0.0,4.1324,4.1638,4.1428,4.0853,0.0,4.1141,0.0,4.0252,4.0801,4.1141,4.0618,0.0,0.0,4.1324,4.1115,4.0697,3.9782,3.9128,3.8841,3.9677,3.939,3.8762,3.9024,3.9102,3.905,3.8736,3.9102,3.9599,3.9599,3.9599,3.9647,3.9716,3.9433,3.9118,3.9223,3.8886,3.8812,0.0,0.0,0.0,0.0,0.0,0.0,0.0,0.0,0.0,0.0,0.0,0.0,0.0,0.0,0.0,0.0,3.9613,3.8662,3.7707,0.0,0.0,0.0,0.0,0.0,0.0,3.8477,3.9152,3.9613,4.0539,4.1186,4.1617,4.2294,4.294,4.3624,4.4302,4.461,4.461,4.461,4.461,4.461,4.461,4.461,4.461,4.461,4.461,4.461,4.461,4.461,4.461,0.0,0.0,0.0,0.0,0.0,0.0,0.0,3.6957,0.0,4.0171,0.0,4.2726,4.2242,4.3709,4.4298,4.3337,0.0,4.0956,4.041,4.0056,3.93,3.7953,3.8901,3.9024,3.8166,3.8191,0.0,0.0,0.0,0.0,4.1324,4.1324,4.1272,0.0,0.0,0.0,0.0,3.9834,4.0435,0.0,4.0775,4.0775,4.1324,4.1324,4.1324,4.1246,4.0723,3.9886,3.9181,4.0095,3.9756,3.9024,3.9547,3.9703,3.9703,3.9625,3.973,3.9808,3.973,3.9782,3.9808,3.973,3.9703,3.9751,3.9886,3.9485,3.911,3.9342,3.9112,0.0,0.0,0.0,0.0,0.0,0.0,0.0,0.0,0.0,0.0,0.0,0.0,0.0,0.0,0.0,0.0,0.0,0.0,0.0,0.0,0.0,0.0,0.0,3.8477,0.0,3.9062,0.0,4.1648,4.1986,4.2417,4.3002,4.3747,4.4332,4.461,4.461,4.461,4.461,4.461,4.461,4.461,4.461,4.461,4.461,4.461,4.461,4.461,4.461,0.0,0.0,0.0,0.0,0.0,3.6955,3.8795,3.9252,3.9963,4.1407,4.3803,0.0,4.4819,4.4996,4.4801,4.3818,4.2769,0.0,0.0,0.0,0.0,4.0106,3.9655,3.9782,4.057,4.0645,4.1253,0.0,0.0,0.0,4.1324,4.1324,0.0,0.0,0.0,0.0,4.0383,3.9834,0.0,3.939,4.0122,4.0775,4.1324,4.1324,4.1324,4.1298,4.1193,4.1036,4.0801,4.0514,4.0278,4.0148,4.0252,4.0278,4.0174,3.973,4.0278,4.0906,4.0409,4.0644,4.0906,4.0409,4.0278,4.0148,3.9751,3.9202,3.8757,3.8804,3.8727,3.8514,3.8114,0.0,0.0,0.0,0.0,0.0,0.0,0.0,0.0,0.0,0.0,0.0,0.0,0.0,0.0,0.0,0.0,0.0,0.0,0.0,0.0,0.0,0.0,0.0,0.0,0.0,0.0,4.4048,4.3063,4.3248,4.4456,4.4579,4.461,4.461,4.461,4.461,4.461,4.461,4.461,4.461,4.461,4.461,4.461,4.461,4.461,4.461,0.0,0.0,0.0,0.0,0.0,0.0,0.0,4.0793,0.0,4.2223,4.3456,4.4306,4.4306,4.4906,4.517,4.4692,4.3731,4.2748,4.1808,4.0388,3.9594,3.969,3.9702,0.0,4.0697,4.0482,4.1364,4.3467,0.0,0.0,0.0,0.0,0.0,0.0,0.0,4.1533,0.0,0.0,0.0,3.9651,4.02,4.0775,4.1324,4.1324,4.1324,4.1324,4.1324,4.1324,4.1272,4.0984,4.088,4.088,4.088,4.088,4.0827,4.0566,4.088,4.1246,4.0958,4.1089,4.1246,4.0958,4.088,4.0723,4.0148,3.9808,3.9464,3.9143,3.9031,3.9149,3.9584,3.9032,0.0,0.0,0.0,0.0,0.0,0.0,0.0,0.0,0.0,0.0,0.0,0.0,0.0,0.0,0.0,0.0,0.0,0.0,0.0,0.0,0.0,0.0,0.0,0.0,0.0,4.3556,4.3248,4.3433,4.4086,4.4456,4.461,4.461,4.461,4.461,4.461,4.461,4.461,4.461,4.461,4.461,4.461,4.461,4.461,4.461,0.0,3.5707,0.0,0.0,3.7922,0.0,0.0,4.1855,4.2585,4.2876,4.3022,4.3197,4.3472,4.4513,4.5144,4.4859,4.4058,4.3141,4.218,4.0869,3.9733,3.8881,3.981,4.0341,4.0194,4.0127,4.1182,0.0,0.0,0.0,0.0,0.0,0.0,0.0,0.0,0.0,0.0,0.0,3.952,4.0252,4.0514,4.0906,4.1324,4.1324,4.1324,4.1324,4.1324,4.1324,4.1324,4.1324,4.1324,4.1324,4.1324,4.1324,4.1324,4.1324,4.1324,4.1324,4.1324,4.1324,4.1324,4.1324,4.1324,4.1193,4.0723,4.0563,4.0316,3.9641,3.9401,3.9582,4.043,4.0048,0.0,0.0,0.0,0.0,0.0,0.0,0.0,0.0,0.0,0.0,0.0,0.0,0.0,0.0,0.0,0.0,0.0,0.0,0.0,0.0,0.0,0.0,4.0601,0.0,4.3187,0.0,4.3501,4.3685,4.384,4.4363,4.461,4.461,4.461,4.461,4.461,4.461,4.461,4.461,4.461,4.461,4.461,4.461,4.461,4.461,0.0,0.0,0.0,0.0,0.0,0.0,0.0,4.2675,4.3504,4.3504,4.4163,4.4465,4.406,4.4494,4.4408,4.349,4.2879,4.2158,4.1197,4.0192,3.9384,3.8859,4.0611,4.1191,4.0226,4.1324,4.1797,0.0,0.0,0.0,0.0,0.0,0.0,0.0,0.0,0.0,0.0,3.9913,4.0043,3.9782,4.0801,4.1272,4.1324,4.1324,4.1324,4.1324,4.1324,4.1324,4.1324,4.1324,4.1324,4.1324,4.1324,4.1324,4.1324,4.1324,4.1324,4.1324,4.1324,4.1324,4.1324,4.1324,4.1324,4.1298,4.1246,4.0975,4.0592,3.9981,3.9375,3.9319,4.0389,3.9059,3.8478,0.0,0.0,0.0,0.0,0.0,0.0,0.0,0.0,0.0,0.0,0.0,0.0,0.0,0.0,0.0,0.0,0.0,0.0,0.0,0.0,4.1678,4.4079,4.2571,0.0,4.5311,4.4148,4.3932,4.4517,4.4579,4.461,4.461,4.461,4.461,4.461,4.461,4.461,4.461,4.461,4.461,4.461,4.461,4.461,4.461,0.0,0.0,0.0,0.0,0.0,0.0,0.0,4.2849,4.3304,4.3573,4.3919,4.4063,4.4121,4.455,4.458,4.4178,4.3589,4.2879,4.1918,4.0956,4.0449,4.045,4.1596,4.2282,4.2354,4.2954,4.3075,0.0,0.0,0.0,0.0,0.0,0.0,0.0,0.0,3.905,3.8736,3.9207,3.9468,3.9703,4.0853,4.1324,4.1324,4.1324,4.1324,4.1324,4.1324,4.1324,4.1324,4.1324,4.1324,4.1324,4.1324,4.1324,4.1324,4.1324,4.1324,4.1324,4.1324,4.1324,4.1324,4.1324,4.1324,4.1324,4.1324,4.1191,4.1048,4.0733,4.014,3.9699,3.9804,3.9554,3.9718,0.0,0.0,0.0,0.0,0.0,0.0,0.0,0.0,0.0,0.0,0.0,0.0,0.0,0.0,0.0,0.0,0.0,0.0,3.9459,0.0,4.0632,4.3371,4.2602,4.3125,4.501,4.4486,4.4363,4.461,4.461,4.461,4.461,4.461,4.461,4.461,4.461,4.461,4.461,4.461,4.461,4.461,4.461,4.461,4.461,4.0116,0.0,4.0613,0.0,4.1669,4.2,4.2973,4.3118,4.3242,4.3573,4.3615,4.378,4.4109,4.4388,4.4464,4.4249,4.3785,4.3032,4.207,4.124,4.0867,4.0932,4.1902,0.0,4.3226,4.3676,4.3755,4.3415,4.3546,0.0,0.0,0.0,0.0,0.0,3.8579,3.8632,3.8972,3.8972,3.9416,4.0174,4.0984,4.1324,4.1324,4.1324,4.1324,4.1324,4.1324,4.1324,4.1324,4.1324,4.1324,4.1324,4.1324,4.1324,4.1324,4.1324,4.1324,4.1324,4.1324,4.1324,4.1324,4.1324,4.1324,4.1324,4.1324,4.1374,4.1337,4.1106,4.0521,3.9907,3.9427,3.9984,4.0732,0.0,0.0,0.0,0.0,0.0,0.0,0.0,0.0,0.0,0.0,0.0,0.0,0.0,0.0,0.0,0.0,0.0,0.0,0.0,0.0,0.0,0.0,0.0,4.3464,4.461,4.461,4.461,4.461,4.461,4.461,4.461,4.461,4.461,4.461,4.461,4.461,4.461,4.461,4.461,4.461,4.461,4.461,4.461,4.1462,4.199,4.2518,4.3428,4.3573,4.3594,4.3594,4.3594,4.3594,4.3615,4.3615,4.3752,4.4061,4.4071,4.3885,4.3267,4.2726,4.2027,4.1087,4.0563,4.0126,0.0,0.0,4.228,4.187,4.3212,4.3363,4.2238,0.0,0.0,3.8762,0.0,0.0,3.9599,3.9599,3.9599,3.9599,3.9599,4.0252,4.1298,4.1298,4.1324,4.1324,4.1324,4.1324,4.1324,4.1324,4.1324,4.1324,4.1324,4.1324,4.1324,4.1324,4.1324,4.1324,4.1324,4.1324,4.1324,4.1324,4.1324,4.1324,4.1324,4.1324,4.1324,4.1324,4.1498,4.1501,4.0857,4.0253,3.968,3.9356,3.9984,4.0843,4.1477,0.0,0.0,0.0,0.0,0.0,0.0,0.0,0.0,0.0,0.0,0.0,0.0,0.0,0.0,0.0,0.0,0.0,3.949,4.0847,0.0,4.3562,4.3593,4.3932,4.461,4.461,4.461,4.461,4.461,4.461,4.461,4.461,4.461,4.461,4.461,4.461,4.461,4.461,4.461,4.461,4.461,4.461,4.461,4.2932,4.3077,4.3263,4.3553,4.3615,4.3615,4.3615,4.3615,4.3615,4.3615,4.3615,4.3856,4.4539,4.4092,4.3711,0.0,4.2732,4.2037,0.0,4.0913,4.0646,4.1429,4.2113,4.2864,4.3597,4.4185,4.4095,4.3389,0.0,0.0,0.0,3.9677,3.8972,3.7874,3.8658,3.9233,3.9651,4.0435,4.0984,4.1324,4.1324,4.1324,4.1324,4.1324,4.1324,4.1324,4.1324,4.1324,4.1324,4.1324,4.1324,4.1324,4.1324,4.1324,4.1324,4.1324,4.1324,4.1324,4.1324,4.1324,4.1324,4.1324,4.1324,4.1324,4.1324,4.1498,4.1535,4.0914,4.093,4.071,3.9833,4.0023,4.0669,4.1709,0.0,0.0,0.0,0.0,0.0,0.0,0.0,0.0,0.0,0.0,0.0,0.0,0.0,0.0,0.0,0.0,0.0,0.0,4.0597,0.0,4.3593,4.3593,4.3963,4.461,4.461,4.461,4.461,4.461,4.461,4.461,4.461,4.461,4.461,4.461,4.461,4.461,4.461,4.461,4.461,4.461,4.461,4.461,4.3615,4.3615,4.3615,4.3615,4.3615,4.3615,4.3615,4.3615,4.3615,4.3615,4.3615,4.3843,4.4504,4.3931,0.0,4.4258,4.3126,0.0,4.2158,4.0978,4.0647,4.1527,4.2395,4.3095,4.3752,0.0,0.0,4.4199,4.4121,4.3154,4.1376,4.0827,3.986,3.8658,3.9599,3.9965,3.9965,4.0906,4.1324,4.1324,4.1324,4.1324,4.1324,4.1324,4.1324,4.1324,4.1324,4.1324,4.1324,4.1324,4.1324,4.1324,4.1324,4.1324,4.1324,4.1324,4.1324,4.1324,4.1324,4.1324,4.1324,4.1324,4.1324,4.1324,4.1324,4.1398,4.139,4.0909,4.1068,4.0983,3.9991,4.0476,4.1143,4.1438,0.0,0.0,0.0,0.0,0.0,0.0,0.0,0.0,0.0,3.8323,0.0,0.0,0.0,0.0,0.0,0.0,0.0,4.0074,4.0628,0.0,4.3593,4.387,4.4209,4.461,4.461,4.461,4.461,4.461,4.461,4.461,4.461,4.461,4.461,4.461,4.461,4.461,4.461,4.461,4.461,4.461,4.461,4.461,4.3615,4.3615,0.0,0.0,4.3615,0.0,4.3615,4.3615,4.3615,4.3615,4.3615,4.3767,4.4201,4.3898,4.3901,4.4598,0.0,0.0,0.0,4.0804,4.0279,4.0279,4.2242,0.0,4.2544,4.4529,4.5297,4.4668,4.3624,4.3049,4.3023,4.2422,4.1873,4.1402,4.1925,4.1585,4.0618,4.1167,4.1376,4.1376,4.1298,4.1272,4.1298,4.1272,4.1272,4.1324,4.1324,4.1324,4.1324,4.1324,4.1324,4.1324,4.1324,4.1324,4.1324,4.1324,4.1324,4.1324,4.1324,4.1324,4.1324,4.1324,4.1324,4.1324,4.1324,4.1324,4.1217,4.0913,4.0905,4.068,4.0033,4.129,4.2038,4.0887,4.1095,4.0919,3.9421,0.0,0.0,0.0,0.0,0.0,0.0,4.0355,4.0447,0.0,0.0,0.0,0.0,0.0,4.0351,3.9582,4.1001,4.2325,4.3593,4.4271,4.461,4.461,4.461,4.461,4.461,4.461,4.461,4.461,4.461,4.461,4.461,4.461,4.461,4.461,4.461,4.461,4.461,4.461,4.461,4.461,0.0,0.0,4.3615,4.3615,4.3615,4.3615,4.3615,4.3615,4.3615,4.3615,4.3843,4.4201,4.4579,4.4849,4.4986,4.5121,4.3317,4.208,4.1721,4.0804,4.0279,4.0279,4.1831,4.2664,4.252,4.4066,4.4824,4.4668,4.4016,4.3441,4.3023,4.2422,4.2133,4.1977,4.2159,4.2265,4.2396,4.2082,4.1977,4.1899,4.0984,4.0906,4.1272,4.0801,4.0906,4.1324,4.1324,4.1324,4.1324,4.1324,4.1324,4.1324,4.1324,4.1324,4.1324,4.1324,4.1324,4.1324,4.1324,4.1324,4.1324,4.1324,4.1324,4.1324,4.1324,4.1324,4.1322,4.1462,4.1633,4.1639,4.1254,4.1303,4.1435,4.1495,4.04,3.9484,3.9447,0.0,0.0,0.0,3.9093,3.9613,3.9982,3.9982,4.0416,0.0,0.0,0.0,0.0,0.0,4.2078,4.032,4.2109,4.3285,4.3593,4.4271,4.461,4.461,4.461,4.461,4.461,4.461,4.461,4.461,4.461,4.461,4.461,4.461,4.461,4.461,4.461,4.461,4.461,4.461,4.461,4.461,4.3615,4.3615,4.3615,4.3615,4.3615,4.3615,4.3615,4.3615,4.3615,4.3615,4.3995,4.4352,4.473,4.5009,4.5057,4.4946,4.3502,4.2366,4.2049,4.0935,4.0279,4.0279,4.1679,4.2441,4.2484,4.3908,4.4638,4.4668,4.4408,4.4095,4.3807,4.3493,4.3049,4.2579,4.284,4.284,4.2631,4.2579,4.2552,4.25,4.1873,4.1638,4.1664,4.135,4.1246,4.1324,4.1324,4.1324,4.1324,4.1324,4.1324,4.1324,4.1324,4.1324,4.1272,4.0984,4.1089,4.1324,4.1324,4.1324,4.1324,4.1324,4.1115,4.0984,4.1246,4.1115,4.1034,4.1445,4.1746,4.1807,4.1512,4.1808,4.1936,4.1414,4.0353,3.9481,3.9112,3.8477,0.0,3.8477,3.9336,4.0105,4.0443,4.1032,4.1586,4.2109,0.0,0.0,4.2633,4.3525,4.3248,4.1489,4.2848,4.3747,4.4055,4.4695,4.5033,4.5033,4.5341,4.5495,4.5495,4.5187,4.5033,4.5033,4.4726,4.461,4.461,4.461,4.461,4.461,4.461,4.461,4.461,4.461,4.461,4.461,4.3615,4.3615,4.3615,4.3615,4.3615,4.3615,4.3615,4.3615,4.3615,4.3615,4.3932,4.4323,4.4623,4.4666,4.4676,4.4626,4.3731,4.2922,4.2354,4.1109,4.0345,4.0279,4.1524,4.2281,4.2484,4.3813,4.4571,4.4668,4.4668,4.4668,4.4668,4.4668,4.4199,4.331,4.3781,4.3467,4.2579,4.2971,4.3154,4.3127,4.2971,4.2657,4.2265,4.2108,4.1794,4.1428,4.135,4.1324,4.1324,4.1324,4.1324,4.1324,4.1324,4.1324,4.1219,4.0697,4.0906,4.1298,4.1219,4.1246,4.1324,4.1324,4.0932,4.0697,4.1193,4.0906,4.0697,4.1319,4.1597,4.1686,4.1474,4.2297,4.2596,4.1439,4.0688,3.9921,3.8967,0.0,3.82,3.8908,4.0262,4.1181,4.1397,4.291,4.3501,4.2417,4.3741,0.0,0.0,4.4172,4.4264,4.3248,4.3648,4.424,4.4918,4.5464,4.5741,4.5741,4.6326,4.6603,4.6573,4.5895,4.5588,4.5557,4.4918,4.461,4.461,4.461,4.461,4.461,4.461,4.461,4.461,4.461,4.461,4.4641,4.3615,4.3615,4.3615,4.3615,4.3615,4.3615,4.3615,4.3615,4.3615,4.3615,4.3886,4.4177,4.4177,4.4487,4.4598,4.4604,4.3731,4.2791,4.1874,4.124,4.0716,4.0301,4.1122,4.1823,4.2484,4.3922,4.4687,4.4668,4.4668,4.4668,4.4668,4.4668,4.4643,4.4407,4.4565,4.4487,4.4304,4.3912,4.3729,4.365,4.2683,4.2526,4.2788,4.1821,4.169,4.1977,4.1481,4.1324,4.1324,4.1324,4.1324,4.1324,4.1324,4.1324,4.1298,4.1219,4.1246,4.1219,4.0697,4.0932,4.1324,4.1324,4.1246,4.1193,4.1298,4.1246,4.1293,4.1868,4.2043,4.2164,4.2571,4.1984,4.1817,4.3041,4.0953,3.9409,0.0,0.0,4.029,4.1032,4.2786,4.4387,4.5526,4.5434,4.5434,4.5803,4.5033,4.4972,4.5926,4.5618,4.5588,4.5957,4.5526,4.5588,4.6265,4.6388,4.6449,4.6449,4.6542,4.6603,4.6573,4.5895,4.5588,4.5557,4.4918,4.461,4.461,4.461,4.461,4.461,4.461,4.461,4.461,4.461,4.461,4.4702,4.3615,4.3615,4.3615,4.3615,4.3408,4.3242,4.3242,4.3242,4.3242,4.3242,4.3961,4.4401,4.4093,4.4379,4.4495,4.4211,4.3578,4.2857,4.2136,4.1415,4.0782,4.0301,4.1302,4.2403,4.3576,4.4331,4.4668,4.4668,4.4668,4.4668,4.4668,4.4668,4.4668,4.4668,4.4668,4.4668,4.4642,4.4434,4.433,4.4278,4.3755,4.352,4.3389,4.2552,4.2213,4.2133,4.1533,4.1324,4.1324,4.1324,4.1324,4.1324,4.1324,4.1324,4.1246,4.0932,4.1063,4.1246,4.0984,4.1115,4.1324,4.1324,4.1063,4.0906,4.1246,4.1162,4.1179,4.1766,4.2092,4.2533,4.3328,4.2916,4.2833,4.3822,4.1911,0.0,0.0,4.1093,4.1494,4.254,4.411,4.5495,4.648,4.6326,4.6265,4.6573,4.6018,4.5926,4.6573,4.6296,4.6265,4.6573,4.6296,4.6296,4.6603,4.6973,4.7127,4.7127,4.7496,4.7681,4.765,4.6973,4.648,4.608,4.5403,4.491,4.461,4.461,4.4825,4.5095,4.4764,4.5033,4.5588,4.4887,4.5033,4.5688,4.3615,4.3615,4.3573,4.347,4.3159,4.2911,4.2986,4.3061,4.3102,4.3281,4.4102,4.4507,4.4092,4.4192,4.4102,4.3731,4.3381,4.2922,4.2289,4.1568,4.0956,4.0476,4.1688,4.3017,4.4477,4.4635,4.4668,4.4668,4.4668,4.4668,4.4668,4.4668,4.4668,4.4668,4.4668,4.4668,4.4668,4.4668,4.4668,4.4668,4.4668,4.446,4.4016,4.3441,4.2866,4.2291,4.1716,4.1428,4.1324,4.1324,4.1324,4.1324,4.1324,4.1324,4.1219,4.0749,4.0958,4.1324,4.1324,4.1324,4.1324,4.1324,4.0958,4.0749,4.1219,4.1107,4.1071,4.164,4.2092,4.2679,4.3539,4.3641,4.3762,4.4228,0.0,0.0,0.0,4.2294,4.2725,4.3932,4.5249,4.6326,4.7004,4.7065,4.7065,4.7065,4.6911,4.6911,4.7065,4.6911,4.6911,4.7065,4.6911,4.6911,4.7065,4.7588,4.7835,4.7835,4.8358,4.8604,4.8604,4.7927,4.7311,4.6788,4.6111,4.5434,4.4818,4.4818,4.5033,4.5311,4.4941,4.5434,4.6265,4.5372,4.5711,4.6581,4.3615,4.3615,4.347,4.3056,4.2952,4.2986,4.3434,4.3434,4.3751,4.4548,4.4335,4.4039,4.3996,4.3627,4.3272,4.3228,4.3206,4.2769,4.1808,4.1677,4.1437,4.0978,4.1916,4.3093,4.4477,4.4635,4.4668,4.4668,4.4668,4.4668,4.4668,4.4668,4.4668,4.4668,4.4668,4.4668,4.4668,4.4668,4.4668,4.4668,4.4668,4.4696,4.4591,4.4042,4.3467,4.2892,4.2317,4.1768,4.1324,4.1324,4.1324,4.1324,4.1324,4.1324,4.1298,4.1272,4.1272,4.1324,4.1324,4.1324,4.1324,4.1324,4.1272,4.1272,4.1298,4.1272,4.1421,4.1967,4.2065,4.2289,4.2873,4.3202,4.3709,4.4617,0.0,0.0,4.4281,4.4394,4.4671,4.5341,4.6634,4.7711,4.8389,4.845,4.845,4.845,4.7896,4.7804,4.8419,4.7865,4.7804,4.845,4.7865,4.7835,4.845,4.8512,4.8543,4.8543,4.8604,4.8604,4.8604,4.7927,4.7588,4.7496,4.6819,4.6142,4.5526,4.5526,4.5187,4.4733,4.528,4.5588,4.5741,4.6265,4.6511,4.6775,4.3615,4.3615,4.3553,4.3387,4.3118,4.3061,4.3434,4.3509,4.3721,4.4262,4.4451,4.4349,4.4047,4.3779,4.349,4.3206,4.3184,4.3225,4.3377,4.3106,4.2824,4.2511,4.3289,4.4186,4.514,4.4866,4.4668,4.4668,4.4668,4.4668,4.4668,4.4668,4.4668,4.4668,4.4668,4.4668,4.4668,4.4668,4.4668,4.4696,4.433,4.4408,4.4563,4.3702,4.3206,4.2944,4.2369,4.1794,4.1324,4.1324,4.1324,4.1324,4.1324,4.1324,4.1324,4.1324,4.1559,4.1768,4.1402,4.1324,4.1324,4.1324,4.1324,4.1324,4.1324,4.1398,4.1647,4.2043,4.2239,4.2631,4.3586,4.4037,4.4716,4.6049,0.0,4.5114,4.6287,4.608,4.608,4.6757,4.7681,4.8327,4.8604,4.8604,4.8604,4.8604,4.8358,4.8358,4.8604,4.8358,4.8358,4.8604,4.8358,4.8358,4.8604,4.8604,4.8604,4.8604,4.8604,4.8604,4.8604,4.8358,4.7989,4.7588,4.7342,4.685,4.6203,4.6203,4.6296,4.6449,4.6265,4.6726,4.7404,4.6819,4.7127,4.7875,4.3615,4.3615,4.3573,4.3428,4.3139,4.3061,4.3583,4.3657,4.3923,4.4592,4.4672,4.4517,4.4192,4.3872,4.3512,4.3206,4.3184,4.3501,4.4136,4.4365,4.4412,4.4317,4.4442,4.4935,4.5842,4.514,4.4668,4.4668,4.4668,4.4668,4.4668,4.4668,4.4668,4.4668,4.4668,4.4668,4.4668,4.4668,4.4617,4.4434,4.4225,4.4173,4.4147,4.3729,4.3232,4.2709,4.25,4.1951,4.135,4.1533,4.1455,4.135,4.1533,4.1455,4.135,4.1533,4.1742,4.1821,4.1428,4.1324,4.1324,4.1324,4.1324,4.1324,4.1324,4.1448,4.1647,4.2043,4.2239,4.2679,4.3681,4.4573,4.5419,4.6268,4.6323,4.6542,4.7465,4.7188,4.7157,4.7835,4.8327,4.8604,4.8604,4.8604,4.8604,4.8604,4.8604,4.8604,4.8604,4.8604,4.8604,4.8604,4.8604,4.8604,4.8604,4.8604,4.8604,4.8604,4.8604,4.8604,4.8604,4.8604,4.8358,4.7927,4.7927,4.7527,4.6911,4.6911,4.7065,4.725,4.7004,4.7496,4.8204,4.7496,4.7804,4.8584,4.3615,4.3615,4.347,4.3014,4.2932,4.3156,4.3955,4.4103,4.457,4.5862,4.5172,4.4582,4.4582,4.3752,4.3254,4.3254,4.3232,4.3346,4.37,4.5265,4.6225,4.6225,4.5112,4.5113,4.6473,4.5323,4.4668,4.4668,4.4668,4.4668,4.4668,4.4668,4.4668,4.4668,4.4668,4.4668,4.4668,4.4668,4.4408,4.3938,4.4487,4.4042,4.3154,4.4224,4.365,4.229,4.2814,4.2291,4.1402,4.1977,4.1794,4.1402,4.1977,4.1768,4.1428,4.2004,4.1768,4.1324,4.1324,4.1324,4.1324,4.1324,4.1324,4.1324,4.1324,4.1324,4.1448,4.1993,4.2115,4.2262,4.2776,4.4527,4.5576,4.4937,4.6401,4.7619,4.7619,4.7619,4.7865,4.8543,4.8604,4.8604,4.8604,4.8604,4.8604,4.8604,4.8604,4.8604,4.8604,4.8604,4.8604,4.8604,4.8604,4.8604,4.8604,4.8604,4.8604,4.8604,4.8604,4.8604,4.8604,4.8604,4.8604,4.8604,4.8604,4.8235,4.7619,4.7619,4.7219,4.6665,4.7342,4.7619,4.7681,4.8358,4.8604,4.8646,4.3615,4.3615,4.3573,4.3428,4.3408,4.3635,4.4442,4.4592,4.4934,4.5906,4.5172,4.4582,4.4582,4.4601,4.4686,4.4686,4.5226,4.5675,4.5939,4.6964,4.756,4.756,4.6501,4.587,4.5898,4.5114,4.4668,4.4668,4.4668,4.4668,4.4668,4.4668,4.4668,4.4668,4.4668,4.4668,4.4668,4.4668,4.4617,4.4408,4.3781,4.3807,4.4119,4.3702,4.3467,4.3389,4.3101,4.2552,4.1951,4.2159,4.1794,4.135,4.1507,4.1742,4.1873,4.1638,4.1742,4.1899,4.1899,4.1611,4.1324,4.1324,4.1324,4.1324,4.1324,4.1324,4.1398,4.1746,4.2479,4.3197,4.3539,4.5343,4.6739,4.6531,4.7516,4.8296,4.8296,4.8296,4.8389,4.8604,4.8604,4.8604,4.8604,4.8604,4.8604,4.8604,4.8604,4.8604,4.8604,4.8604,4.8604,4.8604,4.8604,4.8604,4.8604,4.8604,4.8604,4.8604,4.8604,4.8604,4.8604,4.8604,4.8604,4.8604,4.8604,4.8512,4.8296,4.8296,4.8204,4.8019,4.8235,4.8296,4.8327,4.8543,4.8604,4.8646,4.3615,4.347,4.3325,4.3325,4.3201,4.3439,4.4357,4.4528,4.4891,4.5906,4.5347,4.4801,4.4604,4.5177,4.5507,4.5301,4.6568,4.7336,4.7282,4.8086,4.8433,4.8198,4.731,4.6552,4.5976,4.5375,4.4903,4.4668,4.4668,4.4668,4.4668,4.4668,4.4668,4.4668,4.4668,4.4668,4.4668,4.4668,4.4407,4.4042,4.3807,4.3702,4.3702,4.3702,4.3624,4.3493,4.3154,4.2657,4.2238,4.2422,4.2265,4.1977,4.1977,4.1925,4.1847,4.1951,4.1899,4.1873,4.2159,4.1742,4.1376,4.1611,4.1481,4.1324,4.1324,4.1324,4.1398,4.1796,4.2431,4.315,4.3937,4.5479,4.6755,4.7146,4.7988,4.8604,4.8604,4.8604,4.8604,4.8604,4.8604,4.8604,4.8604,4.8604,4.8604,4.8604,4.8604,4.8604,4.8604,4.8604,4.8604,4.8604,4.8604,4.8604,4.8604,4.8604,4.8604,4.8604,4.8604,4.8604,4.8604,4.8604,4.8604,4.8604,4.8604,4.8604,4.8604,4.8604,4.8604,4.8604,4.8604,4.8604,4.8604,4.8604,4.8604,4.8646,4.3615,4.3242,4.2932,4.2973,4.2654,4.2763,4.3965,4.4177,4.4527,4.5753,4.5522,4.5136,4.4777,4.559,4.5989,4.5708,4.7588,4.8573,4.7957,4.861,4.8747,4.8198,4.7675,4.7153,4.6552,4.595,4.5294,4.4746,4.4748,4.4668,4.4668,4.4668,4.4668,4.4668,4.4668,4.4668,4.4668,4.4668,4.4121,4.3258,4.4251,4.3755,4.2552,4.4068,4.4042,4.3154,4.3049,4.2683,4.2368,4.2788,4.2944,4.2944,4.2997,4.2239,4.1533,4.2631,4.216,4.1455,4.2082,4.1821,4.1533,4.2211,4.1847,4.1376,4.1324,4.1324,4.1448,4.1993,4.2164,4.2674,4.4125,4.5235,4.6226,4.7146,4.803,4.8604,4.8604,4.8604,4.8604,4.8604,4.8604,4.8604,4.8604,4.8604,4.8604,4.8604,4.8604,4.8604,4.8604,4.8604,4.8604,4.8604,4.8604,4.8604,4.8604,4.8604,4.8604,4.8604,4.8604,4.8604,4.8604,4.8604,4.8604,4.8604,4.8604,4.8604,4.8604,4.8604,4.8604,4.8604,4.8604,4.8604,4.8604,4.8604,4.8604,4.8687,4.3615,4.3468,4.3485,4.3841,4.3531,4.3519,4.443,4.4568,4.4629,4.4859,4.4801,4.497,4.566,4.6557,4.7521,4.8518,4.924,4.9395,4.8851,4.8518,4.8329,4.8198,4.8068,4.7728,4.7153,4.6104,4.5558,4.5373,4.4903,4.4668,4.4668,4.4668,4.4668,4.4668,4.4668,4.4668,4.4668,4.4668,4.4591,4.4356,4.4147,4.4095,4.4173,4.4095,4.4173,4.4198,4.3337,4.2944,4.2788,4.2448,4.2343,4.2422,4.2866,4.2239,4.1455,4.216,4.1873,4.1533,4.2552,4.2422,4.2239,4.3311,4.2735,4.1873,4.1428,4.1324,4.1424,4.1696,4.255,4.3626,4.4932,4.6107,4.7189,4.8115,4.848,4.8604,4.8604,4.8604,4.8604,4.8604,4.8604,4.8604,4.8604,4.8604,4.8604,4.8604,4.8604,4.8604,4.8604,4.8604,4.8604,4.8604,4.8604,4.8604,4.8604,4.8604,4.8604,4.8604,4.8604,4.8604,4.8604,4.8604,4.8604,4.8604,4.8604,4.8604,4.8604,4.8604,4.8604,4.8604,4.8604,4.8604,4.8604,4.8604,4.8604,4.8769,4.3615,4.3544,4.3593,4.3823,4.3595,4.3653,4.4276,4.4392,4.4452,4.4554,4.4582,4.4958,4.5896,4.7079,4.846,5.0308,5.0416,5.008,4.9505,4.893,4.8486,4.8198,4.8172,4.8041,4.7754,4.6891,4.613,4.5581,4.5268,4.5009,4.4668,4.4668,4.4668,4.4668,4.4668,4.4668,4.4642,4.4434,4.4173,4.3912,4.3885,4.3885,4.3938,4.4199,4.4304,4.4199,4.3337,4.3023,4.2892,4.2056,4.2108,4.2579,4.2605,4.2213,4.1821,4.2396,4.216,4.1977,4.3127,4.2814,4.2499,4.3651,4.3049,4.2133,4.1794,4.1607,4.1547,4.1845,4.2479,4.3559,4.5252,4.6092,4.6973,4.8396,4.8604,4.8604,4.8604,4.8604,4.8604,4.8604,4.8604,4.8604,4.8604,4.8604,4.8604,4.8604,4.8604,4.8604,4.8604,4.8604,4.8604,4.8604,4.8604,4.8604,4.8604,4.8604,4.8604,4.8604,4.8604,4.8604,4.8604,4.8604,4.8604,4.8604,4.8604,4.8604,4.8604,4.8604,4.8604,4.8604,4.8604,4.8604,4.8604,4.8759,4.9138,4.9837,4.3511,4.3494,4.3478,4.3478,4.3477,4.3572,4.3947,4.3947,4.4142,4.4629,4.4766,4.53,4.6494,4.7825,4.942,5.1304,5.0943,5.0394,4.9793,4.9244,4.8695,4.8198,4.8172,4.8172,4.8172,4.7728,4.6913,4.5924,4.5715,4.532,4.4824,4.4774,4.4668,4.4668,4.4668,4.467,4.4539,4.4068,4.3598,4.3206,4.3676,4.365,4.3415,4.4302,4.4434,4.3938,4.3258,4.2971,4.2735,4.1899,4.2239,4.2944,4.2579,4.2447,4.2396,4.2892,4.2605,4.2447,4.3441,4.3049,4.2552,4.3677,4.3206,4.2473,4.2395,4.1997,4.1796,4.2016,4.2289,4.3184,4.5372,4.5779,4.6403,4.8313,4.8604,4.8604,4.8604,4.8604,4.8604,4.8604,4.8604,4.8604,4.8604,4.8604,4.8604,4.8604,4.8604,4.8604,4.8604,4.8604,4.8604,4.8604,4.8604,4.8604,4.8604,4.8604,4.8604,4.8604,4.8604,4.8604,4.8604,4.8604,4.8604,4.8604,4.8604,4.8604,4.8604,4.8604,4.8604,4.8604,4.8604,4.8604,4.8646,4.9047,5.0026,5.1336,4.3097,4.3257,4.3382,4.3382,4.3307,4.3371,4.3834,4.3878,4.422,4.5073,4.553,4.6607,4.8821,5.0257,5.109,5.0943,5.0368,4.9793,4.9218,4.8643,4.8277,4.8172,4.8172,4.8172,4.8172,4.812,4.7754,4.7043,4.6051,4.5584,4.5506,4.4903,4.4668,4.4668,4.4668,4.446,4.399,4.3912,4.3833,4.3781,4.3833,4.4121,4.4513,4.467,4.467,4.446,4.3389,4.2709,4.2343,4.2683,4.2892,4.3101,4.352,4.331,4.2918,4.2997,4.2605,4.2342,4.2971,4.3023,4.3049,4.3702,4.3755,4.352,4.3023,4.2259,4.1796,4.2016,4.2289,4.3184,4.5372,4.5779,4.6403,4.8313,4.8604,4.8604,4.8604,4.8604,4.8604,4.8604,4.8604,4.8604,4.8604,4.8604,4.8604,4.8604,4.8604,4.8604,4.8604,4.8604,4.8604,4.8604,4.8604,4.8604,4.8604,4.8604,4.8604,4.8604,4.8604,4.8604,4.8604,4.8604,4.8604,4.8604,4.8604,4.8604,4.8604,4.8604,4.8604,4.8604,4.8604,4.8604,4.8728,4.9599,5.1117,5.2702,4.2642,4.2984,4.3422,4.3422,4.3731,4.3949,4.3954,4.3933,4.4228,4.521,4.5461,4.6594,4.9192,5.047,5.1047,5.0812,4.9949,4.9348,4.9113,4.8512,4.8172,4.8172,4.8172,4.8172,4.8172,4.7885,4.7597,4.7278,4.6782,4.6208,4.5555,4.5294,4.5007,4.4668,4.4668,4.4408,4.3912,4.3912,4.3702,4.3415,4.3729,4.4016,4.4278,4.4617,4.4539,4.4147,4.331,4.3075,4.3101,4.3049,4.3023,4.3075,4.331,4.3232,4.3075,4.3389,4.3101,4.284,4.3729,4.3284,4.2892,4.4282,4.4151,4.373,4.3887,4.351,4.3021,4.2651,4.2677,4.3437,4.5878,4.6011,4.6403,4.8313,4.8604,4.8604,4.8604,4.8604,4.8604,4.8604,4.8604,4.8604,4.8604,4.8604,4.8604,4.8604,4.8604,4.8604,4.8604,4.8604,4.8604,4.8604,4.8604,4.8604,4.8604,4.8604,4.8604,4.8604,4.8604,4.8604,4.8604,4.8604,4.8604,4.8604,4.8604,4.8604,4.8604,4.8604,4.8604,4.8604,4.8604,4.9025,4.9726,5.0703,5.1996,5.3247]}]]